Wetterdaten: Samstag, 02.04.2016
Datum Zeit Temp. A. Feuchte A. Luftdruck Regen Wind Richtung Richtung Sonnenschein ET UV Solar Taupunkt Windchill Windben Empfang
02.04.2016 00:00 6,9 C 78 % 1020,9 hPa 0,0 l/m 18,3 km/h (3 Bft) NO 38 0 min 0,000 mm 0,0 UV-I 0 W/m 3,3 C -0,1 C 25,7 km/h (4 Bft) 100,00 %
02.04.2016 00:01 6,9 C 78 % 1021,0 hPa 0,0 l/m 21,3 km/h (4 Bft) O-NO 58 0 min 0,000 mm 0,0 UV-I 0 W/m 3,3 C -1,2 C 25,7 km/h (4 Bft) 100,00 %
02.04.2016 00:02 6,9 C 78 % 1021,0 hPa 0,0 l/m 22,4 km/h (4 Bft) NO 43 0 min 0,000 mm 0,0 UV-I 0 W/m 3,3 C -1,6 C 30,6 km/h (5 Bft) 100,00 %
02.04.2016 00:03 6,9 C 78 % 1020,9 hPa 0,0 l/m 20,9 km/h (4 Bft) O-NO 63 0 min 0,000 mm 0,0 UV-I 0 W/m 3,3 C -1,0 C 32,2 km/h (5 Bft) 100,00 %
02.04.2016 00:04 6,9 C 78 % 1020,8 hPa 0,0 l/m 23,1 km/h (4 Bft) O-NO 63 0 min 0,000 mm 0,0 UV-I 0 W/m 3,3 C -1,8 C 29,0 km/h (5 Bft) 100,00 %
02.04.2016 00:05 6,9 C 78 % 1020,8 hPa 0,0 l/m 22,5 km/h (4 Bft) NO 53 0 min 0,000 mm 0,0 UV-I 0 W/m 3,3 C -1,6 C 29,0 km/h (5 Bft) 100,00 %
02.04.2016 00:06 6,9 C 78 % 1020,8 hPa 0,0 l/m 22,0 km/h (4 Bft) NO 54 0 min 0,000 mm 0,0 UV-I 0 W/m 3,3 C -1,4 C 32,2 km/h (5 Bft) 100,00 %
02.04.2016 00:07 6,9 C 78 % 1020,8 hPa 0,0 l/m 23,6 km/h (4 Bft) NO 55 0 min 0,000 mm 0,0 UV-I 0 W/m 3,3 C -1,9 C 30,6 km/h (5 Bft) 100,00 %
02.04.2016 00:08 6,9 C 78 % 1020,8 hPa 0,0 l/m 20,0 km/h (4 Bft) NO 48 0 min 0,000 mm 0,0 UV-I 0 W/m 3,3 C -0,7 C 25,7 km/h (4 Bft) 100,00 %
02.04.2016 00:09 6,9 C 78 % 1020,7 hPa 0,0 l/m 23,7 km/h (4 Bft) O-NO 58 0 min 0,000 mm 0,0 UV-I 0 W/m 3,3 C -2,0 C 30,6 km/h (5 Bft) 100,00 %
02.04.2016 00:10 6,8 C 78 % 1020,6 hPa 0,0 l/m 26,0 km/h (4 Bft) NO 49 0 min 0,000 mm 0,0 UV-I 0 W/m 3,2 C -2,8 C 30,6 km/h (5 Bft) 100,00 %
02.04.2016 00:11 6,8 C 77 % 1020,6 hPa 0,0 l/m 23,4 km/h (4 Bft) O-NO 57 0 min 0,000 mm 0,0 UV-I 0 W/m 3,1 C -2,0 C 29,0 km/h (5 Bft) 100,00 %
02.04.2016 00:12 6,8 C 78 % 1020,6 hPa 0,0 l/m 20,8 km/h (4 Bft) NO 55 0 min 0,000 mm 0,0 UV-I 0 W/m 3,2 C -1,1 C 25,7 km/h (4 Bft) 100,00 %
02.04.2016 00:13 6,8 C 78 % 1020,6 hPa 0,0 l/m 22,1 km/h (4 Bft) NO 47 0 min 0,000 mm 0,0 UV-I 0 W/m 3,2 C -1,6 C 32,2 km/h (5 Bft) 100,00 %
02.04.2016 00:14 6,8 C 78 % 1020,6 hPa 0,0 l/m 21,6 km/h (4 Bft) O-NO 60 0 min 0,000 mm 0,0 UV-I 0 W/m 3,2 C -1,4 C 29,0 km/h (5 Bft) 100,00 %
02.04.2016 00:15 6,8 C 78 % 1020,6 hPa 0,0 l/m 21,3 km/h (4 Bft) NO 38 0 min 0,000 mm 0,0 UV-I 0 W/m 3,2 C -1,3 C 25,7 km/h (4 Bft) 100,00 %
02.04.2016 00:16 6,8 C 78 % 1020,6 hPa 0,0 l/m 19,1 km/h (3 Bft) NO 50 0 min 0,000 mm 0,0 UV-I 0 W/m 3,2 C -0,5 C 24,1 km/h (4 Bft) 100,00 %
02.04.2016 00:17 6,8 C 78 % 1020,7 hPa 0,0 l/m 25,3 km/h (4 Bft) O 86 0 min 0,000 mm 0,0 UV-I 0 W/m 3,2 C -2,6 C 29,0 km/h (5 Bft) 100,00 %
02.04.2016 00:18 6,8 C 78 % 1020,6 hPa 0,0 l/m 24,5 km/h (4 Bft) NO 44 0 min 0,000 mm 0,0 UV-I 0 W/m 3,2 C -2,4 C 32,2 km/h (5 Bft) 100,00 %
02.04.2016 00:19 6,8 C 78 % 1020,6 hPa 0,0 l/m 24,5 km/h (4 Bft) NO 49 0 min 0,000 mm 0,0 UV-I 0 W/m 3,2 C -2,4 C 33,8 km/h (5 Bft) 100,00 %
02.04.2016 00:20 6,8 C 78 % 1020,6 hPa 0,0 l/m 25,4 km/h (4 Bft) O-NO 59 0 min 0,000 mm 0,0 UV-I 0 W/m 3,2 C -2,6 C 30,6 km/h (5 Bft) 100,00 %
02.04.2016 00:21 6,8 C 78 % 1020,6 hPa 0,0 l/m 23,7 km/h (4 Bft) O-NO 66 0 min 0,000 mm 0,0 UV-I 0 W/m 3,2 C -2,1 C 29,0 km/h (5 Bft) 100,00 %
02.04.2016 00:22 6,8 C 78 % 1020,6 hPa 0,0 l/m 20,2 km/h (4 Bft) O-NO 77 0 min 0,000 mm 0,0 UV-I 0 W/m 3,2 C -0,9 C 25,7 km/h (4 Bft) 100,00 %
02.04.2016 00:23 6,8 C 78 % 1020,6 hPa 0,0 l/m 19,0 km/h (3 Bft) O 80 0 min 0,000 mm 0,0 UV-I 0 W/m 3,2 C -0,5 C 24,1 km/h (4 Bft) 95,83 %
02.04.2016 00:24 6,8 C 78 % 1020,5 hPa 0,0 l/m 19,4 km/h (3 Bft) NO 55 0 min 0,000 mm 0,0 UV-I 0 W/m 3,2 C -0,6 C 24,1 km/h (4 Bft) 100,00 %
02.04.2016 00:25 6,8 C 79 % 1020,6 hPa 0,0 l/m 21,6 km/h (4 Bft) NO 55 0 min 0,000 mm 0,0 UV-I 0 W/m 3,4 C -1,4 C 29,0 km/h (5 Bft) 100,00 %
02.04.2016 00:26 6,8 C 78 % 1020,6 hPa 0,0 l/m 23,4 km/h (4 Bft) NO 44 0 min 0,000 mm 0,0 UV-I 0 W/m 3,2 C -2,0 C 30,6 km/h (5 Bft) 100,00 %
02.04.2016 00:27 6,8 C 79 % 1020,6 hPa 0,0 l/m 22,4 km/h (4 Bft) N-NO 22 0 min 0,000 mm 0,0 UV-I 0 W/m 3,4 C -1,7 C 30,6 km/h (5 Bft) 100,00 %
02.04.2016 00:28 6,7 C 79 % 1020,5 hPa 0,0 l/m 25,1 km/h (4 Bft) O-NO 78 0 min 0,000 mm 0,0 UV-I 0 W/m 3,3 C -2,7 C 32,2 km/h (5 Bft) 100,00 %
02.04.2016 00:29 6,7 C 78 % 1020,6 hPa 0,0 l/m 24,2 km/h (4 Bft) NO 53 0 min 0,000 mm 0,0 UV-I 0 W/m 3,1 C -2,4 C 30,6 km/h (5 Bft) 100,00 %
02.04.2016 00:30 6,7 C 79 % 1020,6 hPa 0,0 l/m 21,2 km/h (4 Bft) O-NO 59 0 min 0,000 mm 0,0 UV-I 0 W/m 3,3 C -1,4 C 25,7 km/h (4 Bft) 100,00 %
02.04.2016 00:31 6,7 C 79 % 1020,6 hPa 0,0 l/m 18,2 km/h (3 Bft) O-NO 59 0 min 0,000 mm 0,0 UV-I 0 W/m 3,3 C -0,3 C 22,5 km/h (4 Bft) 100,00 %
02.04.2016 00:32 6,7 C 79 % 1020,7 hPa 0,0 l/m 24,3 km/h (4 Bft) O-NO 59 0 min 0,000 mm 0,0 UV-I 0 W/m 3,3 C -2,4 C 32,2 km/h (5 Bft) 100,00 %
02.04.2016 00:33 6,7 C 79 % 1020,6 hPa 0,0 l/m 22,1 km/h (4 Bft) O-NO 59 0 min 0,000 mm 0,0 UV-I 0 W/m 3,3 C -1,7 C 29,0 km/h (5 Bft) 100,00 %
02.04.2016 00:34 6,7 C 79 % 1020,6 hPa 0,0 l/m 23,3 km/h (4 Bft) O-NO 60 0 min 0,000 mm 0,0 UV-I 0 W/m 3,3 C -2,1 C 32,2 km/h (5 Bft) 100,00 %
02.04.2016 00:35 6,7 C 78 % 1020,7 hPa 0,0 l/m 22,7 km/h (4 Bft) O-NO 67 0 min 0,000 mm 0,0 UV-I 0 W/m 3,1 C -1,9 C 32,2 km/h (5 Bft) 96,15 %
02.04.2016 00:36 6,7 C 78 % 1020,6 hPa 0,0 l/m 18,9 km/h (3 Bft) NO 51 0 min 0,000 mm 0,0 UV-I 0 W/m 3,1 C -0,6 C 29,0 km/h (5 Bft) 100,00 %
02.04.2016 00:37 6,7 C 79 % 1020,6 hPa 0,0 l/m 22,5 km/h (4 Bft) O-NO 59 0 min 0,000 mm 0,0 UV-I 0 W/m 3,3 C -1,9 C 27,4 km/h (4 Bft) 100,00 %
02.04.2016 00:38 6,7 C 79 % 1020,6 hPa 0,0 l/m 23,9 km/h (4 Bft) O-NO 57 0 min 0,000 mm 0,0 UV-I 0 W/m 3,3 C -2,3 C 33,8 km/h (5 Bft) 100,00 %
02.04.2016 00:39 6,7 C 79 % 1020,7 hPa 0,0 l/m 23,7 km/h (4 Bft) NO 51 0 min 0,000 mm 0,0 UV-I 0 W/m 3,3 C -2,2 C 29,0 km/h (5 Bft) 100,00 %
02.04.2016 00:40 6,7 C 79 % 1020,7 hPa 0,0 l/m 20,3 km/h (4 Bft) O-NO 57 0 min 0,000 mm 0,0 UV-I 0 W/m 3,3 C -1,1 C 27,4 km/h (4 Bft) 95,83 %
02.04.2016 00:41 6,7 C 79 % 1020,7 hPa 0,0 l/m 25,4 km/h (4 Bft) O-NO 65 0 min 0,000 mm 0,0 UV-I 0 W/m 3,3 C -2,8 C 30,6 km/h (5 Bft) 100,00 %
02.04.2016 00:42 6,7 C 79 % 1020,7 hPa 0,0 l/m 25,6 km/h (4 Bft) O-NO 60 0 min 0,000 mm 0,0 UV-I 0 W/m 3,3 C -2,8 C 32,2 km/h (5 Bft) 100,00 %
02.04.2016 00:43 6,7 C 78 % 1020,7 hPa 0,0 l/m 24,7 km/h (4 Bft) NO 46 0 min 0,000 mm 0,0 UV-I 0 W/m 3,1 C -2,5 C 30,6 km/h (5 Bft) 100,00 %
02.04.2016 00:44 6,7 C 79 % 1020,7 hPa 0,0 l/m 20,9 km/h (4 Bft) O-NO 69 0 min 0,000 mm 0,0 UV-I 0 W/m 3,3 C -1,3 C 29,0 km/h (5 Bft) 100,00 %
02.04.2016 00:45 6,7 C 79 % 1020,7 hPa 0,0 l/m 22,7 km/h (4 Bft) NO 55 0 min 0,000 mm 0,0 UV-I 0 W/m 3,3 C -1,9 C 27,4 km/h (4 Bft) 96,55 %
02.04.2016 00:46 6,7 C 79 % 1020,8 hPa 0,0 l/m 17,3 km/h (3 Bft) O-NO 61 0 min 0,000 mm 0,0 UV-I 0 W/m 3,3 C 0,1 C 20,9 km/h (4 Bft) 100,00 %
02.04.2016 00:47 6,6 C 79 % 1020,8 hPa 0,0 l/m 23,8 km/h (4 Bft) O-NO 63 0 min 0,000 mm 0,0 UV-I 0 W/m 3,2 C -2,4 C 27,4 km/h (4 Bft) 100,00 %
02.04.2016 00:48 6,6 C 79 % 1020,8 hPa 0,0 l/m 21,0 km/h (4 Bft) O-NO 58 0 min 0,000 mm 0,0 UV-I 0 W/m 3,2 C -1,5 C 29,0 km/h (5 Bft) 100,00 %
02.04.2016 00:49 6,6 C 79 % 1020,8 hPa 0,0 l/m 25,7 km/h (4 Bft) O-NO 59 0 min 0,000 mm 0,0 UV-I 0 W/m 3,2 C -3,0 C 30,6 km/h (5 Bft) 100,00 %
02.04.2016 00:50 6,6 C 79 % 1020,8 hPa 0,0 l/m 21,4 km/h (4 Bft) NO 44 0 min 0,000 mm 0,0 UV-I 0 W/m 3,2 C -1,6 C 29,0 km/h (5 Bft) 100,00 %
02.04.2016 00:51 6,6 C 79 % 1020,9 hPa 0,0 l/m 22,8 km/h (4 Bft) NO 54 0 min 0,000 mm 0,0 UV-I 0 W/m 3,2 C -2,1 C 29,0 km/h (5 Bft) 100,00 %
02.04.2016 00:52 6,6 C 79 % 1020,8 hPa 0,0 l/m 23,3 km/h (4 Bft) NO 56 0 min 0,000 mm 0,0 UV-I 0 W/m 3,2 C -2,2 C 33,8 km/h (5 Bft) 100,00 %
02.04.2016 00:53 6,6 C 79 % 1020,9 hPa 0,0 l/m 19,1 km/h (3 Bft) O-NO 67 0 min 0,000 mm 0,0 UV-I 0 W/m 3,2 C -0,8 C 24,1 km/h (4 Bft) 100,00 %
02.04.2016 00:54 6,6 C 79 % 1020,9 hPa 0,0 l/m 21,3 km/h (4 Bft) O-NO 65 0 min 0,000 mm 0,0 UV-I 0 W/m 3,2 C -1,6 C 25,7 km/h (4 Bft) 96,97 %
02.04.2016 00:55 6,6 C 79 % 1020,9 hPa 0,0 l/m 26,5 km/h (4 Bft) NO 53 0 min 0,000 mm 0,0 UV-I 0 W/m 3,2 C -3,2 C 37,0 km/h (5 Bft) 96,30 %
02.04.2016 00:56 6,6 C 79 % 1020,9 hPa 0,0 l/m 22,1 km/h (4 Bft) O-NO 61 0 min 0,000 mm 0,0 UV-I 0 W/m 3,2 C -1,9 C 29,0 km/h (5 Bft) 100,00 %
02.04.2016 00:57 6,6 C 79 % 1020,9 hPa 0,0 l/m 18,3 km/h (3 Bft) O-NO 63 0 min 0,000 mm 0,0 UV-I 0 W/m 3,2 C -0,4 C 24,1 km/h (4 Bft) 96,30 %
02.04.2016 00:58 6,6 C 79 % 1020,8 hPa 0,0 l/m 25,7 km/h (4 Bft) O-NO 72 0 min 0,000 mm 0,0 UV-I 0 W/m 3,2 C -3,0 C 40,2 km/h (6 Bft) 96,15 %
02.04.2016 00:59 6,6 C 79 % 1020,8 hPa 0,0 l/m 24,9 km/h (4 Bft) NO 53 0 min 0,000 mm 0,0 UV-I 0 W/m 3,2 C -2,7 C 33,8 km/h (5 Bft) 100,00 %
02.04.2016 01:00 6,6 C 79 % 1020,8 hPa 0,0 l/m 26,8 km/h (4 Bft) NO 52 0 min 0,051 mm 0,0 UV-I 0 W/m 3,2 C -3,3 C 33,8 km/h (5 Bft) 86,96 %
02.04.2016 01:01 6,6 C 79 % 1020,8 hPa 0,0 l/m 20,7 km/h (4 Bft) O-NO 74 0 min 0,000 mm 0,0 UV-I 0 W/m 3,2 C -1,4 C 27,4 km/h (4 Bft) 100,00 %
02.04.2016 01:02 6,6 C 79 % 1020,8 hPa 0,0 l/m 20,8 km/h (4 Bft) O-NO 58 0 min 0,000 mm 0,0 UV-I 0 W/m 3,2 C -1,4 C 27,4 km/h (4 Bft) 95,65 %
02.04.2016 01:03 6,6 C 79 % 1020,8 hPa 0,0 l/m 19,9 km/h (4 Bft) O-NO 69 0 min 0,000 mm 0,0 UV-I 0 W/m 3,2 C -1,1 C 27,4 km/h (4 Bft) 100,00 %
02.04.2016 01:04 6,6 C 79 % 1020,8 hPa 0,0 l/m 21,7 km/h (4 Bft) O-NO 59 0 min 0,000 mm 0,0 UV-I 0 W/m 3,2 C -1,7 C 29,0 km/h (5 Bft) 95,65 %
02.04.2016 01:05 6,6 C 79 % 1020,8 hPa 0,0 l/m 23,3 km/h (4 Bft) O-NO 57 0 min 0,000 mm 0,0 UV-I 0 W/m 3,2 C -2,2 C 32,2 km/h (5 Bft) 92,59 %
02.04.2016 01:06 6,6 C 79 % 1020,9 hPa 0,0 l/m 22,4 km/h (4 Bft) O 79 0 min 0,000 mm 0,0 UV-I 0 W/m 3,2 C -2,0 C 27,4 km/h (4 Bft) 95,65 %
02.04.2016 01:07 6,6 C 79 % 1020,8 hPa 0,0 l/m 26,0 km/h (4 Bft) O-NO 63 0 min 0,000 mm 0,0 UV-I 0 W/m 3,2 C -3,1 C 30,6 km/h (5 Bft) 100,00 %
02.04.2016 01:08 6,6 C 79 % 1020,8 hPa 0,0 l/m 18,8 km/h (3 Bft) O-NO 58 0 min 0,000 mm 0,0 UV-I 0 W/m 3,2 C -0,6 C 25,7 km/h (4 Bft) 93,10 %
02.04.2016 01:09 6,6 C 79 % 1020,9 hPa 0,0 l/m 15,2 km/h (3 Bft) NO 52 0 min 0,000 mm 0,0 UV-I 0 W/m 3,2 C 0,9 C 19,3 km/h (3 Bft) 94,44 %
02.04.2016 01:10 6,6 C 79 % 1020,8 hPa 0,0 l/m 25,1 km/h (4 Bft) NO 45 0 min 0,000 mm 0,0 UV-I 0 W/m 3,2 C -2,8 C 30,6 km/h (5 Bft) 100,00 %
02.04.2016 01:11 6,6 C 79 % 1020,8 hPa 0,0 l/m 21,7 km/h (4 Bft) O-NO 68 0 min 0,000 mm 0,0 UV-I 0 W/m 3,2 C -1,7 C 27,4 km/h (4 Bft) 95,83 %
02.04.2016 01:12 6,6 C 79 % 1020,8 hPa 0,0 l/m 18,9 km/h (3 Bft) O-NO 67 0 min 0,000 mm 0,0 UV-I 0 W/m 3,2 C -0,7 C 29,0 km/h (5 Bft) 96,15 %
02.04.2016 01:13 6,6 C 79 % 1020,8 hPa 0,0 l/m 23,9 km/h (4 Bft) O-NO 62 0 min 0,000 mm 0,0 UV-I 0 W/m 3,2 C -2,4 C 33,8 km/h (5 Bft) 91,67 %
02.04.2016 01:14 6,6 C 79 % 1020,8 hPa 0,0 l/m 21,4 km/h (4 Bft) NO 56 0 min 0,000 mm 0,0 UV-I 0 W/m 3,2 C -1,6 C 24,1 km/h (4 Bft) 96,67 %
02.04.2016 01:15 6,6 C 79 % 1020,8 hPa 0,0 l/m 23,0 km/h (4 Bft) O-NO 63 0 min 0,000 mm 0,0 UV-I 0 W/m 3,2 C -2,2 C 27,4 km/h (4 Bft) 96,15 %
02.04.2016 01:16 6,6 C 79 % 1020,9 hPa 0,0 l/m 25,7 km/h (4 Bft) NO 55 0 min 0,000 mm 0,0 UV-I 0 W/m 3,2 C -3,0 C 33,8 km/h (5 Bft) 100,00 %
02.04.2016 01:17 6,6 C 79 % 1020,8 hPa 0,0 l/m 25,1 km/h (4 Bft) O-NO 73 0 min 0,000 mm 0,0 UV-I 0 W/m 3,2 C -2,8 C 33,8 km/h (5 Bft) 96,15 %
02.04.2016 01:18 6,6 C 79 % 1020,9 hPa 0,0 l/m 19,6 km/h (3 Bft) O-NO 70 0 min 0,000 mm 0,0 UV-I 0 W/m 3,2 C -1,0 C 27,4 km/h (4 Bft) 96,30 %
02.04.2016 01:19 6,6 C 79 % 1020,9 hPa 0,0 l/m 17,8 km/h (3 Bft) O-NO 64 0 min 0,000 mm 0,0 UV-I 0 W/m 3,2 C -0,2 C 24,1 km/h (4 Bft) 100,00 %
02.04.2016 01:20 6,6 C 79 % 1020,9 hPa 0,0 l/m 22,5 km/h (4 Bft) O-NO 61 0 min 0,000 mm 0,0 UV-I 0 W/m 3,2 C -2,0 C 30,6 km/h (5 Bft) 95,83 %
02.04.2016 01:21 6,6 C 78 % 1020,9 hPa 0,0 l/m 21,5 km/h (4 Bft) NO 42 0 min 0,000 mm 0,0 UV-I 0 W/m 3,0 C -1,6 C 30,6 km/h (5 Bft) 100,00 %
02.04.2016 01:22 6,6 C 78 % 1020,9 hPa 0,0 l/m 18,6 km/h (3 Bft) O-NO 67 0 min 0,000 mm 0,0 UV-I 0 W/m 3,0 C -0,6 C 24,1 km/h (4 Bft) 96,30 %
02.04.2016 01:23 6,6 C 79 % 1020,9 hPa 0,0 l/m 19,8 km/h (3 Bft) NO 34 0 min 0,000 mm 0,0 UV-I 0 W/m 3,2 C -1,0 C 27,4 km/h (4 Bft) 93,10 %
02.04.2016 01:24 6,6 C 78 % 1021,0 hPa 0,0 l/m 20,0 km/h (4 Bft) NO 52 0 min 0,000 mm 0,0 UV-I 0 W/m 3,0 C -1,1 C 29,0 km/h (5 Bft) 96,30 %
02.04.2016 01:25 6,6 C 78 % 1021,0 hPa 0,0 l/m 18,2 km/h (3 Bft) NO 36 0 min 0,000 mm 0,0 UV-I 0 W/m 3,0 C -0,4 C 24,1 km/h (4 Bft) 91,30 %
02.04.2016 01:26 6,6 C 78 % 1021,0 hPa 0,0 l/m 18,1 km/h (3 Bft) NO 43 0 min 0,000 mm 0,0 UV-I 0 W/m 3,0 C -0,4 C 27,4 km/h (4 Bft) 91,67 %
02.04.2016 01:27 6,6 C 78 % 1021,0 hPa 0,0 l/m 20,6 km/h (4 Bft) NO 51 0 min 0,000 mm 0,0 UV-I 0 W/m 3,0 C -1,3 C 25,7 km/h (4 Bft) 93,75 %
02.04.2016 01:28 6,6 C 78 % 1021,1 hPa 0,0 l/m 16,9 km/h (3 Bft) O-NO 67 0 min 0,000 mm 0,0 UV-I 0 W/m 3,0 C 0,1 C 22,5 km/h (4 Bft) 100,00 %
02.04.2016 01:29 6,6 C 78 % 1021,2 hPa 0,0 l/m 20,8 km/h (4 Bft) O-NO 62 0 min 0,000 mm 0,0 UV-I 0 W/m 3,0 C -1,4 C 27,4 km/h (4 Bft) 93,33 %
02.04.2016 01:30 6,6 C 79 % 1021,2 hPa 0,0 l/m 13,7 km/h (3 Bft) O-NO 59 0 min 0,000 mm 0,0 UV-I 0 W/m 3,2 C 1,7 C 19,3 km/h (3 Bft) 100,00 %
02.04.2016 01:31 6,6 C 79 % 1021,2 hPa 0,0 l/m 16,4 km/h (3 Bft) N-NO 32 0 min 0,000 mm 0,0 UV-I 0 W/m 3,2 C 0,4 C 22,5 km/h (4 Bft) 100,00 %
02.04.2016 01:32 6,6 C 78 % 1021,2 hPa 0,0 l/m 19,3 km/h (3 Bft) NO 43 0 min 0,000 mm 0,0 UV-I 0 W/m 3,0 C -0,8 C 24,1 km/h (4 Bft) 100,00 %
02.04.2016 01:33 6,6 C 78 % 1021,2 hPa 0,0 l/m 14,9 km/h (3 Bft) O-NO 59 0 min 0,000 mm 0,0 UV-I 0 W/m 3,0 C 1,1 C 22,5 km/h (4 Bft) 100,00 %
02.04.2016 01:34 6,6 C 78 % 1021,2 hPa 0,0 l/m 17,6 km/h (3 Bft) NO 55 0 min 0,000 mm 0,0 UV-I 0 W/m 3,0 C -0,2 C 27,4 km/h (4 Bft) 97,37 %
02.04.2016 01:35 6,6 C 78 % 1021,2 hPa 0,0 l/m 19,7 km/h (3 Bft) NO 41 0 min 0,000 mm 0,0 UV-I 0 W/m 3,0 C -1,0 C 32,2 km/h (5 Bft) 100,00 %
02.04.2016 01:36 6,6 C 78 % 1021,2 hPa 0,0 l/m 18,3 km/h (3 Bft) O-NO 63 0 min 0,000 mm 0,0 UV-I 0 W/m 3,0 C -0,4 C 25,7 km/h (4 Bft) 96,15 %
02.04.2016 01:37 6,6 C 78 % 1021,1 hPa 0,0 l/m 17,8 km/h (3 Bft) NO 35 0 min 0,000 mm 0,0 UV-I 0 W/m 3,0 C -0,2 C 24,1 km/h (4 Bft) 100,00 %
02.04.2016 01:38 6,6 C 78 % 1021,1 hPa 0,0 l/m 14,7 km/h (3 Bft) NO 44 0 min 0,000 mm 0,0 UV-I 0 W/m 3,0 C 1,2 C 20,9 km/h (4 Bft) 100,00 %
02.04.2016 01:39 6,6 C 78 % 1021,0 hPa 0,0 l/m 16,6 km/h (3 Bft) NO 39 0 min 0,000 mm 0,0 UV-I 0 W/m 3,0 C 0,3 C 22,5 km/h (4 Bft) 92,59 %
02.04.2016 01:40 6,6 C 78 % 1021,0 hPa 0,0 l/m 19,1 km/h (3 Bft) NO 50 0 min 0,000 mm 0,0 UV-I 0 W/m 3,0 C -0,8 C 24,1 km/h (4 Bft) 100,00 %
02.04.2016 01:41 6,6 C 78 % 1021,0 hPa 0,0 l/m 19,9 km/h (4 Bft) NO 47 0 min 0,000 mm 0,0 UV-I 0 W/m 3,0 C -1,1 C 25,7 km/h (4 Bft) 96,30 %
02.04.2016 01:42 6,6 C 78 % 1020,9 hPa 0,0 l/m 17,0 km/h (3 Bft) O-NO 71 0 min 0,000 mm 0,0 UV-I 0 W/m 3,0 C 0,1 C 22,5 km/h (4 Bft) 100,00 %
02.04.2016 01:43 6,6 C 78 % 1020,8 hPa 0,0 l/m 25,0 km/h (4 Bft) O-NO 64 0 min 0,000 mm 0,0 UV-I 0 W/m 3,0 C -2,8 C 30,6 km/h (5 Bft) 100,00 %
02.04.2016 01:44 6,6 C 78 % 1020,8 hPa 0,0 l/m 26,7 km/h (4 Bft) NO 46 0 min 0,000 mm 0,0 UV-I 0 W/m 3,0 C -3,3 C 32,2 km/h (5 Bft) 92,86 %
02.04.2016 01:45 6,6 C 78 % 1020,8 hPa 0,0 l/m 22,3 km/h (4 Bft) O-NO 67 0 min 0,000 mm 0,0 UV-I 0 W/m 3,0 C -1,9 C 32,2 km/h (5 Bft) 100,00 %
02.04.2016 01:46 6,6 C 78 % 1020,8 hPa 0,0 l/m 24,0 km/h (4 Bft) O-NO 65 0 min 0,000 mm 0,0 UV-I 0 W/m 3,0 C -2,5 C 27,4 km/h (4 Bft) 100,00 %
02.04.2016 01:47 6,6 C 78 % 1020,7 hPa 0,0 l/m 20,9 km/h (4 Bft) NO 38 0 min 0,000 mm 0,0 UV-I 0 W/m 3,0 C -1,4 C 25,7 km/h (4 Bft) 100,00 %
02.04.2016 01:48 6,5 C 78 % 1020,7 hPa 0,0 l/m 25,0 km/h (4 Bft) NO 44 0 min 0,000 mm 0,0 UV-I 0 W/m 2,9 C -2,9 C 32,2 km/h (5 Bft) 100,00 %
02.04.2016 01:49 6,5 C 77 % 1020,7 hPa 0,0 l/m 24,2 km/h (4 Bft) O-NO 69 0 min 0,000 mm 0,0 UV-I 0 W/m 2,8 C -2,7 C 29,0 km/h (5 Bft) 100,00 %
02.04.2016 01:50 6,5 C 78 % 1020,7 hPa 0,0 l/m 23,1 km/h (4 Bft) O-NO 73 0 min 0,000 mm 0,0 UV-I 0 W/m 2,9 C -2,3 C 30,6 km/h (5 Bft) 100,00 %
02.04.2016 01:51 6,5 C 78 % 1020,7 hPa 0,0 l/m 20,6 km/h (4 Bft) O-NO 74 0 min 0,000 mm 0,0 UV-I 0 W/m 2,9 C -1,5 C 27,4 km/h (4 Bft) 100,00 %
02.04.2016 01:52 6,5 C 78 % 1020,6 hPa 0,0 l/m 21,2 km/h (4 Bft) NO 34 0 min 0,000 mm 0,0 UV-I 0 W/m 2,9 C -1,7 C 29,0 km/h (5 Bft) 100,00 %
02.04.2016 01:53 6,4 C 78 % 1020,7 hPa 0,0 l/m 21,4 km/h (4 Bft) O-NO 75 0 min 0,000 mm 0,0 UV-I 0 W/m 2,8 C -1,9 C 27,4 km/h (4 Bft) 100,00 %
02.04.2016 01:54 6,4 C 78 % 1020,7 hPa 0,0 l/m 20,7 km/h (4 Bft) O-NO 59 0 min 0,000 mm 0,0 UV-I 0 W/m 2,8 C -1,6 C 24,1 km/h (4 Bft) 100,00 %
02.04.2016 01:55 6,4 C 78 % 1020,7 hPa 0,0 l/m 17,7 km/h (3 Bft) O-NO 63 0 min 0,000 mm 0,0 UV-I 0 W/m 2,8 C -0,4 C 24,1 km/h (4 Bft) 100,00 %
02.04.2016 01:56 6,4 C 78 % 1020,8 hPa 0,0 l/m 21,5 km/h (4 Bft) O-NO 61 0 min 0,000 mm 0,0 UV-I 0 W/m 2,8 C -1,9 C 30,6 km/h (5 Bft) 96,30 %
02.04.2016 01:57 6,4 C 78 % 1020,7 hPa 0,0 l/m 21,6 km/h (4 Bft) O-NO 57 0 min 0,000 mm 0,0 UV-I 0 W/m 2,8 C -1,9 C 29,0 km/h (5 Bft) 100,00 %
02.04.2016 01:58 6,4 C 78 % 1020,8 hPa 0,0 l/m 20,2 km/h (4 Bft) O-NO 67 0 min 0,000 mm 0,0 UV-I 0 W/m 2,8 C -1,4 C 25,7 km/h (4 Bft) 100,00 %
02.04.2016 01:59 6,4 C 78 % 1020,8 hPa 0,0 l/m 21,3 km/h (4 Bft) O-NO 60 0 min 0,000 mm 0,0 UV-I 0 W/m 2,8 C -1,8 C 27,4 km/h (4 Bft) 96,55 %
02.04.2016 02:00 6,4 C 78 % 1020,7 hPa 0,0 l/m 21,6 km/h (4 Bft) O 79 0 min 0,000 mm 0,0 UV-I 0 W/m 2,8 C -1,9 C 30,6 km/h (5 Bft) 100,00 %
02.04.2016 02:01 6,4 C 78 % 1020,7 hPa 0,0 l/m 25,7 km/h (4 Bft) O-NO 61 0 min 0,051 mm 0,0 UV-I 0 W/m 2,8 C -3,3 C 32,2 km/h (5 Bft) 100,00 %
02.04.2016 02:02 6,4 C 78 % 1020,6 hPa 0,0 l/m 22,3 km/h (4 Bft) NO 46 0 min 0,000 mm 0,0 UV-I 0 W/m 2,8 C -2,2 C 27,4 km/h (4 Bft) 95,83 %
02.04.2016 02:03 6,3 C 78 % 1020,6 hPa 0,0 l/m 22,0 km/h (4 Bft) NO 49 0 min 0,000 mm 0,0 UV-I 0 W/m 2,8 C -2,2 C 29,0 km/h (5 Bft) 100,00 %
02.04.2016 02:04 6,3 C 77 % 1020,6 hPa 0,0 l/m 21,4 km/h (4 Bft) O-NO 59 0 min 0,000 mm 0,0 UV-I 0 W/m 2,6 C -2,0 C 25,7 km/h (4 Bft) 96,30 %
02.04.2016 02:05 6,3 C 78 % 1020,7 hPa 0,0 l/m 20,3 km/h (4 Bft) NO 55 0 min 0,000 mm 0,0 UV-I 0 W/m 2,8 C -1,6 C 25,7 km/h (4 Bft) 98,38 %
02.04.2016 02:06 6,3 C 78 % 1020,7 hPa 0,0 l/m 19,8 km/h (3 Bft) NO 44 0 min 0,000 mm 0,0 UV-I 0 W/m 2,8 C -1,4 C 30,6 km/h (5 Bft) 100,00 %
02.04.2016 02:07 6,3 C 78 % 1020,7 hPa 0,0 l/m 22,9 km/h (4 Bft) O-NO 59 0 min 0,000 mm 0,0 UV-I 0 W/m 2,8 C -2,5 C 32,2 km/h (5 Bft) 100,00 %
02.04.2016 02:08 6,3 C 77 % 1020,7 hPa 0,0 l/m 21,0 km/h (4 Bft) O-NO 62 0 min 0,000 mm 0,0 UV-I 0 W/m 2,6 C -1,9 C 29,0 km/h (5 Bft) 100,00 %
02.04.2016 02:09 6,3 C 78 % 1020,7 hPa 0,0 l/m 18,0 km/h (3 Bft) O-NO 71 0 min 0,000 mm 0,0 UV-I 0 W/m 2,8 C -0,7 C 24,1 km/h (4 Bft) 100,00 %
02.04.2016 02:10 6,3 C 78 % 1020,7 hPa 0,0 l/m 19,6 km/h (3 Bft) O-NO 58 0 min 0,000 mm 0,0 UV-I 0 W/m 2,8 C -1,3 C 24,1 km/h (4 Bft) 100,00 %
02.04.2016 02:11 6,3 C 78 % 1020,7 hPa 0,0 l/m 19,1 km/h (3 Bft) NO 56 0 min 0,000 mm 0,0 UV-I 0 W/m 2,8 C -1,1 C 29,0 km/h (5 Bft) 100,00 %
02.04.2016 02:12 6,3 C 77 % 1020,7 hPa 0,0 l/m 23,7 km/h (4 Bft) NO 56 0 min 0,000 mm 0,0 UV-I 0 W/m 2,6 C -2,8 C 32,2 km/h (5 Bft) 100,00 %
02.04.2016 02:13 6,3 C 77 % 1020,7 hPa 0,0 l/m 26,5 km/h (4 Bft) O 86 0 min 0,000 mm 0,0 UV-I 0 W/m 2,6 C -3,6 C 37,0 km/h (5 Bft) 100,00 %
02.04.2016 02:14 6,3 C 77 % 1020,7 hPa 0,0 l/m 17,9 km/h (3 Bft) N-NO 33 0 min 0,000 mm 0,0 UV-I 0 W/m 2,6 C -0,7 C 22,5 km/h (4 Bft) 100,00 %
02.04.2016 02:15 6,3 C 77 % 1020,7 hPa 0,0 l/m 19,1 km/h (3 Bft) NO 50 0 min 0,000 mm 0,0 UV-I 0 W/m 2,6 C -1,1 C 27,4 km/h (4 Bft) 100,00 %
02.04.2016 02:16 6,3 C 76 % 1020,7 hPa 0,0 l/m 28,2 km/h (4 Bft) NO 53 0 min 0,000 mm 0,0 UV-I 0 W/m 2,4 C -4,1 C 35,4 km/h (5 Bft) 96,67 %
02.04.2016 02:17 6,3 C 76 % 1020,8 hPa 0,0 l/m 24,3 km/h (4 Bft) O 88 0 min 0,000 mm 0,0 UV-I 0 W/m 2,4 C -3,0 C 29,0 km/h (5 Bft) 96,30 %
02.04.2016 02:18 6,3 C 76 % 1020,8 hPa 0,0 l/m 19,4 km/h (3 Bft) NO 53 0 min 0,000 mm 0,0 UV-I 0 W/m 2,4 C -1,3 C 25,7 km/h (4 Bft) 95,65 %
02.04.2016 02:19 6,3 C 77 % 1020,8 hPa 0,0 l/m 18,2 km/h (3 Bft) NO 46 0 min 0,000 mm 0,0 UV-I 0 W/m 2,6 C -0,8 C 22,5 km/h (4 Bft) 100,00 %
02.04.2016 02:20 6,3 C 76 % 1020,8 hPa 0,0 l/m 19,9 km/h (4 Bft) O-NO 65 0 min 0,000 mm 0,0 UV-I 0 W/m 2,4 C -1,5 C 24,1 km/h (4 Bft) 95,65 %
02.04.2016 02:21 6,3 C 76 % 1020,8 hPa 0,0 l/m 20,7 km/h (4 Bft) NO 45 0 min 0,000 mm 0,0 UV-I 0 W/m 2,4 C -1,8 C 32,2 km/h (5 Bft) 100,00 %
02.04.2016 02:22 6,3 C 75 % 1020,8 hPa 0,0 l/m 25,1 km/h (4 Bft) O 94 0 min 0,000 mm 0,0 UV-I 0 W/m 2,2 C -3,2 C 30,6 km/h (5 Bft) 100,00 %
02.04.2016 02:23 6,3 C 75 % 1020,7 hPa 0,0 l/m 17,6 km/h (3 Bft) O-NO 68 0 min 0,000 mm 0,0 UV-I 0 W/m 2,2 C -0,5 C 20,9 km/h (4 Bft) 100,00 %
02.04.2016 02:24 6,3 C 76 % 1020,7 hPa 0,0 l/m 21,7 km/h (4 Bft) O-NO 65 0 min 0,000 mm 0,0 UV-I 0 W/m 2,4 C -2,1 C 29,0 km/h (5 Bft) 100,00 %
02.04.2016 02:25 6,3 C 75 % 1020,6 hPa 0,0 l/m 18,9 km/h (3 Bft) O-NO 69 0 min 0,000 mm 0,0 UV-I 0 W/m 2,2 C -1,1 C 24,1 km/h (4 Bft) 100,00 %
02.04.2016 02:26 6,3 C 76 % 1020,6 hPa 0,0 l/m 15,8 km/h (3 Bft) O-NO 74 0 min 0,000 mm 0,0 UV-I 0 W/m 2,4 C 0,3 C 19,3 km/h (3 Bft) 100,00 %
02.04.2016 02:27 6,3 C 76 % 1020,6 hPa 0,0 l/m 22,2 km/h (4 Bft) NO 53 0 min 0,000 mm 0,0 UV-I 0 W/m 2,4 C -2,3 C 29,0 km/h (5 Bft) 100,00 %
02.04.2016 02:28 6,3 C 75 % 1020,6 hPa 0,0 l/m 25,3 km/h (4 Bft) NO 48 0 min 0,000 mm 0,0 UV-I 0 W/m 2,2 C -3,3 C 33,8 km/h (5 Bft) 100,00 %
02.04.2016 02:29 6,3 C 75 % 1020,6 hPa 0,0 l/m 24,6 km/h (4 Bft) O-NO 69 0 min 0,000 mm 0,0 UV-I 0 W/m 2,2 C -3,1 C 32,2 km/h (5 Bft) 100,00 %
02.04.2016 02:30 6,3 C 75 % 1020,6 hPa 0,0 l/m 22,9 km/h (4 Bft) NO 44 0 min 0,000 mm 0,0 UV-I 0 W/m 2,2 C -2,5 C 29,0 km/h (5 Bft) 100,00 %
02.04.2016 02:31 6,3 C 75 % 1020,6 hPa 0,0 l/m 22,0 km/h (4 Bft) O-NO 61 0 min 0,000 mm 0,0 UV-I 0 W/m 2,2 C -2,2 C 27,4 km/h (4 Bft) 96,15 %
02.04.2016 02:32 6,3 C 75 % 1020,5 hPa 0,0 l/m 21,6 km/h (4 Bft) NO 46 0 min 0,000 mm 0,0 UV-I 0 W/m 2,2 C -2,1 C 25,7 km/h (4 Bft) 100,00 %
02.04.2016 02:33 6,3 C 75 % 1020,5 hPa 0,0 l/m 23,2 km/h (4 Bft) O-NO 67 0 min 0,000 mm 0,0 UV-I 0 W/m 2,2 C -2,6 C 30,6 km/h (5 Bft) 100,00 %
02.04.2016 02:34 6,3 C 75 % 1020,5 hPa 0,0 l/m 19,5 km/h (3 Bft) O-NO 64 0 min 0,000 mm 0,0 UV-I 0 W/m 2,2 C -1,3 C 25,7 km/h (4 Bft) 100,00 %
02.04.2016 02:35 6,3 C 74 % 1020,4 hPa 0,0 l/m 22,1 km/h (4 Bft) NO 51 0 min 0,000 mm 0,0 UV-I 0 W/m 2,0 C -2,2 C 30,6 km/h (5 Bft) 100,00 %
02.04.2016 02:36 6,3 C 74 % 1020,3 hPa 0,0 l/m 23,5 km/h (4 Bft) O 88 0 min 0,000 mm 0,0 UV-I 0 W/m 2,0 C -2,7 C 30,6 km/h (5 Bft) 100,00 %
02.04.2016 02:37 6,3 C 74 % 1020,5 hPa 0,0 l/m 21,0 km/h (4 Bft) O-NO 58 0 min 0,000 mm 0,0 UV-I 0 W/m 2,0 C -1,9 C 27,4 km/h (4 Bft) 100,00 %
02.04.2016 02:38 6,3 C 75 % 1020,4 hPa 0,0 l/m 17,9 km/h (3 Bft) O-NO 67 0 min 0,000 mm 0,0 UV-I 0 W/m 2,2 C -0,7 C 22,5 km/h (4 Bft) 100,00 %
02.04.2016 02:39 6,2 C 75 % 1020,5 hPa 0,0 l/m 20,3 km/h (4 Bft) O-NO 59 0 min 0,000 mm 0,0 UV-I 0 W/m 2,1 C -1,7 C 25,7 km/h (4 Bft) 100,00 %
02.04.2016 02:40 6,2 C 74 % 1020,5 hPa 0,0 l/m 22,0 km/h (4 Bft) O-NO 62 0 min 0,000 mm 0,0 UV-I 0 W/m 1,9 C -2,3 C 29,0 km/h (5 Bft) 100,00 %
02.04.2016 02:41 6,2 C 74 % 1020,5 hPa 0,0 l/m 22,0 km/h (4 Bft) O 80 0 min 0,000 mm 0,0 UV-I 0 W/m 1,9 C -2,3 C 29,0 km/h (5 Bft) 100,00 %
02.04.2016 02:42 6,2 C 74 % 1020,5 hPa 0,0 l/m 20,5 km/h (4 Bft) O-NO 78 0 min 0,000 mm 0,0 UV-I 0 W/m 1,9 C -1,8 C 25,7 km/h (4 Bft) 100,00 %
02.04.2016 02:43 6,2 C 73 % 1020,5 hPa 0,0 l/m 26,1 km/h (4 Bft) NO 55 0 min 0,000 mm 0,0 UV-I 0 W/m 1,7 C -3,6 C 33,8 km/h (5 Bft) 100,00 %
02.04.2016 02:44 6,2 C 74 % 1020,5 hPa 0,0 l/m 19,8 km/h (3 Bft) O 80 0 min 0,000 mm 0,0 UV-I 0 W/m 1,9 C -1,5 C 25,7 km/h (4 Bft) 100,00 %
02.04.2016 02:45 6,2 C 73 % 1020,5 hPa 0,0 l/m 24,1 km/h (4 Bft) O-NO 59 0 min 0,000 mm 0,0 UV-I 0 W/m 1,7 C -3,0 C 32,2 km/h (5 Bft) 100,00 %
02.04.2016 02:46 6,2 C 73 % 1020,5 hPa 0,0 l/m 23,2 km/h (4 Bft) NO 50 0 min 0,000 mm 0,0 UV-I 0 W/m 1,7 C -2,7 C 30,6 km/h (5 Bft) 100,00 %
02.04.2016 02:47 6,2 C 73 % 1020,5 hPa 0,0 l/m 25,1 km/h (4 Bft) O-NO 59 0 min 0,000 mm 0,0 UV-I 0 W/m 1,7 C -3,3 C 30,6 km/h (5 Bft) 100,00 %
02.04.2016 02:48 6,2 C 73 % 1020,5 hPa 0,0 l/m 18,8 km/h (3 Bft) O-NO 71 0 min 0,000 mm 0,0 UV-I 0 W/m 1,7 C -1,2 C 22,5 km/h (4 Bft) 100,00 %
02.04.2016 02:49 6,2 C 73 % 1020,6 hPa 0,0 l/m 23,6 km/h (4 Bft) O 80 0 min 0,000 mm 0,0 UV-I 0 W/m 1,7 C -2,9 C 29,0 km/h (5 Bft) 95,65 %
02.04.2016 02:50 6,2 C 73 % 1020,6 hPa 0,0 l/m 17,0 km/h (3 Bft) O 80 0 min 0,000 mm 0,0 UV-I 0 W/m 1,7 C -0,4 C 20,9 km/h (4 Bft) 95,83 %
02.04.2016 02:51 6,2 C 73 % 1020,6 hPa 0,0 l/m 15,0 km/h (3 Bft) O-NO 71 0 min 0,000 mm 0,0 UV-I 0 W/m 1,7 C 0,5 C 20,9 km/h (4 Bft) 100,00 %
02.04.2016 02:52 6,2 C 73 % 1020,6 hPa 0,0 l/m 16,8 km/h (3 Bft) O-NO 58 0 min 0,000 mm 0,0 UV-I 0 W/m 1,7 C -0,3 C 24,1 km/h (4 Bft) 100,00 %
02.04.2016 02:53 6,1 C 73 % 1020,5 hPa 0,0 l/m 17,7 km/h (3 Bft) O 88 0 min 0,000 mm 0,0 UV-I 0 W/m 1,6 C -0,8 C 22,5 km/h (4 Bft) 100,00 %
02.04.2016 02:54 6,1 C 73 % 1020,5 hPa 0,0 l/m 15,8 km/h (3 Bft) N-NO 32 0 min 0,000 mm 0,0 UV-I 0 W/m 1,6 C 0,0 C 20,9 km/h (4 Bft) 100,00 %
02.04.2016 02:55 6,1 C 73 % 1020,5 hPa 0,0 l/m 18,3 km/h (3 Bft) O-NO 65 0 min 0,000 mm 0,0 UV-I 0 W/m 1,6 C -1,1 C 25,7 km/h (4 Bft) 100,00 %
02.04.2016 02:56 6,1 C 73 % 1020,5 hPa 0,0 l/m 18,6 km/h (3 Bft) O 89 0 min 0,000 mm 0,0 UV-I 0 W/m 1,6 C -1,2 C 22,5 km/h (4 Bft) 96,15 %
02.04.2016 02:57 6,1 C 73 % 1020,5 hPa 0,0 l/m 21,0 km/h (4 Bft) O-NO 78 0 min 0,000 mm 0,0 UV-I 0 W/m 1,6 C -2,1 C 25,7 km/h (4 Bft) 91,67 %
02.04.2016 02:58 6,1 C 73 % 1020,5 hPa 0,0 l/m 17,4 km/h (3 Bft) O-NO 57 0 min 0,000 mm 0,0 UV-I 0 W/m 1,6 C -0,7 C 22,5 km/h (4 Bft) 100,00 %
02.04.2016 02:59 6,1 C 73 % 1020,5 hPa 0,0 l/m 22,7 km/h (4 Bft) O-NO 59 0 min 0,000 mm 0,0 UV-I 0 W/m 1,6 C -2,7 C 29,0 km/h (5 Bft) 96,30 %
02.04.2016 03:00 6,1 C 73 % 1020,5 hPa 0,0 l/m 26,2 km/h (4 Bft) O-NO 57 0 min 0,000 mm 0,0 UV-I 0 W/m 1,6 C -3,8 C 33,8 km/h (5 Bft) 96,15 %
02.04.2016 03:01 6,1 C 73 % 1020,5 hPa 0,0 l/m 21,6 km/h (4 Bft) O-NO 58 0 min 0,050 mm 0,0 UV-I 0 W/m 1,6 C -2,3 C 24,1 km/h (4 Bft) 95,83 %
02.04.2016 03:02 6,1 C 73 % 1020,4 hPa 0,0 l/m 21,9 km/h (4 Bft) NO 42 0 min 0,000 mm 0,0 UV-I 0 W/m 1,6 C -2,4 C 27,4 km/h (4 Bft) 95,65 %
02.04.2016 03:03 6,1 C 73 % 1020,4 hPa 0,0 l/m 19,0 km/h (3 Bft) O-NO 65 0 min 0,000 mm 0,0 UV-I 0 W/m 1,6 C -1,4 C 25,7 km/h (4 Bft) 100,00 %
02.04.2016 03:04 6,1 C 73 % 1020,4 hPa 0,0 l/m 19,0 km/h (3 Bft) O-NO 69 0 min 0,000 mm 0,0 UV-I 0 W/m 1,6 C -1,4 C 24,1 km/h (4 Bft) 95,65 %
02.04.2016 03:05 6,1 C 73 % 1020,4 hPa 0,0 l/m 19,9 km/h (4 Bft) O 80 0 min 0,000 mm 0,0 UV-I 0 W/m 1,6 C -1,7 C 25,7 km/h (4 Bft) 100,00 %
02.04.2016 03:06 6,1 C 73 % 1020,3 hPa 0,0 l/m 16,4 km/h (3 Bft) O-NO 64 0 min 0,000 mm 0,0 UV-I 0 W/m 1,6 C -0,3 C 20,9 km/h (4 Bft) 96,55 %
02.04.2016 03:07 6,0 C 73 % 1020,3 hPa 0,0 l/m 18,2 km/h (3 Bft) NO 49 0 min 0,000 mm 0,0 UV-I 0 W/m 1,5 C -1,2 C 22,5 km/h (4 Bft) 96,30 %
02.04.2016 03:08 6,0 C 73 % 1020,3 hPa 0,0 l/m 20,9 km/h (4 Bft) O-NO 67 0 min 0,000 mm 0,0 UV-I 0 W/m 1,5 C -2,2 C 27,4 km/h (4 Bft) 100,00 %
02.04.2016 03:09 6,0 C 73 % 1020,3 hPa 0,0 l/m 21,2 km/h (4 Bft) NO 53 0 min 0,000 mm 0,0 UV-I 0 W/m 1,5 C -2,3 C 25,7 km/h (4 Bft) 96,15 %
02.04.2016 03:10 5,9 C 74 % 1020,3 hPa 0,0 l/m 18,3 km/h (3 Bft) NO 40 0 min 0,000 mm 0,0 UV-I 0 W/m 1,6 C -1,3 C 24,1 km/h (4 Bft) 100,00 %
02.04.2016 03:11 5,9 C 74 % 1020,2 hPa 0,0 l/m 19,9 km/h (4 Bft) NO 42 0 min 0,000 mm 0,0 UV-I 0 W/m 1,6 C -2,0 C 25,7 km/h (4 Bft) 86,67 %
02.04.2016 03:12 5,9 C 74 % 1020,2 hPa 0,0 l/m 20,7 km/h (4 Bft) O-NO 71 0 min 0,000 mm 0,0 UV-I 0 W/m 1,6 C -2,3 C 29,0 km/h (5 Bft) 100,00 %
02.04.2016 03:13 5,9 C 74 % 1020,2 hPa 0,0 l/m 17,0 km/h (3 Bft) NO 35 0 min 0,000 mm 0,0 UV-I 0 W/m 1,6 C -0,8 C 24,1 km/h (4 Bft) 96,55 %
02.04.2016 03:14 5,9 C 74 % 1020,2 hPa 0,0 l/m 19,3 km/h (3 Bft) NO 52 0 min 0,000 mm 0,0 UV-I 0 W/m 1,6 C -1,7 C 25,7 km/h (4 Bft) 92,59 %
02.04.2016 03:15 5,9 C 74 % 1020,2 hPa 0,0 l/m 15,7 km/h (3 Bft) O-NO 63 0 min 0,000 mm 0,0 UV-I 0 W/m 1,6 C -0,2 C 24,1 km/h (4 Bft) 100,00 %
02.04.2016 03:16 5,9 C 74 % 1020,3 hPa 0,0 l/m 16,6 km/h (3 Bft) NO 56 0 min 0,000 mm 0,0 UV-I 0 W/m 1,6 C -0,6 C 25,7 km/h (4 Bft) 95,83 %
02.04.2016 03:17 5,9 C 75 % 1020,4 hPa 0,0 l/m 15,4 km/h (3 Bft) NO 42 0 min 0,000 mm 0,0 UV-I 0 W/m 1,8 C -0,0 C 20,9 km/h (4 Bft) 100,00 %
02.04.2016 03:18 5,8 C 75 % 1020,4 hPa 0,0 l/m 17,1 km/h (3 Bft) N 355 0 min 0,000 mm 0,0 UV-I 0 W/m 1,7 C -0,9 C 27,4 km/h (4 Bft) 100,00 %
02.04.2016 03:19 5,8 C 75 % 1020,4 hPa 0,0 l/m 15,4 km/h (3 Bft) O-NO 62 0 min 0,000 mm 0,0 UV-I 0 W/m 1,7 C -0,2 C 19,3 km/h (3 Bft) 96,55 %
02.04.2016 03:20 5,8 C 75 % 1020,4 hPa 0,0 l/m 17,4 km/h (3 Bft) O-NO 63 0 min 0,000 mm 0,0 UV-I 0 W/m 1,7 C -1,1 C 22,5 km/h (4 Bft) 93,33 %
02.04.2016 03:21 5,8 C 75 % 1020,4 hPa 0,0 l/m 18,4 km/h (3 Bft) NO 47 0 min 0,000 mm 0,0 UV-I 0 W/m 1,7 C -1,5 C 24,1 km/h (4 Bft) 100,00 %
02.04.2016 03:22 5,8 C 76 % 1020,4 hPa 0,0 l/m 23,3 km/h (4 Bft) O-NO 67 0 min 0,000 mm 0,0 UV-I 0 W/m 1,9 C -3,3 C 32,2 km/h (5 Bft) 96,30 %
02.04.2016 03:23 5,8 C 76 % 1020,4 hPa 0,0 l/m 26,4 km/h (4 Bft) O-NO 58 0 min 0,000 mm 0,0 UV-I 0 W/m 1,9 C -4,3 C 32,2 km/h (5 Bft) 100,00 %
02.04.2016 03:24 5,8 C 76 % 1020,4 hPa 0,0 l/m 23,5 km/h (4 Bft) O-NO 66 0 min 0,000 mm 0,0 UV-I 0 W/m 1,9 C -3,4 C 29,0 km/h (5 Bft) 91,67 %
02.04.2016 03:25 5,8 C 76 % 1020,4 hPa 0,0 l/m 22,8 km/h (4 Bft) O-NO 71 0 min 0,000 mm 0,0 UV-I 0 W/m 1,9 C -3,1 C 29,0 km/h (5 Bft) 100,00 %
02.04.2016 03:26 5,8 C 76 % 1020,4 hPa 0,0 l/m 26,7 km/h (4 Bft) O-NO 76 0 min 0,000 mm 0,0 UV-I 0 W/m 1,9 C -4,4 C 35,4 km/h (5 Bft) 95,65 %
02.04.2016 03:27 5,8 C 77 % 1020,4 hPa 0,0 l/m 25,4 km/h (4 Bft) NO 50 0 min 0,000 mm 0,0 UV-I 0 W/m 2,1 C -4,0 C 33,8 km/h (5 Bft) 96,55 %
02.04.2016 03:28 5,8 C 77 % 1020,4 hPa 0,0 l/m 20,2 km/h (4 Bft) NO 53 0 min 0,000 mm 0,0 UV-I 0 W/m 2,1 C -2,2 C 25,7 km/h (4 Bft) 100,00 %
02.04.2016 03:29 5,8 C 76 % 1020,5 hPa 0,0 l/m 18,7 km/h (3 Bft) NO 52 0 min 0,000 mm 0,0 UV-I 0 W/m 1,9 C -1,6 C 22,5 km/h (4 Bft) 91,67 %
02.04.2016 03:30 5,8 C 77 % 1020,4 hPa 0,0 l/m 18,6 km/h (3 Bft) O-NO 68 0 min 0,000 mm 0,0 UV-I 0 W/m 2,1 C -1,6 C 24,1 km/h (4 Bft) 100,00 %
02.04.2016 03:31 5,8 C 77 % 1020,4 hPa 0,0 l/m 18,2 km/h (3 Bft) NO 56 0 min 0,000 mm 0,0 UV-I 0 W/m 2,1 C -1,4 C 24,1 km/h (4 Bft) 100,00 %
02.04.2016 03:32 5,8 C 77 % 1020,4 hPa 0,0 l/m 21,7 km/h (4 Bft) O-NO 69 0 min 0,000 mm 0,0 UV-I 0 W/m 2,1 C -2,8 C 27,4 km/h (4 Bft) 100,00 %
02.04.2016 03:33 5,8 C 77 % 1020,4 hPa 0,0 l/m 23,0 km/h (4 Bft) O-NO 70 0 min 0,000 mm 0,0 UV-I 0 W/m 2,1 C -3,2 C 27,4 km/h (4 Bft) 96,30 %
02.04.2016 03:34 5,8 C 77 % 1020,4 hPa 0,0 l/m 19,2 km/h (3 Bft) NO 55 0 min 0,000 mm 0,0 UV-I 0 W/m 2,1 C -1,8 C 27,4 km/h (4 Bft) 92,86 %
02.04.2016 03:35 5,8 C 77 % 1020,4 hPa 0,0 l/m 21,2 km/h (4 Bft) O-NO 67 0 min 0,000 mm 0,0 UV-I 0 W/m 2,1 C -2,6 C 29,0 km/h (5 Bft) 100,00 %
02.04.2016 03:36 5,8 C 77 % 1020,4 hPa 0,0 l/m 19,8 km/h (3 Bft) O 84 0 min 0,000 mm 0,0 UV-I 0 W/m 2,1 C -2,1 C 24,1 km/h (4 Bft) 96,15 %
02.04.2016 03:37 5,8 C 77 % 1020,4 hPa 0,0 l/m 18,7 km/h (3 Bft) O 93 0 min 0,000 mm 0,0 UV-I 0 W/m 2,1 C -1,6 C 25,7 km/h (4 Bft) 100,00 %
02.04.2016 03:38 5,8 C 77 % 1020,4 hPa 0,0 l/m 20,2 km/h (4 Bft) NO 50 0 min 0,000 mm 0,0 UV-I 0 W/m 2,1 C -2,2 C 29,0 km/h (5 Bft) 100,00 %
02.04.2016 03:39 5,7 C 77 % 1020,4 hPa 0,0 l/m 19,7 km/h (3 Bft) NO 47 0 min 0,000 mm 0,0 UV-I 0 W/m 2,0 C -2,2 C 27,4 km/h (4 Bft) 100,00 %
02.04.2016 03:40 5,8 C 77 % 1020,3 hPa 0,0 l/m 24,5 km/h (4 Bft) O-NO 69 0 min 0,000 mm 0,0 UV-I 0 W/m 2,1 C -3,7 C 30,6 km/h (5 Bft) 92,31 %
02.04.2016 03:41 5,7 C 77 % 1020,3 hPa 0,0 l/m 25,3 km/h (4 Bft) O 97 0 min 0,000 mm 0,0 UV-I 0 W/m 2,0 C -4,1 C 33,8 km/h (5 Bft) 96,30 %
02.04.2016 03:42 5,7 C 77 % 1020,3 hPa 0,0 l/m 21,0 km/h (4 Bft) O-NO 57 0 min 0,000 mm 0,0 UV-I 0 W/m 2,0 C -2,6 C 27,4 km/h (4 Bft) 100,00 %
02.04.2016 03:43 5,7 C 77 % 1020,3 hPa 0,0 l/m 19,4 km/h (3 Bft) O-NO 60 0 min 0,000 mm 0,0 UV-I 0 W/m 2,0 C -2,0 C 25,7 km/h (4 Bft) 100,00 %
02.04.2016 03:44 5,7 C 77 % 1020,3 hPa 0,0 l/m 23,7 km/h (4 Bft) O-NO 57 0 min 0,000 mm 0,0 UV-I 0 W/m 2,0 C -3,6 C 30,6 km/h (5 Bft) 100,00 %
02.04.2016 03:45 5,7 C 77 % 1020,4 hPa 0,0 l/m 20,5 km/h (4 Bft) NO 50 0 min 0,000 mm 0,0 UV-I 0 W/m 2,0 C -2,5 C 32,2 km/h (5 Bft) 100,00 %
02.04.2016 03:46 5,7 C 77 % 1020,3 hPa 0,0 l/m 22,0 km/h (4 Bft) O-NO 60 0 min 0,000 mm 0,0 UV-I 0 W/m 2,0 C -3,0 C 27,4 km/h (4 Bft) 100,00 %
02.04.2016 03:47 5,7 C 77 % 1020,4 hPa 0,0 l/m 17,5 km/h (3 Bft) NO 43 0 min 0,000 mm 0,0 UV-I 0 W/m 2,0 C -1,2 C 22,5 km/h (4 Bft) 100,00 %
02.04.2016 03:48 5,7 C 78 % 1020,4 hPa 0,0 l/m 15,7 km/h (3 Bft) NO 55 0 min 0,000 mm 0,0 UV-I 0 W/m 2,2 C -0,4 C 22,5 km/h (4 Bft) 100,00 %
02.04.2016 03:49 5,7 C 77 % 1020,4 hPa 0,0 l/m 25,2 km/h (4 Bft) O-NO 58 0 min 0,000 mm 0,0 UV-I 0 W/m 2,0 C -4,1 C 30,6 km/h (5 Bft) 100,00 %
02.04.2016 03:50 5,7 C 77 % 1020,4 hPa 0,0 l/m 20,0 km/h (4 Bft) O-NO 59 0 min 0,000 mm 0,0 UV-I 0 W/m 2,0 C -2,3 C 27,4 km/h (4 Bft) 100,00 %
02.04.2016 03:51 5,7 C 77 % 1020,4 hPa 0,0 l/m 28,0 km/h (4 Bft) O-NO 59 0 min 0,000 mm 0,0 UV-I 0 W/m 2,0 C -4,9 C 37,0 km/h (5 Bft) 100,00 %
02.04.2016 03:52 5,7 C 77 % 1020,4 hPa 0,0 l/m 25,7 km/h (4 Bft) O-NO 76 0 min 0,000 mm 0,0 UV-I 0 W/m 2,0 C -4,2 C 30,6 km/h (5 Bft) 100,00 %
02.04.2016 03:53 5,7 C 78 % 1020,3 hPa 0,0 l/m 18,1 km/h (3 Bft) O-NO 63 0 min 0,000 mm 0,0 UV-I 0 W/m 2,2 C -1,5 C 27,4 km/h (4 Bft) 100,00 %
02.04.2016 03:54 5,7 C 77 % 1020,4 hPa 0,0 l/m 23,0 km/h (4 Bft) O-NO 65 0 min 0,000 mm 0,0 UV-I 0 W/m 2,0 C -3,3 C 27,4 km/h (4 Bft) 100,00 %
02.04.2016 03:55 5,7 C 77 % 1020,3 hPa 0,0 l/m 22,4 km/h (4 Bft) NO 45 0 min 0,000 mm 0,0 UV-I 0 W/m 2,0 C -3,1 C 30,6 km/h (5 Bft) 100,00 %
02.04.2016 03:56 5,7 C 77 % 1020,3 hPa 0,0 l/m 22,6 km/h (4 Bft) O-NO 67 0 min 0,000 mm 0,0 UV-I 0 W/m 2,0 C -3,2 C 25,7 km/h (4 Bft) 100,00 %
02.04.2016 03:57 5,7 C 78 % 1020,3 hPa 0,0 l/m 22,7 km/h (4 Bft) O-NO 66 0 min 0,000 mm 0,0 UV-I 0 W/m 2,2 C -3,2 C 30,6 km/h (5 Bft) 100,00 %
02.04.2016 03:58 5,7 C 78 % 1020,3 hPa 0,0 l/m 20,0 km/h (4 Bft) NO 39 0 min 0,000 mm 0,0 UV-I 0 W/m 2,2 C -2,3 C 27,4 km/h (4 Bft) 100,00 %
02.04.2016 03:59 5,7 C 78 % 1020,3 hPa 0,0 l/m 22,6 km/h (4 Bft) NO 55 0 min 0,000 mm 0,0 UV-I 0 W/m 2,2 C -3,2 C 27,4 km/h (4 Bft) 100,00 %
02.04.2016 04:00 5,7 C 78 % 1020,3 hPa 0,0 l/m 19,8 km/h (3 Bft) O-NO 66 0 min 0,051 mm 0,0 UV-I 0 W/m 2,2 C -2,2 C 25,7 km/h (4 Bft) 95,83 %
02.04.2016 04:01 5,7 C 78 % 1020,3 hPa 0,0 l/m 20,8 km/h (4 Bft) O 82 0 min 0,000 mm 0,0 UV-I 0 W/m 2,2 C -2,6 C 33,8 km/h (5 Bft) 100,00 %
02.04.2016 04:02 5,6 C 78 % 1020,2 hPa 0,0 l/m 22,5 km/h (4 Bft) NO 51 0 min 0,000 mm 0,0 UV-I 0 W/m 2,1 C -3,3 C 30,6 km/h (5 Bft) 100,00 %
02.04.2016 04:03 5,6 C 78 % 1020,2 hPa 0,0 l/m 22,5 km/h (4 Bft) NO 45 0 min 0,000 mm 0,0 UV-I 0 W/m 2,1 C -3,3 C 29,0 km/h (5 Bft) 100,00 %
02.04.2016 04:04 5,6 C 78 % 1020,2 hPa 0,0 l/m 27,6 km/h (4 Bft) NO 46 0 min 0,000 mm 0,0 UV-I 0 W/m 2,1 C -4,9 C 33,8 km/h (5 Bft) 100,00 %
02.04.2016 04:05 5,6 C 78 % 1020,2 hPa 0,0 l/m 22,3 km/h (4 Bft) O-NO 75 0 min 0,000 mm 0,0 UV-I 0 W/m 2,1 C -3,2 C 29,0 km/h (5 Bft) 100,00 %
02.04.2016 04:06 5,6 C 78 % 1020,2 hPa 0,0 l/m 24,3 km/h (4 Bft) NO 40 0 min 0,000 mm 0,0 UV-I 0 W/m 2,1 C -3,9 C 29,0 km/h (5 Bft) 100,00 %
02.04.2016 04:07 5,6 C 78 % 1020,2 hPa 0,0 l/m 23,0 km/h (4 Bft) NO 34 0 min 0,000 mm 0,0 UV-I 0 W/m 2,1 C -3,5 C 30,6 km/h (5 Bft) 100,00 %
02.04.2016 04:08 5,6 C 78 % 1020,3 hPa 0,0 l/m 27,8 km/h (4 Bft) NO 47 0 min 0,000 mm 0,0 UV-I 0 W/m 2,1 C -4,9 C 35,4 km/h (5 Bft) 96,15 %
02.04.2016 04:09 5,6 C 78 % 1020,2 hPa 0,0 l/m 21,0 km/h (4 Bft) O-NO 61 0 min 0,000 mm 0,0 UV-I 0 W/m 2,1 C -2,8 C 27,4 km/h (4 Bft) 100,00 %
02.04.2016 04:10 5,6 C 78 % 1020,3 hPa 0,0 l/m 26,7 km/h (4 Bft) O-NO 57 0 min 0,000 mm 0,0 UV-I 0 W/m 2,1 C -4,6 C 32,2 km/h (5 Bft) 100,00 %
02.04.2016 04:11 5,6 C 78 % 1020,3 hPa 0,0 l/m 23,5 km/h (4 Bft) O-NO 57 0 min 0,000 mm 0,0 UV-I 0 W/m 2,1 C -3,6 C 30,6 km/h (5 Bft) 100,00 %
02.04.2016 04:12 5,6 C 78 % 1020,2 hPa 0,0 l/m 21,5 km/h (4 Bft) O-NO 67 0 min 0,000 mm 0,0 UV-I 0 W/m 2,1 C -3,0 C 27,4 km/h (4 Bft) 95,65 %
02.04.2016 04:13 5,6 C 78 % 1020,2 hPa 0,0 l/m 22,1 km/h (4 Bft) NO 51 0 min 0,000 mm 0,0 UV-I 0 W/m 2,1 C -3,2 C 30,6 km/h (5 Bft) 100,00 %
02.04.2016 04:14 5,6 C 78 % 1020,3 hPa 0,0 l/m 24,9 km/h (4 Bft) NO 36 0 min 0,000 mm 0,0 UV-I 0 W/m 2,1 C -4,1 C 30,6 km/h (5 Bft) 100,00 %
02.04.2016 04:15 5,6 C 78 % 1020,2 hPa 0,0 l/m 25,0 km/h (4 Bft) NO 44 0 min 0,000 mm 0,0 UV-I 0 W/m 2,1 C -4,1 C 32,2 km/h (5 Bft) 100,00 %
02.04.2016 04:16 5,6 C 78 % 1020,2 hPa 0,0 l/m 28,2 km/h (4 Bft) NO 55 0 min 0,000 mm 0,0 UV-I 0 W/m 2,1 C -5,1 C 38,6 km/h (5 Bft) 100,00 %
02.04.2016 04:17 5,6 C 78 % 1020,1 hPa 0,0 l/m 29,3 km/h (5 Bft) NO 55 0 min 0,000 mm 0,0 UV-I 0 W/m 2,1 C -5,4 C 40,2 km/h (6 Bft) 100,00 %
02.04.2016 04:18 5,6 C 78 % 1020,1 hPa 0,0 l/m 25,2 km/h (4 Bft) O-NO 66 0 min 0,000 mm 0,0 UV-I 0 W/m 2,1 C -4,2 C 32,2 km/h (5 Bft) 100,00 %
02.04.2016 04:19 5,6 C 78 % 1020,1 hPa 0,0 l/m 28,1 km/h (4 Bft) NO 56 0 min 0,000 mm 0,0 UV-I 0 W/m 2,1 C -5,0 C 35,4 km/h (5 Bft) 100,00 %
02.04.2016 04:20 5,6 C 78 % 1020,1 hPa 0,0 l/m 25,3 km/h (4 Bft) O-NO 70 0 min 0,000 mm 0,0 UV-I 0 W/m 2,1 C -4,2 C 32,2 km/h (5 Bft) 100,00 %
02.04.2016 04:21 5,6 C 78 % 1020,1 hPa 0,0 l/m 20,8 km/h (4 Bft) O 88 0 min 0,000 mm 0,0 UV-I 0 W/m 2,1 C -2,7 C 27,4 km/h (4 Bft) 100,00 %
02.04.2016 04:22 5,6 C 78 % 1020,1 hPa 0,0 l/m 21,8 km/h (4 Bft) O-NO 66 0 min 0,000 mm 0,0 UV-I 0 W/m 2,1 C -3,1 C 32,2 km/h (5 Bft) 100,00 %
02.04.2016 04:23 5,6 C 78 % 1020,1 hPa 0,0 l/m 28,9 km/h (5 Bft) O-NO 63 0 min 0,000 mm 0,0 UV-I 0 W/m 2,1 C -5,2 C 40,2 km/h (6 Bft) 88,46 %
02.04.2016 04:24 5,6 C 78 % 1020,1 hPa 0,0 l/m 30,0 km/h (5 Bft) O-NO 71 0 min 0,000 mm 0,0 UV-I 0 W/m 2,1 C -5,5 C 40,2 km/h (6 Bft) 96,30 %
02.04.2016 04:25 5,6 C 78 % 1020,1 hPa 0,0 l/m 28,0 km/h (4 Bft) O 84 0 min 0,000 mm 0,0 UV-I 0 W/m 2,1 C -5,0 C 35,4 km/h (5 Bft) 100,00 %
02.04.2016 04:26 5,6 C 78 % 1020,1 hPa 0,0 l/m 17,6 km/h (3 Bft) O-NO 67 0 min 0,000 mm 0,0 UV-I 0 W/m 2,1 C -1,4 C 25,7 km/h (4 Bft) 100,00 %
02.04.2016 04:27 5,6 C 78 % 1020,1 hPa 0,0 l/m 23,1 km/h (4 Bft) NO 50 0 min 0,000 mm 0,0 UV-I 0 W/m 2,1 C -3,5 C 32,2 km/h (5 Bft) 100,00 %
02.04.2016 04:28 5,6 C 78 % 1020,1 hPa 0,0 l/m 27,4 km/h (4 Bft) NO 53 0 min 0,000 mm 0,0 UV-I 0 W/m 2,1 C -4,8 C 32,2 km/h (5 Bft) 100,00 %
02.04.2016 04:29 5,6 C 78 % 1020,1 hPa 0,0 l/m 26,7 km/h (4 Bft) O-NO 65 0 min 0,000 mm 0,0 UV-I 0 W/m 2,1 C -4,6 C 33,8 km/h (5 Bft) 100,00 %
02.04.2016 04:30 5,6 C 78 % 1020,1 hPa 0,0 l/m 23,3 km/h (4 Bft) NO 52 0 min 0,000 mm 0,0 UV-I 0 W/m 2,1 C -3,6 C 32,2 km/h (5 Bft) 100,00 %
02.04.2016 04:31 5,5 C 78 % 1020,1 hPa 0,0 l/m 21,1 km/h (4 Bft) O-NO 74 0 min 0,000 mm 0,0 UV-I 0 W/m 2,0 C -2,9 C 29,0 km/h (5 Bft) 95,65 %
02.04.2016 04:32 5,5 C 78 % 1020,1 hPa 0,0 l/m 23,9 km/h (4 Bft) O-NO 61 0 min 0,000 mm 0,0 UV-I 0 W/m 2,0 C -3,9 C 30,6 km/h (5 Bft) 100,00 %
02.04.2016 04:33 5,5 C 79 % 1020,1 hPa 0,0 l/m 22,5 km/h (4 Bft) NO 43 0 min 0,000 mm 0,0 UV-I 0 W/m 2,2 C -3,4 C 29,0 km/h (5 Bft) 100,00 %
02.04.2016 04:34 5,4 C 79 % 1020,1 hPa 0,0 l/m 23,3 km/h (4 Bft) O-NO 72 0 min 0,000 mm 0,0 UV-I 0 W/m 2,1 C -3,9 C 27,4 km/h (4 Bft) 100,00 %
02.04.2016 04:35 5,4 C 79 % 1020,1 hPa 0,0 l/m 24,6 km/h (4 Bft) NO 45 0 min 0,000 mm 0,0 UV-I 0 W/m 2,1 C -4,3 C 32,2 km/h (5 Bft) 100,00 %
02.04.2016 04:36 5,4 C 78 % 1020,1 hPa 0,0 l/m 27,6 km/h (4 Bft) NO 51 0 min 0,000 mm 0,0 UV-I 0 W/m 1,9 C -5,2 C 32,2 km/h (5 Bft) 100,00 %
02.04.2016 04:37 5,4 C 78 % 1020,1 hPa 0,0 l/m 26,4 km/h (4 Bft) O-NO 64 0 min 0,000 mm 0,0 UV-I 0 W/m 1,9 C -4,8 C 33,8 km/h (5 Bft) 100,00 %
02.04.2016 04:38 5,4 C 78 % 1020,2 hPa 0,0 l/m 24,1 km/h (4 Bft) O-NO 61 0 min 0,000 mm 0,0 UV-I 0 W/m 1,9 C -4,1 C 33,8 km/h (5 Bft) 100,00 %
02.04.2016 04:39 5,4 C 79 % 1020,2 hPa 0,0 l/m 25,0 km/h (4 Bft) O-NO 63 0 min 0,000 mm 0,0 UV-I 0 W/m 2,1 C -4,4 C 32,2 km/h (5 Bft) 96,15 %
02.04.2016 04:40 5,4 C 79 % 1020,1 hPa 0,0 l/m 24,7 km/h (4 Bft) O 94 0 min 0,000 mm 0,0 UV-I 0 W/m 2,1 C -4,3 C 32,2 km/h (5 Bft) 100,00 %
02.04.2016 04:41 5,4 C 79 % 1020,1 hPa 0,0 l/m 23,8 km/h (4 Bft) O-NO 70 0 min 0,000 mm 0,0 UV-I 0 W/m 2,1 C -4,0 C 30,6 km/h (5 Bft) 100,00 %
02.04.2016 04:42 5,4 C 79 % 1020,1 hPa 0,0 l/m 21,2 km/h (4 Bft) O-NO 60 0 min 0,000 mm 0,0 UV-I 0 W/m 2,1 C -3,1 C 30,6 km/h (5 Bft) 100,00 %
02.04.2016 04:43 5,4 C 79 % 1020,1 hPa 0,0 l/m 24,8 km/h (4 Bft) O-NO 71 0 min 0,000 mm 0,0 UV-I 0 W/m 2,1 C -4,3 C 30,6 km/h (5 Bft) 100,00 %
02.04.2016 04:44 5,4 C 79 % 1020,1 hPa 0,0 l/m 21,5 km/h (4 Bft) O 80 0 min 0,000 mm 0,0 UV-I 0 W/m 2,1 C -3,2 C 27,4 km/h (4 Bft) 100,00 %
02.04.2016 04:45 5,4 C 79 % 1020,1 hPa 0,0 l/m 19,7 km/h (3 Bft) NO 40 0 min 0,000 mm 0,0 UV-I 0 W/m 2,1 C -2,5 C 27,4 km/h (4 Bft) 100,00 %
02.04.2016 04:46 5,3 C 79 % 1020,0 hPa 0,0 l/m 21,5 km/h (4 Bft) NO 49 0 min 0,000 mm 0,0 UV-I 0 W/m 2,0 C -3,4 C 35,4 km/h (5 Bft) 100,00 %
02.04.2016 04:47 5,3 C 79 % 1020,0 hPa 0,0 l/m 22,4 km/h (4 Bft) O-NO 57 0 min 0,000 mm 0,0 UV-I 0 W/m 2,0 C -3,7 C 27,4 km/h (4 Bft) 100,00 %
02.04.2016 04:48 5,3 C 79 % 1020,0 hPa 0,0 l/m 21,2 km/h (4 Bft) NO 47 0 min 0,000 mm 0,0 UV-I 0 W/m 2,0 C -3,2 C 30,6 km/h (5 Bft) 100,00 %
02.04.2016 04:49 5,3 C 79 % 1020,0 hPa 0,0 l/m 19,5 km/h (3 Bft) O-NO 73 0 min 0,000 mm 0,0 UV-I 0 W/m 2,0 C -2,6 C 24,1 km/h (4 Bft) 100,00 %
02.04.2016 04:50 5,3 C 79 % 1020,0 hPa 0,0 l/m 23,7 km/h (4 Bft) O-NO 59 0 min 0,000 mm 0,0 UV-I 0 W/m 2,0 C -4,1 C 30,6 km/h (5 Bft) 100,00 %
02.04.2016 04:51 5,3 C 79 % 1020,0 hPa 0,0 l/m 23,5 km/h (4 Bft) O-NO 64 0 min 0,000 mm 0,0 UV-I 0 W/m 2,0 C -4,1 C 27,4 km/h (4 Bft) 100,00 %
02.04.2016 04:52 5,3 C 79 % 1020,0 hPa 0,0 l/m 21,2 km/h (4 Bft) O-NO 66 0 min 0,000 mm 0,0 UV-I 0 W/m 2,0 C -3,2 C 25,7 km/h (4 Bft) 96,15 %
02.04.2016 04:53 5,3 C 79 % 1020,0 hPa 0,0 l/m 17,9 km/h (3 Bft) O-NO 76 0 min 0,000 mm 0,0 UV-I 0 W/m 2,0 C -1,9 C 25,7 km/h (4 Bft) 100,00 %
02.04.2016 04:54 5,3 C 79 % 1020,1 hPa 0,0 l/m 22,0 km/h (4 Bft) O-NO 65 0 min 0,000 mm 0,0 UV-I 0 W/m 2,0 C -3,5 C 29,0 km/h (5 Bft) 100,00 %
02.04.2016 04:55 5,3 C 79 % 1020,0 hPa 0,0 l/m 19,4 km/h (3 Bft) NO 48 0 min 0,000 mm 0,0 UV-I 0 W/m 2,0 C -2,5 C 29,0 km/h (5 Bft) 100,00 %
02.04.2016 04:56 5,3 C 79 % 1020,0 hPa 0,0 l/m 19,9 km/h (4 Bft) O-NO 59 0 min 0,000 mm 0,0 UV-I 0 W/m 2,0 C -2,7 C 27,4 km/h (4 Bft) 100,00 %
02.04.2016 04:57 5,3 C 79 % 1020,0 hPa 0,0 l/m 15,3 km/h (3 Bft) NO 46 0 min 0,000 mm 0,0 UV-I 0 W/m 2,0 C -0,7 C 22,5 km/h (4 Bft) 99,30 %
02.04.2016 04:58 5,3 C 79 % 1020,0 hPa 0,0 l/m 20,9 km/h (4 Bft) O-NO 67 0 min 0,000 mm 0,0 UV-I 0 W/m 2,0 C -3,1 C 25,7 km/h (4 Bft) 100,00 %
02.04.2016 04:59 5,3 C 79 % 1020,0 hPa 0,0 l/m 24,5 km/h (4 Bft) NO 55 0 min 0,000 mm 0,0 UV-I 0 W/m 2,0 C -4,4 C 33,8 km/h (5 Bft) 100,00 %
02.04.2016 05:00 5,3 C 79 % 1019,9 hPa 0,0 l/m 25,6 km/h (4 Bft) O-NO 76 0 min 0,051 mm 0,0 UV-I 0 W/m 2,0 C -4,7 C 30,6 km/h (5 Bft) 100,00 %
02.04.2016 05:01 5,2 C 79 % 1019,9 hPa 0,0 l/m 25,8 km/h (4 Bft) O-NO 64 0 min 0,000 mm 0,0 UV-I 0 W/m 1,9 C -4,9 C 35,4 km/h (5 Bft) 95,83 %
02.04.2016 05:02 5,2 C 79 % 1019,9 hPa 0,0 l/m 28,1 km/h (4 Bft) NO 55 0 min 0,000 mm 0,0 UV-I 0 W/m 1,9 C -5,6 C 33,8 km/h (5 Bft) 95,65 %
02.04.2016 05:03 5,3 C 78 % 1020,0 hPa 0,0 l/m 29,0 km/h (5 Bft) NO 55 0 min 0,000 mm 0,0 UV-I 0 W/m 1,8 C -5,7 C 37,0 km/h (5 Bft) 100,00 %
02.04.2016 05:04 5,3 C 79 % 1019,9 hPa 0,0 l/m 26,2 km/h (4 Bft) NO 42 0 min 0,000 mm 0,0 UV-I 0 W/m 2,0 C -4,9 C 32,2 km/h (5 Bft) 96,15 %
02.04.2016 05:05 5,3 C 79 % 1020,0 hPa 0,0 l/m 20,8 km/h (4 Bft) NO 55 0 min 0,000 mm 0,0 UV-I 0 W/m 2,0 C -3,1 C 29,0 km/h (5 Bft) 100,00 %
02.04.2016 05:06 5,3 C 79 % 1020,0 hPa 0,0 l/m 19,3 km/h (3 Bft) O-NO 71 0 min 0,000 mm 0,0 UV-I 0 W/m 2,0 C -2,5 C 22,5 km/h (4 Bft) 96,55 %
02.04.2016 05:07 5,2 C 79 % 1020,0 hPa 0,0 l/m 16,3 km/h (3 Bft) NO 46 0 min 0,000 mm 0,0 UV-I 0 W/m 1,9 C -1,3 C 20,9 km/h (4 Bft) 100,00 %
02.04.2016 05:08 5,2 C 79 % 1019,9 hPa 0,0 l/m 20,4 km/h (4 Bft) O-NO 65 0 min 0,000 mm 0,0 UV-I 0 W/m 1,9 C -3,1 C 30,6 km/h (5 Bft) 96,30 %
02.04.2016 05:09 5,2 C 79 % 1019,9 hPa 0,0 l/m 22,6 km/h (4 Bft) NO 42 0 min 0,000 mm 0,0 UV-I 0 W/m 1,9 C -3,9 C 29,0 km/h (5 Bft) 96,15 %
02.04.2016 05:10 5,2 C 79 % 1019,9 hPa 0,0 l/m 22,6 km/h (4 Bft) O-NO 69 0 min 0,000 mm 0,0 UV-I 0 W/m 1,9 C -3,9 C 32,2 km/h (5 Bft) 93,33 %
02.04.2016 05:11 5,2 C 79 % 1019,9 hPa 0,0 l/m 26,8 km/h (4 Bft) NO 36 0 min 0,000 mm 0,0 UV-I 0 W/m 1,9 C -5,2 C 35,4 km/h (5 Bft) 100,00 %
02.04.2016 05:12 5,2 C 79 % 1019,9 hPa 0,0 l/m 26,6 km/h (4 Bft) O-NO 72 0 min 0,000 mm 0,0 UV-I 0 W/m 1,9 C -5,2 C 32,2 km/h (5 Bft) 96,30 %
02.04.2016 05:13 5,2 C 79 % 1019,9 hPa 0,0 l/m 24,2 km/h (4 Bft) O-NO 61 0 min 0,000 mm 0,0 UV-I 0 W/m 1,9 C -4,4 C 33,8 km/h (5 Bft) 92,31 %
02.04.2016 05:14 5,2 C 79 % 1019,9 hPa 0,0 l/m 22,3 km/h (4 Bft) NO 51 0 min 0,000 mm 0,0 UV-I 0 W/m 1,9 C -3,8 C 29,0 km/h (5 Bft) 100,00 %
02.04.2016 05:15 5,2 C 79 % 1019,9 hPa 0,0 l/m 24,5 km/h (4 Bft) NO 40 0 min 0,000 mm 0,0 UV-I 0 W/m 1,9 C -4,5 C 30,6 km/h (5 Bft) 91,30 %
02.04.2016 05:16 5,2 C 79 % 1019,9 hPa 0,0 l/m 28,4 km/h (4 Bft) O-NO 73 0 min 0,000 mm 0,0 UV-I 0 W/m 1,9 C -5,7 C 37,0 km/h (5 Bft) 100,00 %
02.04.2016 05:17 5,2 C 79 % 1019,9 hPa 0,0 l/m 19,0 km/h (3 Bft) O-NO 67 0 min 0,000 mm 0,0 UV-I 0 W/m 1,9 C -2,5 C 24,1 km/h (4 Bft) 88,46 %
02.04.2016 05:18 5,2 C 79 % 1019,9 hPa 0,0 l/m 27,8 km/h (4 Bft) O-NO 58 0 min 0,000 mm 0,0 UV-I 0 W/m 1,9 C -5,5 C 37,0 km/h (5 Bft) 96,30 %
02.04.2016 05:19 5,2 C 79 % 1019,9 hPa 0,0 l/m 23,4 km/h (4 Bft) O-NO 58 0 min 0,000 mm 0,0 UV-I 0 W/m 1,9 C -4,2 C 30,6 km/h (5 Bft) 98,61 %
02.04.2016 05:20 5,2 C 79 % 1019,8 hPa 0,0 l/m 22,0 km/h (4 Bft) O 89 0 min 0,000 mm 0,0 UV-I 0 W/m 1,9 C -3,7 C 27,4 km/h (4 Bft) 95,35 %
02.04.2016 05:21 5,1 C 79 % 1019,9 hPa 0,0 l/m 19,6 km/h (3 Bft) O-NO 74 0 min 0,000 mm 0,0 UV-I 0 W/m 1,8 C -2,9 C 25,7 km/h (4 Bft) 100,00 %
02.04.2016 05:22 5,1 C 79 % 1019,9 hPa 0,0 l/m 23,7 km/h (4 Bft) O-NO 76 0 min 0,000 mm 0,0 UV-I 0 W/m 1,8 C -4,4 C 32,2 km/h (5 Bft) 93,33 %
02.04.2016 05:23 5,1 C 79 % 1019,9 hPa 0,0 l/m 23,3 km/h (4 Bft) O 86 0 min 0,000 mm 0,0 UV-I 0 W/m 1,8 C -4,3 C 30,6 km/h (5 Bft) 100,00 %
02.04.2016 05:24 5,1 C 79 % 1019,9 hPa 0,0 l/m 23,7 km/h (4 Bft) NO 43 0 min 0,000 mm 0,0 UV-I 0 W/m 1,8 C -4,4 C 33,8 km/h (5 Bft) 96,15 %
02.04.2016 05:25 5,1 C 79 % 1019,9 hPa 0,0 l/m 21,6 km/h (4 Bft) O-NO 70 0 min 0,000 mm 0,0 UV-I 0 W/m 1,8 C -3,7 C 25,7 km/h (4 Bft) 96,55 %
02.04.2016 05:26 5,1 C 79 % 1019,9 hPa 0,0 l/m 19,6 km/h (3 Bft) O-NO 71 0 min 0,000 mm 0,0 UV-I 0 W/m 1,8 C -2,9 C 24,1 km/h (4 Bft) 100,00 %
02.04.2016 05:27 5,1 C 79 % 1019,9 hPa 0,0 l/m 19,7 km/h (3 Bft) NO 43 0 min 0,000 mm 0,0 UV-I 0 W/m 1,8 C -2,9 C 24,1 km/h (4 Bft) 96,30 %
02.04.2016 05:28 5,1 C 79 % 1019,9 hPa 0,0 l/m 17,9 km/h (3 Bft) O-NO 59 0 min 0,000 mm 0,0 UV-I 0 W/m 1,8 C -2,2 C 25,7 km/h (4 Bft) 100,00 %
02.04.2016 05:29 5,1 C 79 % 1019,9 hPa 0,0 l/m 23,0 km/h (4 Bft) O-NO 58 0 min 0,000 mm 0,0 UV-I 0 W/m 1,8 C -4,1 C 30,6 km/h (5 Bft) 95,83 %
02.04.2016 05:30 5,1 C 79 % 1019,9 hPa 0,0 l/m 30,7 km/h (5 Bft) O 84 0 min 0,000 mm 0,0 UV-I 0 W/m 1,8 C -6,4 C 38,6 km/h (5 Bft) 100,00 %
02.04.2016 05:31 5,1 C 79 % 1019,8 hPa 0,0 l/m 25,6 km/h (4 Bft) O-NO 59 0 min 0,000 mm 0,0 UV-I 0 W/m 1,8 C -5,0 C 41,8 km/h (6 Bft) 83,33 %
02.04.2016 05:32 5,1 C 79 % 1019,9 hPa 0,0 l/m 25,8 km/h (4 Bft) O-NO 67 0 min 0,000 mm 0,0 UV-I 0 W/m 1,8 C -5,1 C 32,2 km/h (5 Bft) 100,00 %
02.04.2016 05:33 5,1 C 79 % 1019,9 hPa 0,0 l/m 22,5 km/h (4 Bft) NO 54 0 min 0,000 mm 0,0 UV-I 0 W/m 1,8 C -4,0 C 32,2 km/h (5 Bft) 91,67 %
02.04.2016 05:34 5,1 C 79 % 1019,9 hPa 0,0 l/m 22,9 km/h (4 Bft) O-NO 64 0 min 0,000 mm 0,0 UV-I 0 W/m 1,8 C -4,1 C 33,8 km/h (5 Bft) 96,88 %
02.04.2016 05:35 5,1 C 79 % 1019,9 hPa 0,0 l/m 27,8 km/h (4 Bft) O-NO 67 0 min 0,000 mm 0,0 UV-I 0 W/m 1,8 C -5,6 C 38,6 km/h (5 Bft) 96,30 %
02.04.2016 05:36 5,0 C 79 % 1019,9 hPa 0,0 l/m 23,1 km/h (4 Bft) O-NO 71 0 min 0,000 mm 0,0 UV-I 0 W/m 1,7 C -4,3 C 30,6 km/h (5 Bft) 100,00 %
02.04.2016 05:37 5,0 C 79 % 1019,9 hPa 0,0 l/m 21,6 km/h (4 Bft) O 81 0 min 0,000 mm 0,0 UV-I 0 W/m 1,7 C -3,8 C 27,4 km/h (4 Bft) 96,30 %
02.04.2016 05:38 5,0 C 79 % 1019,9 hPa 0,0 l/m 21,5 km/h (4 Bft) O-NO 59 0 min 0,000 mm 0,0 UV-I 0 W/m 1,7 C -3,7 C 30,6 km/h (5 Bft) 91,30 %
02.04.2016 05:39 5,0 C 79 % 1019,9 hPa 0,0 l/m 23,1 km/h (4 Bft) O-NO 71 0 min 0,000 mm 0,0 UV-I 0 W/m 1,7 C -4,3 C 32,2 km/h (5 Bft) 96,30 %
02.04.2016 05:40 5,0 C 79 % 1019,9 hPa 0,0 l/m 24,0 km/h (4 Bft) O-NO 77 0 min 0,000 mm 0,0 UV-I 0 W/m 1,7 C -4,6 C 32,2 km/h (5 Bft) 100,00 %
02.04.2016 05:41 5,0 C 79 % 1019,9 hPa 0,0 l/m 22,0 km/h (4 Bft) O-NO 71 0 min 0,000 mm 0,0 UV-I 0 W/m 1,7 C -3,9 C 27,4 km/h (4 Bft) 100,00 %
02.04.2016 05:42 5,0 C 79 % 1019,9 hPa 0,0 l/m 24,0 km/h (4 Bft) O-NO 76 0 min 0,000 mm 0,0 UV-I 0 W/m 1,7 C -4,6 C 32,2 km/h (5 Bft) 96,15 %
02.04.2016 05:43 5,0 C 79 % 1019,9 hPa 0,0 l/m 27,4 km/h (4 Bft) O-NO 60 0 min 0,000 mm 0,0 UV-I 0 W/m 1,7 C -5,7 C 33,8 km/h (5 Bft) 100,00 %
02.04.2016 05:44 5,0 C 79 % 1019,9 hPa 0,0 l/m 26,0 km/h (4 Bft) O-NO 65 0 min 0,000 mm 0,0 UV-I 0 W/m 1,7 C -5,3 C 30,6 km/h (5 Bft) 96,15 %
02.04.2016 05:45 4,9 C 79 % 1019,9 hPa 0,0 l/m 22,3 km/h (4 Bft) O-NO 62 0 min 0,000 mm 0,0 UV-I 0 W/m 1,6 C -4,2 C 27,4 km/h (4 Bft) 100,00 %
02.04.2016 05:46 4,9 C 79 % 1019,9 hPa 0,0 l/m 23,9 km/h (4 Bft) O-NO 66 0 min 0,000 mm 0,0 UV-I 0 W/m 1,6 C -4,7 C 32,2 km/h (5 Bft) 100,00 %
02.04.2016 05:47 4,9 C 79 % 1019,9 hPa 0,0 l/m 25,5 km/h (4 Bft) NO 49 0 min 0,000 mm 0,0 UV-I 0 W/m 1,6 C -5,2 C 33,8 km/h (5 Bft) 100,00 %
02.04.2016 05:48 4,9 C 79 % 1019,9 hPa 0,0 l/m 25,9 km/h (4 Bft) NO 48 0 min 0,000 mm 0,0 UV-I 0 W/m 1,6 C -5,4 C 33,8 km/h (5 Bft) 100,00 %
02.04.2016 05:49 4,9 C 79 % 1019,9 hPa 0,0 l/m 21,7 km/h (4 Bft) NO 55 0 min 0,000 mm 0,0 UV-I 0 W/m 1,6 C -4,0 C 25,7 km/h (4 Bft) 100,00 %
02.04.2016 05:50 4,9 C 79 % 1019,9 hPa 0,0 l/m 28,8 km/h (4 Bft) O-NO 76 0 min 0,000 mm 0,0 UV-I 0 W/m 1,6 C -6,2 C 37,0 km/h (5 Bft) 100,00 %
02.04.2016 05:51 4,9 C 79 % 1019,9 hPa 0,0 l/m 22,9 km/h (4 Bft) O-NO 60 0 min 0,000 mm 0,0 UV-I 0 W/m 1,6 C -4,4 C 29,0 km/h (5 Bft) 100,00 %
02.04.2016 05:52 4,9 C 79 % 1019,9 hPa 0,0 l/m 20,3 km/h (4 Bft) NO 40 0 min 0,000 mm 0,0 UV-I 0 W/m 1,6 C -3,4 C 27,4 km/h (4 Bft) 96,67 %
02.04.2016 05:53 4,9 C 79 % 1019,9 hPa 0,0 l/m 20,1 km/h (4 Bft) NO 46 0 min 0,000 mm 0,0 UV-I 0 W/m 1,6 C -3,3 C 25,7 km/h (4 Bft) 100,00 %
02.04.2016 05:54 4,9 C 79 % 1019,9 hPa 0,0 l/m 25,8 km/h (4 Bft) O-NO 62 0 min 0,000 mm 0,0 UV-I 0 W/m 1,6 C -5,3 C 30,6 km/h (5 Bft) 100,00 %
02.04.2016 05:55 4,9 C 78 % 1019,9 hPa 0,0 l/m 25,8 km/h (4 Bft) O-NO 69 0 min 0,000 mm 0,0 UV-I 0 W/m 1,4 C -5,3 C 32,2 km/h (5 Bft) 100,00 %
02.04.2016 05:56 4,9 C 78 % 1019,8 hPa 0,0 l/m 22,3 km/h (4 Bft) NO 56 0 min 0,000 mm 0,0 UV-I 0 W/m 1,4 C -4,2 C 30,6 km/h (5 Bft) 100,00 %
02.04.2016 05:57 4,9 C 78 % 1019,8 hPa 0,0 l/m 23,9 km/h (4 Bft) NO 49 0 min 0,000 mm 0,0 UV-I 0 W/m 1,4 C -4,7 C 35,4 km/h (5 Bft) 100,00 %
02.04.2016 05:58 4,9 C 78 % 1019,8 hPa 0,0 l/m 30,2 km/h (5 Bft) NO 43 0 min 0,000 mm 0,0 UV-I 0 W/m 1,4 C -6,6 C 40,2 km/h (6 Bft) 100,00 %
02.04.2016 05:59 4,9 C 78 % 1019,8 hPa 0,0 l/m 28,3 km/h (4 Bft) O 92 0 min 0,000 mm 0,0 UV-I 0 W/m 1,4 C -6,1 C 33,8 km/h (5 Bft) 98,40 %
02.04.2016 06:00 4,9 C 78 % 1019,8 hPa 0,0 l/m 21,0 km/h (4 Bft) O-NO 64 0 min 0,000 mm 0,0 UV-I 0 W/m 1,4 C -3,7 C 29,0 km/h (5 Bft) 100,00 %
02.04.2016 06:01 4,9 C 78 % 1019,8 hPa 0,0 l/m 29,0 km/h (5 Bft) O-NO 69 0 min 0,051 mm 0,0 UV-I 0 W/m 1,4 C -6,3 C 32,2 km/h (5 Bft) 98,42 %
02.04.2016 06:02 4,9 C 78 % 1019,7 hPa 0,0 l/m 22,5 km/h (4 Bft) O-NO 63 0 min 0,000 mm 0,0 UV-I 0 W/m 1,4 C -4,2 C 29,0 km/h (5 Bft) 100,00 %
02.04.2016 06:03 4,9 C 78 % 1019,7 hPa 0,0 l/m 30,2 km/h (5 Bft) O-NO 65 0 min 0,000 mm 0,0 UV-I 0 W/m 1,4 C -6,6 C 38,6 km/h (5 Bft) 100,00 %
02.04.2016 06:04 4,9 C 77 % 1019,7 hPa 0,0 l/m 20,7 km/h (4 Bft) O-NO 57 0 min 0,000 mm 0,0 UV-I 0 W/m 1,2 C -3,6 C 30,6 km/h (5 Bft) 100,00 %
02.04.2016 06:05 4,9 C 78 % 1019,7 hPa 0,0 l/m 22,1 km/h (4 Bft) O-NO 58 0 min 0,000 mm 0,0 UV-I 0 W/m 1,4 C -4,1 C 29,0 km/h (5 Bft) 100,00 %
02.04.2016 06:06 4,8 C 78 % 1019,7 hPa 0,0 l/m 23,3 km/h (4 Bft) NO 55 0 min 0,000 mm 0,0 UV-I 0 W/m 1,3 C -4,7 C 33,8 km/h (5 Bft) 100,00 %
02.04.2016 06:07 4,8 C 78 % 1019,7 hPa 0,0 l/m 25,7 km/h (4 Bft) NO 36 0 min 0,000 mm 0,0 UV-I 0 W/m 1,3 C -5,4 C 35,4 km/h (5 Bft) 100,00 %
02.04.2016 06:08 4,8 C 77 % 1019,7 hPa 0,0 l/m 20,7 km/h (4 Bft) O 79 0 min 0,000 mm 0,0 UV-I 0 W/m 1,1 C -3,7 C 29,0 km/h (5 Bft) 100,00 %
02.04.2016 06:09 4,8 C 77 % 1019,7 hPa 0,0 l/m 26,2 km/h (4 Bft) O-NO 66 0 min 0,000 mm 0,0 UV-I 0 W/m 1,1 C -5,6 C 32,2 km/h (5 Bft) 100,00 %
02.04.2016 06:10 4,8 C 76 % 1019,7 hPa 0,0 l/m 23,9 km/h (4 Bft) O 80 0 min 0,000 mm 0,0 UV-I 0 W/m 0,9 C -4,9 C 29,0 km/h (5 Bft) 96,15 %
02.04.2016 06:11 4,8 C 77 % 1019,7 hPa 0,0 l/m 23,8 km/h (4 Bft) O-NO 71 0 min 0,000 mm 0,0 UV-I 0 W/m 1,1 C -4,8 C 33,8 km/h (5 Bft) 100,00 %
02.04.2016 06:12 4,8 C 76 % 1019,7 hPa 0,0 l/m 25,9 km/h (4 Bft) O-NO 59 0 min 0,000 mm 0,0 UV-I 0 W/m 0,9 C -5,5 C 35,4 km/h (5 Bft) 100,00 %
02.04.2016 06:13 4,8 C 76 % 1019,6 hPa 0,0 l/m 23,2 km/h (4 Bft) O-NO 73 0 min 0,000 mm 0,0 UV-I 0 W/m 0,9 C -4,6 C 30,6 km/h (5 Bft) 100,00 %
02.04.2016 06:14 4,8 C 76 % 1019,6 hPa 0,0 l/m 21,5 km/h (4 Bft) O-NO 60 0 min 0,000 mm 0,0 UV-I 0 W/m 0,9 C -4,0 C 29,0 km/h (5 Bft) 100,00 %
02.04.2016 06:15 4,8 C 76 % 1019,6 hPa 0,0 l/m 27,4 km/h (4 Bft) NO 34 0 min 0,000 mm 0,0 UV-I 0 W/m 0,9 C -5,9 C 38,6 km/h (5 Bft) 100,00 %
02.04.2016 06:16 4,8 C 76 % 1019,6 hPa 0,0 l/m 28,7 km/h (4 Bft) O 86 0 min 0,000 mm 0,0 UV-I 0 W/m 0,9 C -6,3 C 35,4 km/h (5 Bft) 100,00 %
02.04.2016 06:17 4,8 C 75 % 1019,5 hPa 0,0 l/m 27,5 km/h (4 Bft) O-NO 65 0 min 0,000 mm 0,0 UV-I 0 W/m 0,8 C -6,0 C 33,8 km/h (5 Bft) 100,00 %
02.04.2016 06:18 4,8 C 75 % 1019,5 hPa 0,0 l/m 25,7 km/h (4 Bft) O-NO 65 0 min 0,000 mm 0,0 UV-I 0 W/m 0,8 C -5,4 C 35,4 km/h (5 Bft) 100,00 %
02.04.2016 06:19 4,8 C 75 % 1019,6 hPa 0,0 l/m 25,3 km/h (4 Bft) O 89 0 min 0,000 mm 0,0 UV-I 0 W/m 0,8 C -5,3 C 37,0 km/h (5 Bft) 100,00 %
02.04.2016 06:20 4,8 C 75 % 1019,6 hPa 0,0 l/m 25,8 km/h (4 Bft) NO 41 0 min 0,000 mm 0,0 UV-I 0 W/m 0,8 C -5,5 C 38,6 km/h (5 Bft) 100,00 %
02.04.2016 06:21 4,8 C 75 % 1019,6 hPa 0,0 l/m 21,7 km/h (4 Bft) NO 53 0 min 0,000 mm 0,0 UV-I 0 W/m 0,8 C -4,1 C 24,1 km/h (4 Bft) 100,00 %
02.04.2016 06:22 4,8 C 75 % 1019,5 hPa 0,0 l/m 27,4 km/h (4 Bft) O-NO 74 0 min 0,000 mm 0,0 UV-I 0 W/m 0,8 C -5,9 C 38,6 km/h (5 Bft) 96,15 %
02.04.2016 06:23 4,8 C 75 % 1019,5 hPa 0,0 l/m 23,2 km/h (4 Bft) O-NO 65 0 min 0,000 mm 0,0 UV-I 0 W/m 0,8 C -4,6 C 32,2 km/h (5 Bft) 100,00 %
02.04.2016 06:24 4,8 C 75 % 1019,5 hPa 0,0 l/m 22,5 km/h (4 Bft) O-NO 59 0 min 0,000 mm 0,0 UV-I 0 W/m 0,8 C -4,4 C 32,2 km/h (5 Bft) 100,00 %
02.04.2016 06:25 4,7 C 75 % 1019,5 hPa 0,0 l/m 24,3 km/h (4 Bft) O-NO 61 0 min 0,000 mm 0,0 UV-I 0 W/m 0,7 C -5,1 C 30,6 km/h (5 Bft) 100,00 %
02.04.2016 06:26 4,8 C 75 % 1019,5 hPa 0,0 l/m 25,3 km/h (4 Bft) NO 54 0 min 0,000 mm 0,0 UV-I 0 W/m 0,8 C -5,3 C 43,5 km/h (6 Bft) 100,00 %
02.04.2016 06:27 4,7 C 74 % 1019,5 hPa 0,0 l/m 32,3 km/h (5 Bft) O-NO 76 0 min 0,000 mm 0,0 UV-I 0 W/m 0,5 C -7,4 C 40,2 km/h (6 Bft) 100,00 %
02.04.2016 06:28 4,8 C 74 % 1019,6 hPa 0,0 l/m 22,5 km/h (4 Bft) O-NO 72 0 min 0,000 mm 0,0 UV-I 0 W/m 0,6 C -4,4 C 33,8 km/h (5 Bft) 100,00 %
02.04.2016 06:29 4,8 C 75 % 1019,6 hPa 0,0 l/m 25,2 km/h (4 Bft) NO 51 0 min 0,000 mm 0,0 UV-I 0 W/m 0,8 C -5,3 C 33,8 km/h (5 Bft) 100,00 %
02.04.2016 06:30 4,8 C 74 % 1019,6 hPa 0,0 l/m 21,6 km/h (4 Bft) O-NO 63 0 min 0,000 mm 0,0 UV-I 0 W/m 0,6 C -4,0 C 25,7 km/h (4 Bft) 100,00 %
02.04.2016 06:31 4,7 C 74 % 1019,6 hPa 0,0 l/m 24,0 km/h (4 Bft) O 87 0 min 0,000 mm 0,0 UV-I 0 W/m 0,5 C -5,0 C 33,8 km/h (5 Bft) 100,00 %
02.04.2016 06:32 4,7 C 74 % 1019,6 hPa 0,0 l/m 25,2 km/h (4 Bft) O-NO 66 0 min 0,000 mm 0,0 UV-I 0 W/m 0,5 C -5,4 C 37,0 km/h (5 Bft) 100,00 %
02.04.2016 06:33 4,7 C 74 % 1019,7 hPa 0,0 l/m 26,4 km/h (4 Bft) O-NO 77 0 min 0,000 mm 0,0 UV-I 0 W/m 0,5 C -5,8 C 32,2 km/h (5 Bft) 98,70 %
02.04.2016 06:34 4,7 C 74 % 1019,7 hPa 0,0 l/m 21,6 km/h (4 Bft) O 82 0 min 0,000 mm 0,0 UV-I 0 W/m 0,5 C -4,2 C 27,4 km/h (4 Bft) 100,00 %
02.04.2016 06:35 4,7 C 74 % 1019,7 hPa 0,0 l/m 19,7 km/h (3 Bft) O-NO 69 0 min 0,000 mm 0,0 UV-I 0 W/m 0,5 C -3,4 C 25,7 km/h (4 Bft) 100,00 %
02.04.2016 06:36 4,7 C 74 % 1019,7 hPa 0,0 l/m 22,8 km/h (4 Bft) O-NO 77 0 min 0,000 mm 0,0 UV-I 0 W/m 0,5 C -4,6 C 32,2 km/h (5 Bft) 98,73 %
02.04.2016 06:37 4,7 C 74 % 1019,7 hPa 0,0 l/m 20,8 km/h (4 Bft) O-NO 59 0 min 0,000 mm 0,0 UV-I 0 W/m 0,5 C -3,9 C 30,6 km/h (5 Bft) 97,56 %
02.04.2016 06:38 4,7 C 74 % 1019,7 hPa 0,0 l/m 27,1 km/h (4 Bft) O-NO 71 0 min 0,000 mm 0,0 UV-I 0 W/m 0,5 C -6,0 C 40,2 km/h (6 Bft) 96,30 %
02.04.2016 06:39 4,7 C 74 % 1019,7 hPa 0,0 l/m 21,6 km/h (4 Bft) NO 55 0 min 0,000 mm 0,0 UV-I 0 W/m 0,5 C -4,2 C 30,6 km/h (5 Bft) 100,00 %
02.04.2016 06:40 4,7 C 74 % 1019,7 hPa 0,0 l/m 26,0 km/h (4 Bft) O 96 0 min 0,000 mm 0,0 UV-I 0 W/m 0,5 C -5,7 C 37,0 km/h (5 Bft) 100,00 %
02.04.2016 06:41 4,7 C 74 % 1019,7 hPa 0,0 l/m 18,4 km/h (3 Bft) O-NO 76 0 min 0,000 mm 0,0 UV-I 1 W/m 0,5 C -2,9 C 25,7 km/h (4 Bft) 100,00 %
02.04.2016 06:42 4,7 C 74 % 1019,8 hPa 0,0 l/m 22,3 km/h (4 Bft) O-NO 63 0 min 0,000 mm 0,0 UV-I 5 W/m 0,5 C -4,4 C 30,6 km/h (5 Bft) 100,00 %
02.04.2016 06:43 4,6 C 74 % 1019,7 hPa 0,0 l/m 20,7 km/h (4 Bft) O 92 0 min 0,000 mm 0,0 UV-I 5 W/m 0,4 C -4,0 C 24,1 km/h (4 Bft) 100,00 %
02.04.2016 06:44 4,6 C 74 % 1019,7 hPa 0,0 l/m 20,7 km/h (4 Bft) O-NO 59 0 min 0,000 mm 0,0 UV-I 5 W/m 0,4 C -4,0 C 25,7 km/h (4 Bft) 100,00 %
02.04.2016 06:45 4,6 C 74 % 1019,7 hPa 0,0 l/m 20,0 km/h (4 Bft) NO 49 0 min 0,000 mm 0,0 UV-I 7 W/m 0,4 C -3,7 C 29,0 km/h (5 Bft) 100,00 %
02.04.2016 06:46 4,6 C 74 % 1019,7 hPa 0,0 l/m 23,6 km/h (4 Bft) NO 48 0 min 0,000 mm 0,0 UV-I 7 W/m 0,4 C -5,0 C 35,4 km/h (5 Bft) 96,15 %
02.04.2016 06:47 4,6 C 74 % 1019,7 hPa 0,0 l/m 27,1 km/h (4 Bft) NO 50 0 min 0,000 mm 0,0 UV-I 8 W/m 0,4 C -6,1 C 35,4 km/h (5 Bft) 100,00 %
02.04.2016 06:48 4,6 C 74 % 1019,7 hPa 0,0 l/m 20,5 km/h (4 Bft) O-NO 74 0 min 0,000 mm 0,0 UV-I 9 W/m 0,4 C -3,9 C 27,4 km/h (4 Bft) 100,00 %
02.04.2016 06:49 4,6 C 74 % 1019,7 hPa 0,0 l/m 21,1 km/h (4 Bft) O-NO 59 0 min 0,000 mm 0,0 UV-I 10 W/m 0,4 C -4,1 C 29,0 km/h (5 Bft) 95,83 %
02.04.2016 06:50 4,6 C 74 % 1019,7 hPa 0,0 l/m 21,2 km/h (4 Bft) NO 44 1 min 0,000 mm 0,0 UV-I 11 W/m 0,4 C -4,2 C 27,4 km/h (4 Bft) 100,00 %
02.04.2016 06:51 4,6 C 74 % 1019,7 hPa 0,0 l/m 24,3 km/h (4 Bft) O-NO 72 1 min 0,000 mm 0,0 UV-I 12 W/m 0,4 C -5,3 C 32,2 km/h (5 Bft) 100,00 %
02.04.2016 06:52 4,6 C 74 % 1019,7 hPa 0,0 l/m 22,5 km/h (4 Bft) NO 52 0 min 0,000 mm 0,0 UV-I 12 W/m 0,4 C -4,6 C 29,0 km/h (5 Bft) 100,00 %
02.04.2016 06:53 4,6 C 74 % 1019,7 hPa 0,0 l/m 20,0 km/h (4 Bft) O-NO 63 1 min 0,000 mm 0,0 UV-I 14 W/m 0,4 C -3,7 C 24,1 km/h (4 Bft) 100,00 %
02.04.2016 06:54 4,6 C 74 % 1019,7 hPa 0,0 l/m 19,6 km/h (3 Bft) O-NO 61 0 min 0,000 mm 0,0 UV-I 14 W/m 0,4 C -3,5 C 24,1 km/h (4 Bft) 100,00 %
02.04.2016 06:55 4,6 C 74 % 1019,7 hPa 0,0 l/m 24,5 km/h (4 Bft) O-NO 59 0 min 0,000 mm 0,0 UV-I 16 W/m 0,4 C -5,3 C 32,2 km/h (5 Bft) 93,33 %
02.04.2016 06:56 4,6 C 74 % 1019,7 hPa 0,0 l/m 25,7 km/h (4 Bft) O-NO 73 0 min 0,000 mm 0,0 UV-I 16 W/m 0,4 C -5,7 C 30,6 km/h (5 Bft) 96,15 %
02.04.2016 06:57 4,6 C 74 % 1019,7 hPa 0,0 l/m 21,7 km/h (4 Bft) O-NO 61 0 min 0,000 mm 0,0 UV-I 18 W/m 0,4 C -4,3 C 29,0 km/h (5 Bft) 100,00 %
02.04.2016 06:58 4,6 C 74 % 1019,6 hPa 0,0 l/m 22,1 km/h (4 Bft) NO 38 0 min 0,000 mm 0,0 UV-I 18 W/m 0,4 C -4,5 C 25,7 km/h (4 Bft) 100,00 %
02.04.2016 06:59 4,6 C 74 % 1019,6 hPa 0,0 l/m 19,4 km/h (3 Bft) O-NO 61 0 min 0,000 mm 0,0 UV-I 19 W/m 0,4 C -3,4 C 30,6 km/h (5 Bft) 100,00 %
02.04.2016 07:00 4,6 C 74 % 1019,6 hPa 0,0 l/m 21,7 km/h (4 Bft) NO 47 0 min 0,051 mm 0,0 UV-I 20 W/m 0,4 C -4,3 C 25,7 km/h (4 Bft) 100,00 %
02.04.2016 07:01 4,5 C 74 % 1019,6 hPa 0,0 l/m 22,8 km/h (4 Bft) O-NO 77 0 min 0,000 mm 0,0 UV-I 21 W/m 0,3 C -4,9 C 35,4 km/h (5 Bft) 91,67 %
02.04.2016 07:02 4,5 C 74 % 1019,7 hPa 0,0 l/m 24,2 km/h (4 Bft) O-NO 57 0 min 0,000 mm 0,0 UV-I 21 W/m 0,3 C -5,4 C 29,0 km/h (5 Bft) 100,00 %
02.04.2016 07:03 4,5 C 74 % 1019,8 hPa 0,0 l/m 25,1 km/h (4 Bft) O-NO 65 0 min 0,000 mm 0,0 UV-I 23 W/m 0,3 C -5,7 C 29,0 km/h (5 Bft) 100,00 %
02.04.2016 07:04 4,5 C 74 % 1019,8 hPa 0,0 l/m 23,9 km/h (4 Bft) O-NO 61 0 min 0,000 mm 0,0 UV-I 24 W/m 0,3 C -5,3 C 29,0 km/h (5 Bft) 97,56 %
02.04.2016 07:05 4,5 C 74 % 1019,8 hPa 0,0 l/m 18,2 km/h (3 Bft) O-NO 70 0 min 0,000 mm 0,0 UV-I 25 W/m 0,3 C -3,1 C 22,5 km/h (4 Bft) 100,00 %
02.04.2016 07:06 4,5 C 74 % 1019,8 hPa 0,0 l/m 19,8 km/h (3 Bft) O-NO 74 0 min 0,000 mm 0,0 UV-I 25 W/m 0,3 C -3,7 C 27,4 km/h (4 Bft) 98,72 %
02.04.2016 07:07 4,5 C 74 % 1019,9 hPa 0,0 l/m 20,1 km/h (4 Bft) O-NO 57 0 min 0,000 mm 0,0 UV-I 26 W/m 0,3 C -3,9 C 25,7 km/h (4 Bft) 97,56 %
02.04.2016 07:08 4,5 C 74 % 1019,9 hPa 0,0 l/m 24,0 km/h (4 Bft) NO 50 0 min 0,000 mm 0,0 UV-I 26 W/m 0,3 C -5,3 C 32,2 km/h (5 Bft) 96,55 %
02.04.2016 07:09 4,5 C 74 % 1019,9 hPa 0,0 l/m 24,4 km/h (4 Bft) O-NO 76 0 min 0,000 mm 0,0 UV-I 28 W/m 0,3 C -5,4 C 35,4 km/h (5 Bft) 100,00 %
02.04.2016 07:10 4,5 C 74 % 1019,9 hPa 0,0 l/m 20,1 km/h (4 Bft) O 86 0 min 0,000 mm 0,0 UV-I 28 W/m 0,3 C -3,9 C 32,2 km/h (5 Bft) 95,83 %
02.04.2016 07:11 4,4 C 74 % 1019,9 hPa 0,0 l/m 20,9 km/h (4 Bft) NO 45 0 min 0,000 mm 0,0 UV-I 30 W/m 0,2 C -4,3 C 25,7 km/h (4 Bft) 96,15 %
02.04.2016 07:12 4,5 C 74 % 1019,9 hPa 0,0 l/m 25,6 km/h (4 Bft) O 91 0 min 0,000 mm 0,0 UV-I 31 W/m 0,3 C -5,8 C 32,2 km/h (5 Bft) 100,00 %
02.04.2016 07:13 4,4 C 74 % 1019,9 hPa 0,0 l/m 21,8 km/h (4 Bft) O-NO 66 0 min 0,000 mm 0,0 UV-I 32 W/m 0,2 C -4,6 C 30,6 km/h (5 Bft) 96,15 %
02.04.2016 07:14 4,5 C 74 % 1019,9 hPa 0,0 l/m 19,7 km/h (3 Bft) O-NO 65 0 min 0,000 mm 0,0 UV-I 33 W/m 0,3 C -3,7 C 25,7 km/h (4 Bft) 100,00 %
02.04.2016 07:15 4,5 C 74 % 1019,9 hPa 0,0 l/m 20,6 km/h (4 Bft) O-NO 69 0 min 0,000 mm 0,0 UV-I 33 W/m 0,3 C -4,1 C 32,2 km/h (5 Bft) 95,65 %
02.04.2016 07:16 4,5 C 74 % 1019,9 hPa 0,0 l/m 27,8 km/h (4 Bft) O-NO 74 0 min 0,000 mm 0,0 UV-I 34 W/m 0,3 C -6,5 C 35,4 km/h (5 Bft) 100,00 %
02.04.2016 07:17 4,5 C 74 % 1019,9 hPa 0,0 l/m 25,2 km/h (4 Bft) O-NO 60 0 min 0,000 mm 0,0 UV-I 35 W/m 0,3 C -5,7 C 30,6 km/h (5 Bft) 96,15 %
02.04.2016 07:18 4,5 C 74 % 1020,0 hPa 0,0 l/m 20,4 km/h (4 Bft) NO 50 0 min 0,000 mm 0,0 UV-I 36 W/m 0,3 C -4,0 C 27,4 km/h (4 Bft) 96,30 %
02.04.2016 07:19 4,5 C 74 % 1019,9 hPa 0,0 l/m 20,6 km/h (4 Bft) O 80 0 min 0,000 mm 0,0 UV-I 37 W/m 0,3 C -4,1 C 30,6 km/h (5 Bft) 100,00 %
02.04.2016 07:20 4,5 C 74 % 1020,0 hPa 0,0 l/m 23,3 km/h (4 Bft) O-NO 76 0 min 0,000 mm 0,0 UV-I 39 W/m 0,3 C -5,1 C 30,6 km/h (5 Bft) 96,30 %
02.04.2016 07:21 4,5 C 74 % 1020,0 hPa 0,0 l/m 20,8 km/h (4 Bft) O-NO 67 0 min 0,000 mm 0,0 UV-I 39 W/m 0,3 C -4,1 C 29,0 km/h (5 Bft) 100,00 %
02.04.2016 07:22 4,5 C 73 % 1020,0 hPa 0,0 l/m 20,5 km/h (4 Bft) NO 49 0 min 0,000 mm 0,0 UV-I 40 W/m 0,1 C -4,0 C 24,1 km/h (4 Bft) 96,30 %
02.04.2016 07:23 4,5 C 73 % 1020,1 hPa 0,0 l/m 18,7 km/h (3 Bft) O-NO 76 0 min 0,000 mm 0,0 UV-I 41 W/m 0,1 C -3,3 C 24,1 km/h (4 Bft) 98,62 %
02.04.2016 07:24 4,5 C 74 % 1020,1 hPa 0,0 l/m 16,0 km/h (3 Bft) O-NO 61 0 min 0,000 mm 0,0 UV-I 42 W/m 0,3 C -2,0 C 27,4 km/h (4 Bft) 97,73 %
02.04.2016 07:25 4,5 C 74 % 1020,1 hPa 0,0 l/m 23,0 km/h (4 Bft) O-NO 69 0 min 0,000 mm 0,0 UV-I 43 W/m 0,3 C -4,9 C 27,4 km/h (4 Bft) 100,00 %
02.04.2016 07:26 4,5 C 74 % 1020,0 hPa 0,0 l/m 20,1 km/h (4 Bft) O 80 0 min 0,000 mm 0,0 UV-I 44 W/m 0,3 C -3,9 C 27,4 km/h (4 Bft) 96,15 %
02.04.2016 07:27 4,5 C 74 % 1020,1 hPa 0,0 l/m 24,1 km/h (4 Bft) O-NO 58 0 min 0,000 mm 0,0 UV-I 44 W/m 0,3 C -5,3 C 30,6 km/h (5 Bft) 96,30 %
02.04.2016 07:28 4,5 C 74 % 1020,0 hPa 0,0 l/m 27,4 km/h (4 Bft) NO 42 0 min 0,000 mm 0,0 UV-I 44 W/m 0,3 C -6,4 C 37,0 km/h (5 Bft) 95,65 %
02.04.2016 07:29 4,5 C 73 % 1020,1 hPa 0,0 l/m 22,7 km/h (4 Bft) NO 44 0 min 0,000 mm 0,0 UV-I 46 W/m 0,1 C -4,8 C 29,0 km/h (5 Bft) 96,55 %
02.04.2016 07:30 4,5 C 74 % 1020,1 hPa 0,0 l/m 21,3 km/h (4 Bft) O-NO 69 0 min 0,000 mm 0,0 UV-I 47 W/m 0,3 C -4,3 C 29,0 km/h (5 Bft) 100,00 %
02.04.2016 07:31 4,5 C 73 % 1020,1 hPa 0,0 l/m 19,7 km/h (3 Bft) NO 46 0 min 0,000 mm 0,0 UV-I 48 W/m 0,1 C -3,7 C 22,5 km/h (4 Bft) 96,30 %
02.04.2016 07:32 4,5 C 74 % 1020,0 hPa 0,0 l/m 18,0 km/h (3 Bft) NO 50 0 min 0,000 mm 0,0 UV-I 49 W/m 0,3 C -3,0 C 22,5 km/h (4 Bft) 100,00 %
02.04.2016 07:33 4,5 C 74 % 1020,0 hPa 0,0 l/m 20,5 km/h (4 Bft) O-NO 66 0 min 0,000 mm 0,0 UV-I 54 W/m 0,3 C -4,0 C 33,8 km/h (5 Bft) 91,67 %
02.04.2016 07:34 4,5 C 73 % 1020,0 hPa 0,0 l/m 19,9 km/h (4 Bft) NO 56 0 min 0,000 mm 0,0 UV-I 57 W/m 0,1 C -3,8 C 27,4 km/h (4 Bft) 100,00 %
02.04.2016 07:35 4,5 C 74 % 1020,1 hPa 0,0 l/m 23,1 km/h (4 Bft) NO 55 0 min 0,000 mm 0,0 UV-I 59 W/m 0,3 C -5,0 C 30,6 km/h (5 Bft) 96,30 %
02.04.2016 07:36 4,5 C 73 % 1020,0 hPa 0,0 l/m 23,6 km/h (4 Bft) O-NO 60 0 min 0,000 mm 0,0 UV-I 61 W/m 0,1 C -5,2 C 30,6 km/h (5 Bft) 100,00 %
02.04.2016 07:37 4,6 C 73 % 1020,0 hPa 0,0 l/m 19,5 km/h (3 Bft) O-NO 61 0 min 0,000 mm 0,0 UV-I 63 W/m 0,2 C -3,5 C 25,7 km/h (4 Bft) 98,55 %
02.04.2016 07:38 4,6 C 74 % 1020,0 hPa 0,0 l/m 19,0 km/h (3 Bft) NO 52 0 min 0,000 mm 0,0 UV-I 63 W/m 0,4 C -3,3 C 24,1 km/h (4 Bft) 100,00 %
02.04.2016 07:39 4,6 C 74 % 1020,0 hPa 0,0 l/m 20,8 km/h (4 Bft) NO 47 0 min 0,000 mm 0,0 UV-I 67 W/m 0,4 C -4,0 C 27,4 km/h (4 Bft) 100,00 %
02.04.2016 07:40 4,6 C 74 % 1020,0 hPa 0,0 l/m 19,5 km/h (3 Bft) O-NO 77 0 min 0,000 mm 0,0 UV-I 68 W/m 0,4 C -3,5 C 30,6 km/h (5 Bft) 95,65 %
02.04.2016 07:41 4,6 C 74 % 1020,1 hPa 0,0 l/m 21,2 km/h (4 Bft) O-NO 64 0 min 0,000 mm 0,0 UV-I 70 W/m 0,4 C -4,2 C 30,6 km/h (5 Bft) 100,00 %
02.04.2016 07:42 4,6 C 73 % 1020,0 hPa 0,0 l/m 19,6 km/h (3 Bft) O-NO 61 0 min 0,000 mm 0,0 UV-I 71 W/m 0,2 C -3,5 C 29,0 km/h (5 Bft) 100,00 %
02.04.2016 07:43 4,6 C 73 % 1020,0 hPa 0,0 l/m 24,2 km/h (4 Bft) NO 53 0 min 0,000 mm 0,0 UV-I 74 W/m 0,2 C -5,2 C 29,0 km/h (5 Bft) 100,00 %
02.04.2016 07:44 4,6 C 73 % 1020,0 hPa 0,0 l/m 20,1 km/h (4 Bft) O 82 0 min 0,000 mm 0,0 UV-I 76 W/m 0,2 C -3,7 C 27,4 km/h (4 Bft) 96,55 %
02.04.2016 07:45 4,6 C 73 % 1020,0 hPa 0,0 l/m 19,6 km/h (3 Bft) O 80 0 min 0,000 mm 0,0 UV-I 78 W/m 0,2 C -3,5 C 25,7 km/h (4 Bft) 100,00 %
02.04.2016 07:46 4,6 C 73 % 1020,0 hPa 0,0 l/m 22,6 km/h (4 Bft) O-NO 67 0 min 0,000 mm 0,0 UV-I 80 W/m 0,2 C -4,7 C 29,0 km/h (5 Bft) 96,30 %
02.04.2016 07:47 4,6 C 73 % 1020,0 hPa 0,0 l/m 19,3 km/h (3 Bft) NO 48 0 min 0,000 mm 0,0 UV-I 84 W/m 0,2 C -3,4 C 25,7 km/h (4 Bft) 96,55 %
02.04.2016 07:48 4,6 C 73 % 1020,0 hPa 0,0 l/m 18,7 km/h (3 Bft) O-NO 69 0 min 0,000 mm 0,0 UV-I 86 W/m 0,2 C -3,2 C 24,1 km/h (4 Bft) 100,00 %
02.04.2016 07:49 4,6 C 73 % 1020,0 hPa 0,0 l/m 23,0 km/h (4 Bft) O-NO 59 0 min 0,000 mm 0,0 UV-I 88 W/m 0,2 C -4,8 C 32,2 km/h (5 Bft) 100,00 %
02.04.2016 07:50 4,6 C 73 % 1020,0 hPa 0,0 l/m 24,0 km/h (4 Bft) O-NO 59 0 min 0,000 mm 0,0 UV-I 90 W/m 0,2 C -5,2 C 29,0 km/h (5 Bft) 100,00 %
02.04.2016 07:51 4,6 C 72 % 1020,0 hPa 0,0 l/m 26,1 km/h (4 Bft) O-NO 59 0 min 0,000 mm 0,0 UV-I 91 W/m -0,0 C -5,8 C 33,8 km/h (5 Bft) 100,00 %
02.04.2016 07:52 4,7 C 72 % 1020,0 hPa 0,0 l/m 23,7 km/h (4 Bft) O-NO 76 0 min 0,000 mm 0,0 UV-I 92 W/m 0,1 C -4,9 C 30,6 km/h (5 Bft) 96,30 %
02.04.2016 07:53 4,7 C 72 % 1020,0 hPa 0,0 l/m 26,0 km/h (4 Bft) O-NO 67 0 min 0,000 mm 0,0 UV-I 94 W/m 0,1 C -5,7 C 32,2 km/h (5 Bft) 100,00 %
02.04.2016 07:54 4,7 C 72 % 1020,0 hPa 0,0 l/m 24,5 km/h (4 Bft) O-NO 63 0 min 0,000 mm 0,0 UV-I 95 W/m 0,1 C -5,2 C 30,6 km/h (5 Bft) 100,00 %
02.04.2016 07:55 4,7 C 73 % 1020,0 hPa 0,0 l/m 21,8 km/h (4 Bft) NO 45 0 min 0,000 mm 0,0 UV-I 95 W/m 0,3 C -4,3 C 29,0 km/h (5 Bft) 100,00 %
02.04.2016 07:56 4,7 C 72 % 1020,0 hPa 0,0 l/m 20,4 km/h (4 Bft) O-NO 63 0 min 0,000 mm 0,0 UV-I 97 W/m 0,1 C -3,7 C 24,1 km/h (4 Bft) 100,00 %
02.04.2016 07:57 4,7 C 72 % 1020,1 hPa 0,0 l/m 24,2 km/h (4 Bft) NO 51 0 min 0,000 mm 0,0 UV-I 97 W/m 0,1 C -5,1 C 30,6 km/h (5 Bft) 100,00 %
02.04.2016 07:58 4,7 C 72 % 1020,1 hPa 0,0 l/m 21,5 km/h (4 Bft) NO 53 0 min 0,000 mm 0,0 UV-I 98 W/m 0,1 C -4,1 C 27,4 km/h (4 Bft) 96,97 %
02.04.2016 07:59 4,7 C 73 % 1020,0 hPa 0,0 l/m 20,3 km/h (4 Bft) O-NO 63 0 min 0,000 mm 0,0 UV-I 99 W/m 0,3 C -3,7 C 25,7 km/h (4 Bft) 100,00 %
02.04.2016 08:00 4,7 C 73 % 1020,1 hPa 0,0 l/m 19,8 km/h (3 Bft) O-NO 77 0 min 0,076 mm 0,0 UV-I 101 W/m 0,3 C -3,5 C 27,4 km/h (4 Bft) 100,00 %
02.04.2016 08:01 4,7 C 73 % 1020,1 hPa 0,0 l/m 17,8 km/h (3 Bft) NO 49 0 min 0,000 mm 0,0 UV-I 102 W/m 0,3 C -2,6 C 29,0 km/h (5 Bft) 100,00 %
02.04.2016 08:02 4,8 C 72 % 1020,1 hPa 0,0 l/m 25,4 km/h (4 Bft) O-NO 70 0 min 0,000 mm 0,0 UV-I 104 W/m 0,2 C -5,3 C 32,2 km/h (5 Bft) 100,00 %
02.04.2016 08:03 4,8 C 72 % 1020,1 hPa 0,0 l/m 23,9 km/h (4 Bft) O-NO 65 0 min 0,000 mm 0,0 UV-I 104 W/m 0,2 C -4,9 C 30,6 km/h (5 Bft) 100,00 %
02.04.2016 08:04 4,8 C 72 % 1020,1 hPa 0,0 l/m 27,5 km/h (4 Bft) NO 36 0 min 0,000 mm 0,0 UV-I 105 W/m 0,2 C -6,0 C 33,8 km/h (5 Bft) 100,00 %
02.04.2016 08:05 4,8 C 72 % 1020,1 hPa 0,0 l/m 28,3 km/h (4 Bft) NO 48 0 min 0,000 mm 0,0 UV-I 106 W/m 0,2 C -6,2 C 33,8 km/h (5 Bft) 97,56 %
02.04.2016 08:06 4,8 C 72 % 1020,1 hPa 0,0 l/m 22,4 km/h (4 Bft) O-NO 69 0 min 0,000 mm 0,0 UV-I 107 W/m 0,2 C -4,3 C 27,4 km/h (4 Bft) 100,00 %
02.04.2016 08:07 4,8 C 72 % 1020,1 hPa 0,0 l/m 21,3 km/h (4 Bft) NO 46 0 min 0,000 mm 0,0 UV-I 107 W/m 0,2 C -3,9 C 29,0 km/h (5 Bft) 100,00 %
02.04.2016 08:08 4,8 C 72 % 1020,1 hPa 0,0 l/m 15,1 km/h (3 Bft) O-NO 69 0 min 0,000 mm 0,0 UV-I 109 W/m 0,2 C -1,2 C 19,3 km/h (3 Bft) 100,00 %
02.04.2016 08:09 4,8 C 72 % 1020,1 hPa 0,0 l/m 21,3 km/h (4 Bft) O-NO 57 0 min 0,000 mm 0,0 UV-I 108 W/m 0,2 C -3,9 C 29,0 km/h (5 Bft) 100,00 %
02.04.2016 08:10 4,8 C 72 % 1020,1 hPa 0,0 l/m 18,3 km/h (3 Bft) O-NO 59 0 min 0,000 mm 0,0 UV-I 110 W/m 0,2 C -2,7 C 24,1 km/h (4 Bft) 93,75 %
02.04.2016 08:11 4,8 C 73 % 1020,1 hPa 0,0 l/m 22,9 km/h (4 Bft) O-NO 74 0 min 0,000 mm 0,0 UV-I 112 W/m 0,4 C -4,5 C 30,6 km/h (5 Bft) 100,00 %
02.04.2016 08:12 4,8 C 72 % 1020,1 hPa 0,0 l/m 24,7 km/h (4 Bft) O 92 0 min 0,000 mm 0,0 UV-I 114 W/m 0,2 C -5,1 C 30,6 km/h (5 Bft) 100,00 %
02.04.2016 08:13 4,8 C 72 % 1020,2 hPa 0,0 l/m 22,2 km/h (4 Bft) O-NO 67 0 min 0,000 mm 0,0 UV-I 118 W/m 0,2 C -4,3 C 27,4 km/h (4 Bft) 100,00 %
02.04.2016 08:14 4,8 C 72 % 1020,2 hPa 0,0 l/m 24,5 km/h (4 Bft) O-NO 57 0 min 0,000 mm 0,0 UV-I 121 W/m 0,2 C -5,1 C 33,8 km/h (5 Bft) 100,00 %
02.04.2016 08:15 4,8 C 72 % 1020,2 hPa 0,0 l/m 21,1 km/h (4 Bft) O-NO 73 0 min 0,000 mm 0,0 UV-I 124 W/m 0,2 C -3,9 C 30,6 km/h (5 Bft) 100,00 %
02.04.2016 08:16 4,9 C 72 % 1020,2 hPa 0,0 l/m 21,5 km/h (4 Bft) O-NO 58 0 min 0,000 mm 0,0 UV-I 124 W/m 0,3 C -3,9 C 29,0 km/h (5 Bft) 100,00 %
02.04.2016 08:17 4,9 C 72 % 1020,2 hPa 0,0 l/m 17,8 km/h (3 Bft) NO 51 0 min 0,000 mm 0,0 UV-I 123 W/m 0,3 C -2,4 C 24,1 km/h (4 Bft) 100,00 %
02.04.2016 08:18 4,9 C 72 % 1020,2 hPa 0,0 l/m 20,2 km/h (4 Bft) O-NO 76 0 min 0,000 mm 0,0 UV-I 126 W/m 0,3 C -3,4 C 25,7 km/h (4 Bft) 100,00 %
02.04.2016 08:19 4,9 C 72 % 1020,1 hPa 0,0 l/m 15,8 km/h (3 Bft) NO 48 0 min 0,000 mm 0,0 UV-I 128 W/m 0,3 C -1,4 C 27,4 km/h (4 Bft) 100,00 %
02.04.2016 08:20 4,9 C 73 % 1020,1 hPa 0,0 l/m 18,7 km/h (3 Bft) O-NO 71 0 min 0,000 mm 0,0 UV-I 128 W/m 0,5 C -2,8 C 24,1 km/h (4 Bft) 100,00 %
02.04.2016 08:21 4,9 C 72 % 1020,1 hPa 0,0 l/m 24,5 km/h (4 Bft) O 81 0 min 0,000 mm 0,0 UV-I 128 W/m 0,3 C -4,9 C 33,8 km/h (5 Bft) 100,00 %
02.04.2016 08:22 4,9 C 72 % 1020,1 hPa 0,0 l/m 25,6 km/h (4 Bft) NO 47 0 min 0,000 mm 0,0 UV-I 135 W/m 0,3 C -5,3 C 32,2 km/h (5 Bft) 100,00 %
02.04.2016 08:23 4,9 C 72 % 1020,1 hPa 0,0 l/m 16,2 km/h (3 Bft) NO 49 0 min 0,000 mm 0,0 UV-I 138 W/m 0,3 C -1,6 C 22,5 km/h (4 Bft) 100,00 %
02.04.2016 08:24 4,9 C 73 % 1020,1 hPa 0,0 l/m 19,5 km/h (3 Bft) O-NO 64 0 min 0,000 mm 0,0 UV-I 145 W/m 0,5 C -3,1 C 25,7 km/h (4 Bft) 100,00 %
02.04.2016 08:25 5,0 C 73 % 1020,2 hPa 0,0 l/m 21,5 km/h (4 Bft) NO 44 0 min 0,000 mm 0,0 UV-I 153 W/m 0,6 C -3,7 C 29,0 km/h (5 Bft) 100,00 %
02.04.2016 08:26 5,0 C 72 % 1020,2 hPa 0,0 l/m 26,8 km/h (4 Bft) O-NO 72 0 min 0,000 mm 0,0 UV-I 157 W/m 0,4 C -5,5 C 33,8 km/h (5 Bft) 100,00 %
02.04.2016 08:27 5,0 C 71 % 1020,2 hPa 0,0 l/m 23,9 km/h (4 Bft) O-NO 59 0 min 0,000 mm 0,0 UV-I 161 W/m 0,2 C -4,6 C 30,6 km/h (5 Bft) 100,00 %
02.04.2016 08:28 5,0 C 72 % 1020,1 hPa 0,0 l/m 19,6 km/h (3 Bft) O-NO 62 1 min 0,000 mm 0,0 UV-I 164 W/m 0,4 C -3,0 C 27,4 km/h (4 Bft) 100,00 %
02.04.2016 08:29 5,1 C 72 % 1020,2 hPa 0,0 l/m 19,2 km/h (3 Bft) O-NO 67 0 min 0,000 mm 0,0 UV-I 163 W/m 0,5 C -2,7 C 33,8 km/h (5 Bft) 100,00 %
02.04.2016 08:30 5,1 C 71 % 1020,1 hPa 0,0 l/m 20,1 km/h (4 Bft) O-NO 65 0 min 0,000 mm 0,0 UV-I 159 W/m 0,3 C -3,1 C 29,0 km/h (5 Bft) 100,00 %
02.04.2016 08:31 5,1 C 72 % 1020,2 hPa 0,0 l/m 21,8 km/h (4 Bft) O 81 0 min 0,000 mm 0,0 UV-I 164 W/m 0,5 C -3,7 C 27,4 km/h (4 Bft) 92,86 %
02.04.2016 08:32 5,1 C 72 % 1020,2 hPa 0,0 l/m 21,8 km/h (4 Bft) O-NO 69 1 min 0,000 mm 0,0 UV-I 170 W/m 0,5 C -3,7 C 33,8 km/h (5 Bft) 100,00 %
02.04.2016 08:33 5,1 C 72 % 1020,2 hPa 0,0 l/m 24,3 km/h (4 Bft) O-NO 61 1 min 0,000 mm 0,0 UV-I 174 W/m 0,5 C -4,6 C 32,2 km/h (5 Bft) 100,00 %
02.04.2016 08:34 5,1 C 72 % 1020,2 hPa 0,0 l/m 24,4 km/h (4 Bft) NO 49 1 min 0,000 mm 0,0 UV-I 180 W/m 0,5 C -4,6 C 30,6 km/h (5 Bft) 100,00 %
02.04.2016 08:35 5,1 C 72 % 1020,2 hPa 0,0 l/m 20,4 km/h (4 Bft) O-NO 74 1 min 0,000 mm 0,0 UV-I 187 W/m 0,5 C -3,2 C 25,7 km/h (4 Bft) 96,55 %
02.04.2016 08:36 5,1 C 72 % 1020,2 hPa 0,0 l/m 20,4 km/h (4 Bft) O-SO 113 1 min 0,000 mm 0,0 UV-I 194 W/m 0,5 C -3,2 C 27,4 km/h (4 Bft) 100,00 %
02.04.2016 08:37 5,2 C 72 % 1020,2 hPa 0,0 l/m 20,5 km/h (4 Bft) O-NO 67 1 min 0,000 mm 0,0 UV-I 199 W/m 0,6 C -3,1 C 25,7 km/h (4 Bft) 100,00 %
02.04.2016 08:38 5,2 C 72 % 1020,2 hPa 0,0 l/m 19,5 km/h (3 Bft) O-NO 77 1 min 0,000 mm 0,0 UV-I 201 W/m 0,6 C -2,7 C 27,4 km/h (4 Bft) 100,00 %
02.04.2016 08:39 5,2 C 72 % 1020,3 hPa 0,0 l/m 16,3 km/h (3 Bft) O-NO 61 1 min 0,000 mm 0,0 UV-I 206 W/m 0,6 C -1,3 C 22,5 km/h (4 Bft) 100,00 %
02.04.2016 08:40 5,2 C 72 % 1020,3 hPa 0,0 l/m 19,4 km/h (3 Bft) O-NO 66 1 min 0,000 mm 0,2 UV-I 210 W/m 0,6 C -2,7 C 27,4 km/h (4 Bft) 95,83 %
02.04.2016 08:41 5,3 C 72 % 1020,3 hPa 0,0 l/m 18,2 km/h (3 Bft) NO 56 1 min 0,000 mm 0,5 UV-I 214 W/m 0,7 C -2,0 C 27,4 km/h (4 Bft) 95,65 %
02.04.2016 08:42 5,3 C 72 % 1020,3 hPa 0,0 l/m 22,9 km/h (4 Bft) O-NO 60 1 min 0,000 mm 0,5 UV-I 218 W/m 0,7 C -3,8 C 29,0 km/h (5 Bft) 100,00 %
02.04.2016 08:43 5,3 C 72 % 1020,3 hPa 0,0 l/m 19,4 km/h (3 Bft) O-NO 65 1 min 0,000 mm 0,5 UV-I 221 W/m 0,7 C -2,5 C 24,1 km/h (4 Bft) 100,00 %
02.04.2016 08:44 5,3 C 73 % 1020,3 hPa 0,0 l/m 19,2 km/h (3 Bft) O 84 1 min 0,000 mm 0,5 UV-I 224 W/m 0,9 C -2,5 C 24,1 km/h (4 Bft) 100,00 %
02.04.2016 08:45 5,4 C 73 % 1020,2 hPa 0,0 l/m 20,8 km/h (4 Bft) O-NO 71 1 min 0,000 mm 0,5 UV-I 228 W/m 1,0 C -3,0 C 27,4 km/h (4 Bft) 100,00 %
02.04.2016 08:46 5,4 C 72 % 1020,2 hPa 0,0 l/m 20,7 km/h (4 Bft) O-NO 58 1 min 0,000 mm 0,5 UV-I 230 W/m 0,8 C -2,9 C 27,4 km/h (4 Bft) 100,00 %
02.04.2016 08:47 5,4 C 72 % 1020,2 hPa 0,0 l/m 24,0 km/h (4 Bft) NO 52 1 min 0,000 mm 0,5 UV-I 230 W/m 0,8 C -4,1 C 30,6 km/h (5 Bft) 100,00 %
02.04.2016 08:48 5,4 C 72 % 1020,2 hPa 0,0 l/m 21,1 km/h (4 Bft) O-NO 62 1 min 0,000 mm 0,5 UV-I 232 W/m 0,8 C -3,1 C 27,4 km/h (4 Bft) 100,00 %
02.04.2016 08:49 5,4 C 72 % 1020,2 hPa 0,0 l/m 21,6 km/h (4 Bft) O-NO 69 1 min 0,000 mm 0,5 UV-I 235 W/m 0,8 C -3,3 C 30,6 km/h (5 Bft) 100,00 %
02.04.2016 08:50 5,4 C 71 % 1020,2 hPa 0,0 l/m 21,9 km/h (4 Bft) O-NO 59 1 min 0,000 mm 0,5 UV-I 238 W/m 0,6 C -3,4 C 29,0 km/h (5 Bft) 100,00 %
02.04.2016 08:51 5,5 C 71 % 1020,3 hPa 0,0 l/m 14,3 km/h (3 Bft) O-NO 63 1 min 0,000 mm 0,5 UV-I 237 W/m 0,7 C 0,0 C 19,3 km/h (3 Bft) 100,00 %
02.04.2016 08:52 5,5 C 71 % 1020,3 hPa 0,0 l/m 23,0 km/h (4 Bft) NO 53 1 min 0,000 mm 0,5 UV-I 236 W/m 0,7 C -3,6 C 29,0 km/h (5 Bft) 100,00 %
02.04.2016 08:53 5,5 C 71 % 1020,3 hPa 0,0 l/m 23,7 km/h (4 Bft) O-NO 58 1 min 0,000 mm 0,6 UV-I 237 W/m 0,7 C -3,8 C 29,0 km/h (5 Bft) 100,00 %
02.04.2016 08:54 5,5 C 70 % 1020,3 hPa 0,0 l/m 24,7 km/h (4 Bft) NO 50 1 min 0,000 mm 0,6 UV-I 243 W/m 0,5 C -4,2 C 32,2 km/h (5 Bft) 100,00 %
02.04.2016 08:55 5,5 C 71 % 1020,3 hPa 0,0 l/m 20,2 km/h (4 Bft) O-NO 64 1 min 0,000 mm 0,6 UV-I 239 W/m 0,7 C -2,6 C 25,7 km/h (4 Bft) 100,00 %
02.04.2016 08:56 5,5 C 71 % 1020,3 hPa 0,0 l/m 20,2 km/h (4 Bft) O-NO 70 1 min 0,000 mm 0,6 UV-I 241 W/m 0,7 C -2,6 C 25,7 km/h (4 Bft) 100,00 %
02.04.2016 08:57 5,6 C 71 % 1020,3 hPa 0,0 l/m 19,2 km/h (3 Bft) O-NO 65 1 min 0,000 mm 0,6 UV-I 249 W/m 0,8 C -2,1 C 24,1 km/h (4 Bft) 100,00 %
02.04.2016 08:58 5,6 C 71 % 1020,3 hPa 0,0 l/m 17,6 km/h (3 Bft) O-NO 73 1 min 0,000 mm 0,6 UV-I 256 W/m 0,8 C -1,4 C 24,1 km/h (4 Bft) 100,00 %
02.04.2016 08:59 5,6 C 71 % 1020,3 hPa 0,0 l/m 21,4 km/h (4 Bft) NO 49 1 min 0,000 mm 0,6 UV-I 261 W/m 0,8 C -2,9 C 29,0 km/h (5 Bft) 100,00 %
02.04.2016 09:00 5,6 C 71 % 1020,3 hPa 0,0 l/m 21,1 km/h (4 Bft) N-NO 19 1 min 0,127 mm 0,6 UV-I 269 W/m 0,8 C -2,8 C 25,7 km/h (4 Bft) 100,00 %
02.04.2016 09:02 5,7 C 72 % 1020,3 hPa 0,0 l/m 20,0 km/h (4 Bft) O-NO 69 2 min 0,000 mm 0,6 UV-I 278 W/m 1,1 C -2,3 C 27,4 km/h (4 Bft) 98,11 %
02.04.2016 09:03 5,7 C 71 % 1020,3 hPa 0,0 l/m 17,1 km/h (3 Bft) O-NO 57 1 min 0,000 mm 0,7 UV-I 279 W/m 0,9 C -1,1 C 20,9 km/h (4 Bft) 96,30 %
02.04.2016 09:04 5,7 C 72 % 1020,4 hPa 0,0 l/m 14,8 km/h (3 Bft) O-NO 61 1 min 0,000 mm 0,7 UV-I 282 W/m 1,1 C 0,0 C 20,9 km/h (4 Bft) 91,30 %
02.04.2016 09:05 5,8 C 72 % 1020,4 hPa 0,0 l/m 22,3 km/h (4 Bft) O-NO 62 1 min 0,000 mm 0,7 UV-I 280 W/m 1,2 C -3,0 C 29,0 km/h (5 Bft) 100,00 %
02.04.2016 09:06 5,8 C 72 % 1020,4 hPa 0,0 l/m 24,9 km/h (4 Bft) O-NO 76 1 min 0,000 mm 0,7 UV-I 283 W/m 1,2 C -3,8 C 30,6 km/h (5 Bft) 96,30 %
02.04.2016 09:07 5,8 C 72 % 1020,4 hPa 0,0 l/m 23,9 km/h (4 Bft) O-NO 61 1 min 0,000 mm 0,7 UV-I 289 W/m 1,2 C -3,5 C 29,0 km/h (5 Bft) 100,00 %
02.04.2016 09:08 5,9 C 72 % 1020,4 hPa 0,0 l/m 22,9 km/h (4 Bft) O-NO 71 1 min 0,000 mm 0,7 UV-I 297 W/m 1,2 C -3,0 C 29,0 km/h (5 Bft) 95,83 %
02.04.2016 09:09 5,9 C 71 % 1020,4 hPa 0,0 l/m 19,2 km/h (3 Bft) NO 51 1 min 0,000 mm 0,7 UV-I 300 W/m 1,1 C -1,7 C 24,1 km/h (4 Bft) 95,65 %
02.04.2016 09:10 5,9 C 71 % 1020,4 hPa 0,0 l/m 24,9 km/h (4 Bft) O-NO 65 1 min 0,000 mm 0,7 UV-I 305 W/m 1,1 C -3,7 C 30,6 km/h (5 Bft) 96,30 %
02.04.2016 09:11 5,9 C 70 % 1020,4 hPa 0,0 l/m 23,2 km/h (4 Bft) O-NO 67 1 min 0,000 mm 0,7 UV-I 312 W/m 0,9 C -3,1 C 29,0 km/h (5 Bft) 100,00 %
02.04.2016 09:12 5,9 C 70 % 1020,4 hPa 0,0 l/m 20,5 km/h (4 Bft) O-NO 67 1 min 0,000 mm 0,8 UV-I 316 W/m 0,9 C -2,2 C 24,1 km/h (4 Bft) 95,83 %
02.04.2016 09:13 5,9 C 71 % 1020,5 hPa 0,0 l/m 20,1 km/h (4 Bft) NO 55 1 min 0,000 mm 0,8 UV-I 316 W/m 1,1 C -2,0 C 27,4 km/h (4 Bft) 95,65 %
02.04.2016 09:14 5,9 C 71 % 1020,4 hPa 0,0 l/m 20,5 km/h (4 Bft) O-NO 61 1 min 0,000 mm 0,8 UV-I 317 W/m 1,1 C -2,2 C 29,0 km/h (5 Bft) 100,00 %
02.04.2016 09:15 5,9 C 71 % 1020,4 hPa 0,0 l/m 23,8 km/h (4 Bft) NO 36 1 min 0,000 mm 0,8 UV-I 317 W/m 1,1 C -3,3 C 30,6 km/h (5 Bft) 92,31 %
02.04.2016 09:16 5,9 C 70 % 1020,4 hPa 0,0 l/m 22,1 km/h (4 Bft) O-NO 57 1 min 0,000 mm 0,8 UV-I 316 W/m 0,9 C -2,8 C 27,4 km/h (4 Bft) 100,00 %
02.04.2016 09:17 5,9 C 71 % 1020,5 hPa 0,0 l/m 18,0 km/h (3 Bft) O-NO 63 1 min 0,000 mm 0,8 UV-I 313 W/m 1,1 C -1,2 C 24,1 km/h (4 Bft) 95,65 %
02.04.2016 09:18 5,9 C 71 % 1020,5 hPa 0,0 l/m 17,9 km/h (3 Bft) O-NO 59 1 min 0,000 mm 0,8 UV-I 312 W/m 1,1 C -1,2 C 22,5 km/h (4 Bft) 100,00 %
02.04.2016 09:19 5,9 C 70 % 1020,5 hPa 0,0 l/m 18,4 km/h (3 Bft) NO 47 1 min 0,000 mm 0,8 UV-I 313 W/m 0,9 C -1,4 C 24,1 km/h (4 Bft) 95,65 %
02.04.2016 09:20 5,9 C 70 % 1020,5 hPa 0,0 l/m 20,6 km/h (4 Bft) O-NO 71 1 min 0,000 mm 0,8 UV-I 325 W/m 0,9 C -2,2 C 27,4 km/h (4 Bft) 100,00 %
02.04.2016 09:21 5,9 C 72 % 1020,5 hPa 0,0 l/m 18,7 km/h (3 Bft) NO 37 1 min 0,000 mm 0,8 UV-I 328 W/m 1,2 C -1,5 C 24,1 km/h (4 Bft) 95,83 %
02.04.2016 09:22 5,9 C 72 % 1020,4 hPa 0,0 l/m 21,8 km/h (4 Bft) O-NO 61 1 min 0,000 mm 0,9 UV-I 326 W/m 1,2 C -2,7 C 32,2 km/h (5 Bft) 100,00 %
02.04.2016 09:23 6,0 C 71 % 1020,4 hPa 0,0 l/m 25,5 km/h (4 Bft) O-NO 69 1 min 0,000 mm 0,9 UV-I 325 W/m 1,1 C -3,7 C 30,6 km/h (5 Bft) 95,83 %
02.04.2016 09:24 6,0 C 71 % 1020,4 hPa 0,0 l/m 23,4 km/h (4 Bft) O-NO 58 1 min 0,000 mm 0,9 UV-I 330 W/m 1,1 C -3,1 C 29,0 km/h (5 Bft) 95,65 %
02.04.2016 09:25 6,0 C 70 % 1020,4 hPa 0,0 l/m 23,3 km/h (4 Bft) NO 56 1 min 0,000 mm 0,9 UV-I 332 W/m 1,0 C -3,0 C 29,0 km/h (5 Bft) 100,00 %
02.04.2016 09:26 6,1 C 70 % 1020,4 hPa 0,0 l/m 22,5 km/h (4 Bft) O-NO 69 1 min 0,000 mm 0,9 UV-I 333 W/m 1,0 C -2,6 C 30,6 km/h (5 Bft) 96,15 %
02.04.2016 09:27 6,1 C 70 % 1020,4 hPa 0,0 l/m 22,7 km/h (4 Bft) O-NO 69 1 min 0,000 mm 0,9 UV-I 325 W/m 1,0 C -2,7 C 25,7 km/h (4 Bft) 95,83 %
02.04.2016 09:28 6,1 C 71 % 1020,4 hPa 0,0 l/m 19,9 km/h (4 Bft) NO 44 1 min 0,000 mm 0,9 UV-I 319 W/m 1,2 C -1,7 C 27,4 km/h (4 Bft) 95,65 %
02.04.2016 09:29 6,1 C 71 % 1020,4 hPa 0,0 l/m 22,6 km/h (4 Bft) NO 49 1 min 0,000 mm 0,9 UV-I 333 W/m 1,2 C -2,7 C 30,6 km/h (5 Bft) 95,83 %
02.04.2016 09:30 6,1 C 69 % 1020,3 hPa 0,0 l/m 23,7 km/h (4 Bft) O 86 1 min 0,000 mm 0,9 UV-I 338 W/m 0,8 C -3,0 C 32,2 km/h (5 Bft) 100,00 %
02.04.2016 09:31 6,1 C 70 % 1020,4 hPa 0,0 l/m 17,6 km/h (3 Bft) O-NO 73 1 min 0,000 mm 0,9 UV-I 339 W/m 1,0 C -0,8 C 27,4 km/h (4 Bft) 95,83 %
02.04.2016 09:32 6,1 C 70 % 1020,3 hPa 0,0 l/m 23,4 km/h (4 Bft) NO 53 1 min 0,000 mm 1,0 UV-I 338 W/m 1,0 C -2,9 C 27,4 km/h (4 Bft) 100,00 %
02.04.2016 09:33 6,1 C 71 % 1020,4 hPa 0,0 l/m 19,6 km/h (3 Bft) O-NO 61 1 min 0,000 mm 1,0 UV-I 338 W/m 1,2 C -1,6 C 24,1 km/h (4 Bft) 100,00 %
02.04.2016 09:34 6,1 C 71 % 1020,4 hPa 0,0 l/m 21,9 km/h (4 Bft) NO 46 1 min 0,000 mm 1,0 UV-I 339 W/m 1,2 C -2,4 C 27,4 km/h (4 Bft) 100,00 %
02.04.2016 09:35 6,1 C 71 % 1020,3 hPa 0,0 l/m 16,9 km/h (3 Bft) NO 48 1 min 0,000 mm 1,0 UV-I 346 W/m 1,2 C -0,5 C 25,7 km/h (4 Bft) 100,00 %
02.04.2016 09:36 6,2 C 71 % 1020,4 hPa 0,0 l/m 17,8 km/h (3 Bft) O-NO 62 1 min 0,000 mm 1,0 UV-I 350 W/m 1,3 C -0,7 C 25,7 km/h (4 Bft) 100,00 %
02.04.2016 09:37 6,2 C 71 % 1020,3 hPa 0,0 l/m 21,3 km/h (4 Bft) O-NO 64 1 min 0,000 mm 1,0 UV-I 353 W/m 1,3 C -2,1 C 27,4 km/h (4 Bft) 100,00 %
02.04.2016 09:38 6,2 C 71 % 1020,3 hPa 0,0 l/m 20,4 km/h (4 Bft) O-NO 59 1 min 0,000 mm 1,0 UV-I 357 W/m 1,3 C -1,8 C 25,7 km/h (4 Bft) 100,00 %
02.04.2016 09:39 6,2 C 71 % 1020,3 hPa 0,0 l/m 22,2 km/h (4 Bft) NO 52 1 min 0,000 mm 1,0 UV-I 359 W/m 1,3 C -2,4 C 33,8 km/h (5 Bft) 100,00 %
02.04.2016 09:40 6,2 C 71 % 1020,3 hPa 0,0 l/m 21,3 km/h (4 Bft) NO 40 1 min 0,000 mm 1,1 UV-I 356 W/m 1,3 C -2,1 C 25,7 km/h (4 Bft) 95,65 %
02.04.2016 09:41 6,2 C 70 % 1020,3 hPa 0,0 l/m 23,8 km/h (4 Bft) O-NO 67 1 min 0,000 mm 1,1 UV-I 362 W/m 1,1 C -2,9 C 30,6 km/h (5 Bft) 100,00 %
02.04.2016 09:42 6,2 C 70 % 1020,3 hPa 0,0 l/m 21,1 km/h (4 Bft) NO 55 1 min 0,000 mm 1,1 UV-I 367 W/m 1,1 C -2,0 C 24,1 km/h (4 Bft) 100,00 %
02.04.2016 09:43 6,2 C 71 % 1020,3 hPa 0,0 l/m 21,8 km/h (4 Bft) O-NO 63 1 min 0,000 mm 1,1 UV-I 363 W/m 1,3 C -2,3 C 25,7 km/h (4 Bft) 100,00 %
02.04.2016 09:44 6,2 C 71 % 1020,3 hPa 0,0 l/m 21,1 km/h (4 Bft) NO 51 1 min 0,000 mm 1,1 UV-I 362 W/m 1,3 C -2,0 C 27,4 km/h (4 Bft) 95,65 %
02.04.2016 09:45 6,2 C 71 % 1020,3 hPa 0,0 l/m 22,1 km/h (4 Bft) N-NO 28 1 min 0,000 mm 1,1 UV-I 368 W/m 1,3 C -2,4 C 25,7 km/h (4 Bft) 100,00 %
02.04.2016 09:46 6,3 C 70 % 1020,3 hPa 0,0 l/m 21,6 km/h (4 Bft) O-NO 58 1 min 0,000 mm 1,1 UV-I 372 W/m 1,2 C -2,1 C 25,7 km/h (4 Bft) 100,00 %
02.04.2016 09:47 6,3 C 71 % 1020,3 hPa 0,0 l/m 24,1 km/h (4 Bft) NO 49 1 min 0,000 mm 1,1 UV-I 376 W/m 1,4 C -2,9 C 29,0 km/h (5 Bft) 100,00 %
02.04.2016 09:48 6,3 C 70 % 1020,3 hPa 0,0 l/m 20,8 km/h (4 Bft) O-NO 76 1 min 0,000 mm 1,2 UV-I 379 W/m 1,2 C -1,8 C 25,7 km/h (4 Bft) 100,00 %
02.04.2016 09:49 6,3 C 71 % 1020,3 hPa 0,0 l/m 18,7 km/h (3 Bft) NO 49 1 min 0,000 mm 1,2 UV-I 384 W/m 1,4 C -1,0 C 22,5 km/h (4 Bft) 100,00 %
02.04.2016 09:50 6,3 C 72 % 1020,3 hPa 0,0 l/m 17,6 km/h (3 Bft) NO 53 1 min 0,000 mm 1,2 UV-I 392 W/m 1,6 C -0,5 C 22,5 km/h (4 Bft) 100,00 %
02.04.2016 09:51 6,4 C 71 % 1020,3 hPa 0,0 l/m 20,0 km/h (4 Bft) O-NO 59 1 min 0,000 mm 1,2 UV-I 398 W/m 1,5 C -1,4 C 25,7 km/h (4 Bft) 100,00 %
02.04.2016 09:52 6,4 C 71 % 1020,3 hPa 0,0 l/m 20,3 km/h (4 Bft) O-NO 59 1 min 0,000 mm 1,2 UV-I 401 W/m 1,5 C -1,5 C 24,1 km/h (4 Bft) 100,00 %
02.04.2016 09:53 6,4 C 71 % 1020,4 hPa 0,0 l/m 21,0 km/h (4 Bft) O-NO 57 1 min 0,000 mm 1,2 UV-I 404 W/m 1,5 C -1,7 C 24,1 km/h (4 Bft) 100,00 %
02.04.2016 09:54 6,4 C 71 % 1020,4 hPa 0,0 l/m 18,0 km/h (3 Bft) O-NO 65 1 min 0,000 mm 1,2 UV-I 407 W/m 1,5 C -0,6 C 20,9 km/h (4 Bft) 100,00 %
02.04.2016 09:55 6,5 C 72 % 1020,3 hPa 0,0 l/m 18,2 km/h (3 Bft) O-NO 65 1 min 0,000 mm 1,3 UV-I 406 W/m 1,8 C -0,5 C 25,7 km/h (4 Bft) 100,00 %
02.04.2016 09:56 6,6 C 71 % 1020,3 hPa 0,0 l/m 22,0 km/h (4 Bft) O-NO 63 1 min 0,000 mm 1,3 UV-I 408 W/m 1,7 C -1,8 C 25,7 km/h (4 Bft) 95,83 %
02.04.2016 09:57 6,6 C 70 % 1020,3 hPa 0,0 l/m 24,7 km/h (4 Bft) NO 51 1 min 0,000 mm 1,3 UV-I 411 W/m 1,5 C -2,7 C 29,0 km/h (5 Bft) 100,00 %
02.04.2016 09:58 6,6 C 71 % 1020,3 hPa 0,0 l/m 22,1 km/h (4 Bft) NO 49 1 min 0,000 mm 1,3 UV-I 414 W/m 1,7 C -1,9 C 29,0 km/h (5 Bft) 100,00 %
02.04.2016 09:59 6,6 C 70 % 1020,3 hPa 0,0 l/m 17,0 km/h (3 Bft) O-NO 61 1 min 0,000 mm 1,3 UV-I 417 W/m 1,5 C 0,1 C 22,5 km/h (4 Bft) 100,00 %
02.04.2016 10:00 6,6 C 71 % 1020,3 hPa 0,0 l/m 20,8 km/h (4 Bft) NO 56 1 min 0,203 mm 1,3 UV-I 421 W/m 1,7 C -1,4 C 25,7 km/h (4 Bft) 100,00 %
02.04.2016 10:01 6,6 C 70 % 1020,3 hPa 0,0 l/m 20,6 km/h (4 Bft) O-NO 59 1 min 0,000 mm 1,3 UV-I 426 W/m 1,5 C -1,3 C 25,7 km/h (4 Bft) 100,00 %
02.04.2016 10:02 6,6 C 70 % 1020,3 hPa 0,0 l/m 21,7 km/h (4 Bft) NO 55 1 min 0,000 mm 1,3 UV-I 431 W/m 1,5 C -1,7 C 29,0 km/h (5 Bft) 100,00 %
02.04.2016 10:03 6,7 C 70 % 1020,3 hPa 0,0 l/m 17,6 km/h (3 Bft) O-NO 65 1 min 0,000 mm 1,4 UV-I 433 W/m 1,6 C -0,0 C 22,5 km/h (4 Bft) 100,00 %
02.04.2016 10:04 6,7 C 71 % 1020,3 hPa 0,0 l/m 22,1 km/h (4 Bft) O-NO 65 1 min 0,000 mm 1,4 UV-I 436 W/m 1,8 C -1,7 C 30,6 km/h (5 Bft) 100,00 %
02.04.2016 10:05 6,7 C 70 % 1020,3 hPa 0,0 l/m 20,0 km/h (4 Bft) O-NO 69 1 min 0,000 mm 1,4 UV-I 432 W/m 1,6 C -1,0 C 24,1 km/h (4 Bft) 100,00 %
02.04.2016 10:06 6,8 C 71 % 1020,3 hPa 0,0 l/m 19,7 km/h (3 Bft) O-NO 58 1 min 0,000 mm 1,4 UV-I 435 W/m 1,9 C -0,7 C 27,4 km/h (4 Bft) 100,00 %
02.04.2016 10:07 6,8 C 70 % 1020,3 hPa 0,0 l/m 22,0 km/h (4 Bft) NO 51 1 min 0,000 mm 1,4 UV-I 437 W/m 1,7 C -1,6 C 27,4 km/h (4 Bft) 100,00 %
02.04.2016 10:08 6,8 C 71 % 1020,3 hPa 0,0 l/m 19,1 km/h (3 Bft) O-NO 58 1 min 0,000 mm 1,4 UV-I 437 W/m 1,9 C -0,5 C 22,5 km/h (4 Bft) 100,00 %
02.04.2016 10:09 6,9 C 70 % 1020,3 hPa 0,0 l/m 19,5 km/h (3 Bft) O 82 1 min 0,000 mm 1,4 UV-I 438 W/m 1,8 C -0,5 C 24,1 km/h (4 Bft) 100,00 %
02.04.2016 10:10 6,9 C 70 % 1020,3 hPa 0,0 l/m 18,5 km/h (3 Bft) O-NO 63 1 min 0,000 mm 1,4 UV-I 436 W/m 1,8 C -0,1 C 24,1 km/h (4 Bft) 100,00 %
02.04.2016 10:11 6,9 C 69 % 1020,3 hPa 0,0 l/m 17,6 km/h (3 Bft) O 84 1 min 0,000 mm 1,4 UV-I 440 W/m 1,6 C 0,2 C 20,9 km/h (4 Bft) 100,00 %
02.04.2016 10:12 6,9 C 70 % 1020,3 hPa 0,0 l/m 15,3 km/h (3 Bft) O-NO 63 1 min 0,000 mm 1,5 UV-I 444 W/m 1,8 C 1,2 C 19,3 km/h (3 Bft) 100,00 %
02.04.2016 10:13 6,9 C 70 % 1020,3 hPa 0,0 l/m 17,4 km/h (3 Bft) NO 49 1 min 0,000 mm 1,5 UV-I 446 W/m 1,8 C 0,3 C 24,1 km/h (4 Bft) 100,00 %
02.04.2016 10:14 7,0 C 71 % 1020,3 hPa 0,0 l/m 19,8 km/h (3 Bft) O-NO 76 1 min 0,000 mm 1,5 UV-I 447 W/m 2,1 C -0,5 C 24,1 km/h (4 Bft) 100,00 %
02.04.2016 10:15 7,1 C 71 % 1020,3 hPa 0,0 l/m 17,6 km/h (3 Bft) NO 50 1 min 0,000 mm 1,5 UV-I 451 W/m 2,2 C 0,5 C 27,4 km/h (4 Bft) 100,00 %
02.04.2016 10:16 7,1 C 70 % 1020,3 hPa 0,0 l/m 18,5 km/h (3 Bft) O-NO 66 1 min 0,000 mm 1,5 UV-I 455 W/m 2,0 C 0,1 C 25,7 km/h (4 Bft) 100,00 %
02.04.2016 10:17 7,2 C 70 % 1020,3 hPa 0,0 l/m 18,1 km/h (3 Bft) O-NO 59 1 min 0,000 mm 1,5 UV-I 462 W/m 2,1 C 0,4 C 24,1 km/h (4 Bft) 100,00 %
02.04.2016 10:18 7,2 C 70 % 1020,4 hPa 0,0 l/m 21,2 km/h (4 Bft) O-NO 67 1 min 0,000 mm 1,6 UV-I 466 W/m 2,1 C -0,8 C 25,7 km/h (4 Bft) 95,65 %
02.04.2016 10:19 7,3 C 69 % 1020,3 hPa 0,0 l/m 18,2 km/h (3 Bft) O 93 1 min 0,000 mm 1,6 UV-I 474 W/m 2,0 C 0,5 C 25,7 km/h (4 Bft) 100,00 %
02.04.2016 10:20 7,3 C 69 % 1020,4 hPa 0,0 l/m 18,3 km/h (3 Bft) O-NO 66 1 min 0,000 mm 1,6 UV-I 475 W/m 2,0 C 0,4 C 25,7 km/h (4 Bft) 100,00 %
02.04.2016 10:21 7,3 C 68 % 1020,3 hPa 0,0 l/m 21,5 km/h (4 Bft) O-NO 66 1 min 0,000 mm 1,6 UV-I 478 W/m 1,8 C -0,7 C 27,4 km/h (4 Bft) 100,00 %
02.04.2016 10:22 7,3 C 68 % 1020,4 hPa 0,0 l/m 20,7 km/h (4 Bft) O-NO 67 1 min 0,000 mm 1,6 UV-I 488 W/m 1,8 C -0,5 C 27,4 km/h (4 Bft) 95,65 %
02.04.2016 10:23 7,4 C 68 % 1020,4 hPa 0,0 l/m 18,1 km/h (3 Bft) O-NO 61 1 min 0,000 mm 1,6 UV-I 474 W/m 1,9 C 0,6 C 24,1 km/h (4 Bft) 100,00 %
02.04.2016 10:24 7,4 C 69 % 1020,5 hPa 0,0 l/m 20,0 km/h (4 Bft) O 88 1 min 0,000 mm 1,6 UV-I 464 W/m 2,1 C -0,1 C 24,1 km/h (4 Bft) 100,00 %
02.04.2016 10:25 7,4 C 69 % 1020,5 hPa 0,0 l/m 19,9 km/h (4 Bft) O 80 1 min 0,000 mm 1,6 UV-I 467 W/m 2,1 C -0,0 C 29,0 km/h (5 Bft) 100,00 %
02.04.2016 10:26 7,5 C 67 % 1020,4 hPa 0,0 l/m 24,7 km/h (4 Bft) O-NO 76 1 min 0,000 mm 1,6 UV-I 471 W/m 1,8 C -1,5 C 29,0 km/h (5 Bft) 100,00 %
02.04.2016 10:27 7,5 C 67 % 1020,4 hPa 0,0 l/m 21,9 km/h (4 Bft) O-NO 78 1 min 0,000 mm 1,7 UV-I 494 W/m 1,8 C -0,6 C 25,7 km/h (4 Bft) 100,00 %
02.04.2016 10:28 7,5 C 68 % 1020,4 hPa 0,0 l/m 23,1 km/h (4 Bft) O-NO 71 1 min 0,000 mm 1,7 UV-I 498 W/m 2,0 C -1,0 C 32,2 km/h (5 Bft) 100,00 %
02.04.2016 10:29 7,5 C 67 % 1020,3 hPa 0,0 l/m 24,5 km/h (4 Bft) NO 55 1 min 0,000 mm 1,7 UV-I 490 W/m 1,8 C -1,4 C 30,6 km/h (5 Bft) 100,00 %
02.04.2016 10:30 7,5 C 67 % 1020,3 hPa 0,0 l/m 20,6 km/h (4 Bft) O-NO 65 1 min 0,000 mm 1,7 UV-I 486 W/m 1,8 C -0,2 C 25,7 km/h (4 Bft) 100,00 %
02.04.2016 10:31 7,6 C 68 % 1020,3 hPa 0,0 l/m 17,4 km/h (3 Bft) NO 40 1 min 0,000 mm 1,7 UV-I 493 W/m 2,1 C 1,2 C 20,9 km/h (4 Bft) 100,00 %
02.04.2016 10:32 7,6 C 67 % 1020,4 hPa 0,0 l/m 28,6 km/h (4 Bft) O-NO 67 1 min 0,000 mm 1,7 UV-I 502 W/m 1,9 C -2,4 C 37,0 km/h (5 Bft) 100,00 %
02.04.2016 10:33 7,6 C 66 % 1020,4 hPa 0,0 l/m 23,9 km/h (4 Bft) O-NO 60 1 min 0,000 mm 1,8 UV-I 512 W/m 1,7 C -1,1 C 30,6 km/h (5 Bft) 100,00 %
02.04.2016 10:34 7,6 C 67 % 1020,3 hPa 0,0 l/m 24,1 km/h (4 Bft) NO 56 1 min 0,000 mm 1,8 UV-I 508 W/m 1,9 C -1,2 C 32,2 km/h (5 Bft) 100,00 %
02.04.2016 10:35 7,6 C 66 % 1020,3 hPa 0,0 l/m 26,3 km/h (4 Bft) O-NO 67 1 min 0,000 mm 1,8 UV-I 504 W/m 1,7 C -1,8 C 33,8 km/h (5 Bft) 95,65 %
02.04.2016 10:36 7,6 C 66 % 1020,3 hPa 0,0 l/m 22,9 km/h (4 Bft) O-NO 66 1 min 0,000 mm 1,8 UV-I 506 W/m 1,7 C -0,8 C 32,2 km/h (5 Bft) 100,00 %
02.04.2016 10:37 7,6 C 67 % 1020,2 hPa 0,0 l/m 24,1 km/h (4 Bft) O 93 1 min 0,000 mm 1,8 UV-I 507 W/m 1,9 C -1,2 C 32,2 km/h (5 Bft) 100,00 %
02.04.2016 10:38 7,7 C 66 % 1020,2 hPa 0,0 l/m 23,8 km/h (4 Bft) O-NO 65 1 min 0,000 mm 1,9 UV-I 513 W/m 1,8 C -0,9 C 32,2 km/h (5 Bft) 100,00 %
02.04.2016 10:39 7,7 C 67 % 1020,2 hPa 0,0 l/m 23,0 km/h (4 Bft) NO 52 1 min 0,000 mm 1,9 UV-I 518 W/m 2,0 C -0,7 C 29,0 km/h (5 Bft) 100,00 %
02.04.2016 10:40 7,7 C 66 % 1020,2 hPa 0,0 l/m 26,2 km/h (4 Bft) O 88 1 min 0,000 mm 1,9 UV-I 514 W/m 1,8 C -1,6 C 33,8 km/h (5 Bft) 100,00 %
02.04.2016 10:41 7,7 C 66 % 1020,2 hPa 0,0 l/m 24,5 km/h (4 Bft) NO 53 1 min 0,000 mm 1,9 UV-I 516 W/m 1,8 C -1,1 C 30,6 km/h (5 Bft) 88,46 %
02.04.2016 10:42 7,7 C 66 % 1020,1 hPa 0,0 l/m 24,9 km/h (4 Bft) NO 55 1 min 0,000 mm 1,9 UV-I 520 W/m 1,8 C -1,3 C 32,2 km/h (5 Bft) 100,00 %
02.04.2016 10:43 7,7 C 66 % 1020,1 hPa 0,0 l/m 25,4 km/h (4 Bft) NO 47 1 min 0,000 mm 1,9 UV-I 520 W/m 1,8 C -1,4 C 32,2 km/h (5 Bft) 100,00 %
02.04.2016 10:44 7,7 C 68 % 1020,1 hPa 0,0 l/m 18,2 km/h (3 Bft) NO 51 1 min 0,000 mm 1,9 UV-I 523 W/m 2,2 C 1,0 C 24,1 km/h (4 Bft) 100,00 %
02.04.2016 10:45 7,8 C 67 % 1020,1 hPa 0,0 l/m 21,7 km/h (4 Bft) O-NO 66 1 min 0,000 mm 1,9 UV-I 530 W/m 2,1 C -0,1 C 27,4 km/h (4 Bft) 95,83 %
02.04.2016 10:46 7,8 C 68 % 1020,1 hPa 0,0 l/m 19,9 km/h (4 Bft) O-NO 67 1 min 0,000 mm 1,9 UV-I 527 W/m 2,3 C 0,5 C 32,2 km/h (5 Bft) 100,00 %
02.04.2016 10:47 7,9 C 67 % 1020,1 hPa 0,0 l/m 18,9 km/h (3 Bft) O 93 1 min 0,000 mm 2,0 UV-I 529 W/m 2,2 C 1,0 C 24,1 km/h (4 Bft) 95,83 %
02.04.2016 10:48 7,9 C 66 % 1020,1 hPa 0,0 l/m 23,5 km/h (4 Bft) O-NO 76 1 min 0,000 mm 2,0 UV-I 533 W/m 1,9 C -0,6 C 32,2 km/h (5 Bft) 86,96 %
02.04.2016 10:49 8,0 C 66 % 1020,2 hPa 0,0 l/m 20,3 km/h (4 Bft) O-NO 61 1 min 0,000 mm 2,0 UV-I 517 W/m 2,0 C 0,6 C 27,4 km/h (4 Bft) 100,00 %
02.04.2016 10:50 8,0 C 67 % 1020,2 hPa 0,0 l/m 20,2 km/h (4 Bft) O-NO 65 1 min 0,000 mm 1,9 UV-I 508 W/m 2,3 C 0,6 C 25,7 km/h (4 Bft) 95,65 %
02.04.2016 10:51 8,0 C 66 % 1020,1 hPa 0,0 l/m 27,9 km/h (4 Bft) NO 55 1 min 0,000 mm 2,0 UV-I 533 W/m 2,0 C -1,7 C 33,8 km/h (5 Bft) 100,00 %
02.04.2016 10:52 8,0 C 65 % 1020,1 hPa 0,0 l/m 22,8 km/h (4 Bft) NO 55 1 min 0,000 mm 2,0 UV-I 541 W/m 1,8 C -0,2 C 33,8 km/h (5 Bft) 92,86 %
02.04.2016 10:53 8,0 C 66 % 1020,1 hPa 0,0 l/m 26,1 km/h (4 Bft) O-NO 71 1 min 0,000 mm 2,0 UV-I 541 W/m 2,0 C -1,2 C 32,2 km/h (5 Bft) 100,00 %
02.04.2016 10:54 8,0 C 66 % 1020,1 hPa 0,0 l/m 24,5 km/h (4 Bft) NO 56 1 min 0,000 mm 2,0 UV-I 544 W/m 2,0 C -0,7 C 32,2 km/h (5 Bft) 86,96 %
02.04.2016 10:55 8,0 C 65 % 1020,1 hPa 0,0 l/m 25,3 km/h (4 Bft) O-NO 67 1 min 0,000 mm 2,1 UV-I 548 W/m 1,8 C -1,0 C 35,4 km/h (5 Bft) 100,00 %
02.04.2016 10:56 8,0 C 65 % 1020,1 hPa 0,0 l/m 24,8 km/h (4 Bft) O-NO 59 1 min 0,000 mm 2,1 UV-I 545 W/m 1,8 C -0,8 C 30,6 km/h (5 Bft) 91,30 %
02.04.2016 10:57 8,0 C 65 % 1020,1 hPa 0,0 l/m 23,1 km/h (4 Bft) NO 36 1 min 0,000 mm 2,1 UV-I 553 W/m 1,8 C -0,3 C 30,6 km/h (5 Bft) 100,00 %
02.04.2016 10:58 8,0 C 65 % 1020,1 hPa 0,0 l/m 19,8 km/h (3 Bft) NO 34 1 min 0,000 mm 2,1 UV-I 549 W/m 1,8 C 0,8 C 27,4 km/h (4 Bft) 91,30 %
02.04.2016 10:59 8,1 C 66 % 1020,1 hPa 0,0 l/m 18,0 km/h (3 Bft) NO 51 1 min 0,000 mm 2,1 UV-I 560 W/m 2,1 C 1,6 C 22,5 km/h (4 Bft) 95,83 %
02.04.2016 11:00 8,1 C 66 % 1020,1 hPa 0,0 l/m 19,1 km/h (3 Bft) O-NO 59 1 min 0,000 mm 2,2 UV-I 564 W/m 2,1 C 1,2 C 22,5 km/h (4 Bft) 100,00 %
02.04.2016 11:01 8,2 C 66 % 1020,0 hPa 0,0 l/m 20,6 km/h (4 Bft) O-NO 77 1 min 0,279 mm 2,2 UV-I 570 W/m 2,2 C 0,8 C 24,1 km/h (4 Bft) 96,30 %
02.04.2016 11:02 8,2 C 66 % 1020,0 hPa 0,0 l/m 20,4 km/h (4 Bft) O-NO 65 1 min 0,000 mm 2,2 UV-I 574 W/m 2,2 C 0,8 C 27,4 km/h (4 Bft) 100,00 %
02.04.2016 11:03 8,2 C 67 % 1020,0 hPa 0,0 l/m 20,7 km/h (4 Bft) NO 55 1 min 0,000 mm 2,2 UV-I 575 W/m 2,4 C 0,7 C 24,1 km/h (4 Bft) 95,83 %
02.04.2016 11:04 8,3 C 66 % 1020,0 hPa 0,0 l/m 22,7 km/h (4 Bft) O-NO 63 1 min 0,000 mm 2,2 UV-I 575 W/m 2,3 C 0,2 C 29,0 km/h (5 Bft) 95,65 %
02.04.2016 11:05 8,3 C 66 % 1020,0 hPa 0,0 l/m 23,2 km/h (4 Bft) NO 46 1 min 0,000 mm 2,2 UV-I 576 W/m 2,3 C 0,1 C 30,6 km/h (5 Bft) 100,00 %
02.04.2016 11:06 8,3 C 66 % 1020,0 hPa 0,0 l/m 19,1 km/h (3 Bft) O-NO 63 1 min 0,000 mm 2,2 UV-I 578 W/m 2,3 C 1,4 C 24,1 km/h (4 Bft) 95,65 %
02.04.2016 11:07 8,4 C 67 % 1019,9 hPa 0,0 l/m 20,0 km/h (4 Bft) O-NO 57 1 min 0,000 mm 2,2 UV-I 578 W/m 2,6 C 1,2 C 27,4 km/h (4 Bft) 100,00 %
02.04.2016 11:08 8,4 C 67 % 1019,9 hPa 0,0 l/m 24,6 km/h (4 Bft) NO 50 1 min 0,000 mm 2,2 UV-I 578 W/m 2,6 C -0,2 C 30,6 km/h (5 Bft) 96,30 %
02.04.2016 11:09 8,6 C 66 % 1019,9 hPa 0,0 l/m 22,9 km/h (4 Bft) NO 51 1 min 0,000 mm 2,3 UV-I 584 W/m 2,6 C 0,5 C 29,0 km/h (5 Bft) 100,00 %
02.04.2016 11:10 8,6 C 65 % 1019,8 hPa 0,0 l/m 26,3 km/h (4 Bft) O-NO 74 1 min 0,000 mm 2,3 UV-I 584 W/m 2,4 C -0,4 C 32,2 km/h (5 Bft) 95,83 %
02.04.2016 11:11 8,6 C 66 % 1019,9 hPa 0,0 l/m 22,5 km/h (4 Bft) O 80 1 min 0,000 mm 2,3 UV-I 582 W/m 2,6 C 0,7 C 29,0 km/h (5 Bft) 100,00 %
02.04.2016 11:12 8,6 C 65 % 1020,0 hPa 0,0 l/m 24,7 km/h (4 Bft) O-NO 59 1 min 0,000 mm 2,3 UV-I 587 W/m 2,4 C 0,0 C 32,2 km/h (5 Bft) 100,00 %
02.04.2016 11:13 8,6 C 65 % 1019,9 hPa 0,0 l/m 22,1 km/h (4 Bft) O-NO 70 1 min 0,000 mm 2,3 UV-I 590 W/m 2,4 C 0,8 C 29,0 km/h (5 Bft) 100,00 %
02.04.2016 11:14 8,6 C 64 % 1019,9 hPa 0,0 l/m 18,9 km/h (3 Bft) O-NO 65 1 min 0,000 mm 2,3 UV-I 595 W/m 2,2 C 1,9 C 25,7 km/h (4 Bft) 100,00 %
02.04.2016 11:15 8,6 C 65 % 1019,9 hPa 0,0 l/m 17,5 km/h (3 Bft) O-NO 65 1 min 0,000 mm 2,4 UV-I 602 W/m 2,4 C 2,4 C 24,1 km/h (4 Bft) 100,00 %
02.04.2016 11:16 8,7 C 65 % 1019,9 hPa 0,0 l/m 21,4 km/h (4 Bft) O-NO 59 1 min 0,000 mm 2,4 UV-I 606 W/m 2,5 C 1,1 C 30,6 km/h (5 Bft) 100,00 %
02.04.2016 11:17 8,7 C 65 % 1019,9 hPa 0,0 l/m 25,3 km/h (4 Bft) O-NO 57 1 min 0,000 mm 2,4 UV-I 611 W/m 2,5 C -0,0 C 32,2 km/h (5 Bft) 98,65 %
02.04.2016 11:18 8,7 C 65 % 1019,9 hPa 0,0 l/m 22,7 km/h (4 Bft) O 82 1 min 0,000 mm 2,4 UV-I 613 W/m 2,5 C 0,7 C 27,4 km/h (4 Bft) 100,00 %
02.04.2016 11:19 8,8 C 66 % 1019,9 hPa 0,0 l/m 19,8 km/h (3 Bft) O 81 1 min 0,000 mm 2,4 UV-I 609 W/m 2,8 C 1,8 C 30,6 km/h (5 Bft) 95,83 %
02.04.2016 11:20 8,9 C 65 % 1019,9 hPa 0,0 l/m 21,9 km/h (4 Bft) O 92 1 min 0,000 mm 2,4 UV-I 612 W/m 2,7 C 1,2 C 30,6 km/h (5 Bft) 95,65 %
02.04.2016 11:21 8,9 C 64 % 1019,9 hPa 0,0 l/m 18,4 km/h (3 Bft) O-NO 58 1 min 0,000 mm 2,5 UV-I 612 W/m 2,5 C 2,4 C 24,1 km/h (4 Bft) 95,83 %
02.04.2016 11:22 8,9 C 65 % 1019,9 hPa 0,0 l/m 20,0 km/h (4 Bft) NO 51 1 min 0,000 mm 2,4 UV-I 611 W/m 2,7 C 1,9 C 30,6 km/h (5 Bft) 100,00 %
02.04.2016 11:23 8,9 C 65 % 1019,9 hPa 0,0 l/m 23,1 km/h (4 Bft) O-NO 65 1 min 0,000 mm 2,5 UV-I 611 W/m 2,7 C 0,9 C 30,6 km/h (5 Bft) 100,00 %
02.04.2016 11:24 9,0 C 64 % 1019,9 hPa 0,0 l/m 22,1 km/h (4 Bft) N-NO 29 1 min 0,000 mm 2,5 UV-I 612 W/m 2,6 C 1,3 C 27,4 km/h (4 Bft) 100,00 %
02.04.2016 11:25 9,0 C 64 % 1019,9 hPa 0,0 l/m 27,8 km/h (4 Bft) NO 42 1 min 0,000 mm 2,5 UV-I 613 W/m 2,6 C -0,2 C 35,4 km/h (5 Bft) 100,00 %
02.04.2016 11:26 9,0 C 63 % 1019,9 hPa 0,0 l/m 22,3 km/h (4 Bft) O-NO 65 1 min 0,000 mm 2,5 UV-I 616 W/m 2,3 C 1,3 C 32,2 km/h (5 Bft) 95,65 %
02.04.2016 11:27 9,0 C 64 % 1019,9 hPa 0,0 l/m 24,7 km/h (4 Bft) O-NO 63 1 min 0,000 mm 2,5 UV-I 622 W/m 2,6 C 0,6 C 32,2 km/h (5 Bft) 100,00 %
02.04.2016 11:28 9,1 C 63 % 1019,9 hPa 0,0 l/m 20,2 km/h (4 Bft) O-NO 76 1 min 0,000 mm 2,5 UV-I 626 W/m 2,4 C 2,1 C 27,4 km/h (4 Bft) 100,00 %
02.04.2016 11:29 9,1 C 63 % 1019,9 hPa 0,0 l/m 23,5 km/h (4 Bft) NO 48 1 min 0,000 mm 2,6 UV-I 629 W/m 2,4 C 1,0 C 32,2 km/h (5 Bft) 100,00 %
02.04.2016 11:30 9,1 C 64 % 1019,9 hPa 0,0 l/m 20,6 km/h (4 Bft) O-NO 72 1 min 0,000 mm 2,6 UV-I 630 W/m 2,7 C 1,9 C 35,4 km/h (5 Bft) 100,00 %
02.04.2016 11:31 9,1 C 63 % 1019,9 hPa 0,0 l/m 23,0 km/h (4 Bft) NO 55 1 min 0,000 mm 2,6 UV-I 635 W/m 2,4 C 1,2 C 33,8 km/h (5 Bft) 100,00 %
02.04.2016 11:32 9,1 C 64 % 1019,9 hPa 0,0 l/m 21,9 km/h (4 Bft) NO 49 1 min 0,000 mm 2,6 UV-I 638 W/m 2,7 C 1,5 C 29,0 km/h (5 Bft) 100,00 %
02.04.2016 11:33 9,1 C 64 % 1019,9 hPa 0,0 l/m 21,5 km/h (4 Bft) O-NO 70 1 min 0,000 mm 2,6 UV-I 640 W/m 2,7 C 1,6 C 27,4 km/h (4 Bft) 95,83 %
02.04.2016 11:34 9,2 C 63 % 1019,8 hPa 0,0 l/m 22,8 km/h (4 Bft) NO 39 1 min 0,000 mm 2,6 UV-I 640 W/m 2,5 C 1,4 C 30,6 km/h (5 Bft) 100,00 %
02.04.2016 11:35 9,2 C 63 % 1019,8 hPa 0,0 l/m 20,4 km/h (4 Bft) O-NO 64 1 min 0,000 mm 2,6 UV-I 640 W/m 2,5 C 2,1 C 27,4 km/h (4 Bft) 100,00 %
02.04.2016 11:36 9,2 C 63 % 1019,8 hPa 0,0 l/m 21,6 km/h (4 Bft) NO 53 1 min 0,000 mm 2,6 UV-I 640 W/m 2,5 C 1,7 C 27,4 km/h (4 Bft) 91,67 %
02.04.2016 11:37 9,3 C 64 % 1019,8 hPa 0,0 l/m 23,9 km/h (4 Bft) O-NO 60 1 min 0,000 mm 2,7 UV-I 642 W/m 2,8 C 1,2 C 29,0 km/h (5 Bft) 96,15 %
02.04.2016 11:38 9,4 C 64 % 1019,8 hPa 0,0 l/m 16,9 km/h (3 Bft) O-NO 59 1 min 0,000 mm 2,7 UV-I 645 W/m 2,9 C 3,6 C 20,9 km/h (4 Bft) 100,00 %
02.04.2016 11:39 9,4 C 62 % 1019,8 hPa 0,0 l/m 17,7 km/h (3 Bft) O 81 1 min 0,000 mm 2,7 UV-I 644 W/m 2,5 C 3,3 C 22,5 km/h (4 Bft) 100,00 %
02.04.2016 11:40 9,6 C 65 % 1019,8 hPa 0,0 l/m 13,5 km/h (3 Bft) NO 50 1 min 0,000 mm 2,7 UV-I 649 W/m 3,4 C 5,3 C 20,9 km/h (4 Bft) 100,00 %
02.04.2016 11:41 9,7 C 66 % 1019,8 hPa 0,0 l/m 17,5 km/h (3 Bft) O-NO 58 1 min 0,000 mm 2,7 UV-I 645 W/m 3,7 C 3,8 C 24,1 km/h (4 Bft) 100,00 %
02.04.2016 11:42 9,8 C 63 % 1019,7 hPa 0,0 l/m 20,0 km/h (4 Bft) O-NO 72 1 min 0,000 mm 2,7 UV-I 637 W/m 3,1 C 3,0 C 27,4 km/h (4 Bft) 100,00 %
02.04.2016 11:43 9,8 C 63 % 1019,7 hPa 0,0 l/m 20,9 km/h (4 Bft) O-NO 65 1 min 0,000 mm 2,7 UV-I 632 W/m 3,1 C 2,7 C 27,4 km/h (4 Bft) 100,00 %
02.04.2016 11:44 9,8 C 63 % 1019,7 hPa 0,0 l/m 19,5 km/h (3 Bft) O-NO 75 1 min 0,000 mm 2,7 UV-I 633 W/m 3,1 C 3,2 C 33,8 km/h (5 Bft) 100,00 %
02.04.2016 11:45 9,8 C 62 % 1019,7 hPa 0,0 l/m 23,8 km/h (4 Bft) O 84 1 min 0,000 mm 2,7 UV-I 637 W/m 2,9 C 1,9 C 32,2 km/h (5 Bft) 100,00 %
02.04.2016 11:46 9,8 C 61 % 1019,7 hPa 0,0 l/m 25,2 km/h (4 Bft) O-NO 65 1 min 0,000 mm 2,7 UV-I 632 W/m 2,6 C 1,5 C 32,2 km/h (5 Bft) 100,00 %
02.04.2016 11:47 9,8 C 62 % 1019,6 hPa 0,0 l/m 22,0 km/h (4 Bft) O-NO 58 1 min 0,000 mm 2,7 UV-I 630 W/m 2,9 C 2,4 C 29,0 km/h (5 Bft) 100,00 %
02.04.2016 11:48 9,8 C 62 % 1019,6 hPa 0,0 l/m 19,4 km/h (3 Bft) NO 51 1 min 0,000 mm 2,7 UV-I 622 W/m 2,9 C 3,2 C 25,7 km/h (4 Bft) 100,00 %
02.04.2016 11:49 9,8 C 61 % 1019,6 hPa 0,0 l/m 17,8 km/h (3 Bft) O-NO 77 1 min 0,000 mm 2,7 UV-I 623 W/m 2,6 C 3,8 C 24,1 km/h (4 Bft) 95,65 %
02.04.2016 11:50 9,8 C 62 % 1019,7 hPa 0,0 l/m 19,0 km/h (3 Bft) O-NO 68 1 min 0,000 mm 2,7 UV-I 618 W/m 2,9 C 3,4 C 25,7 km/h (4 Bft) 100,00 %
02.04.2016 11:51 9,8 C 62 % 1019,6 hPa 0,0 l/m 21,5 km/h (4 Bft) O 80 1 min 0,000 mm 2,7 UV-I 620 W/m 2,9 C 2,6 C 27,4 km/h (4 Bft) 100,00 %
02.04.2016 11:52 9,8 C 62 % 1019,6 hPa 0,0 l/m 19,3 km/h (3 Bft) O-NO 57 1 min 0,000 mm 2,7 UV-I 621 W/m 2,9 C 3,3 C 25,7 km/h (4 Bft) 100,00 %
02.04.2016 11:53 9,8 C 61 % 1019,6 hPa 0,0 l/m 21,2 km/h (4 Bft) O-NO 77 1 min 0,000 mm 2,7 UV-I 627 W/m 2,6 C 2,6 C 29,0 km/h (5 Bft) 96,15 %
02.04.2016 11:54 9,8 C 61 % 1019,6 hPa 0,0 l/m 21,1 km/h (4 Bft) O-NO 76 1 min 0,000 mm 2,8 UV-I 636 W/m 2,6 C 2,7 C 27,4 km/h (4 Bft) 100,00 %
02.04.2016 11:55 9,9 C 62 % 1019,6 hPa 0,0 l/m 18,2 km/h (3 Bft) O-NO 72 1 min 0,000 mm 2,8 UV-I 638 W/m 3,0 C 3,8 C 25,7 km/h (4 Bft) 100,00 %
02.04.2016 11:56 9,9 C 62 % 1019,5 hPa 0,0 l/m 17,3 km/h (3 Bft) O 80 1 min 0,000 mm 2,8 UV-I 636 W/m 3,0 C 4,1 C 24,1 km/h (4 Bft) 100,00 %
02.04.2016 11:57 9,9 C 62 % 1019,5 hPa 0,0 l/m 16,0 km/h (3 Bft) NO 53 1 min 0,000 mm 2,8 UV-I 646 W/m 3,0 C 4,6 C 20,9 km/h (4 Bft) 95,65 %
02.04.2016 11:58 10,1 C 63 % 1019,4 hPa 0,0 l/m 18,4 km/h (3 Bft) O-NO 69 1 min 0,000 mm 2,8 UV-I 650 W/m 3,4 C 4,0 C 29,0 km/h (5 Bft) 100,00 %
02.04.2016 11:59 10,1 C 62 % 1019,4 hPa 0,0 l/m 26,1 km/h (4 Bft) NO 48 1 min 0,000 mm 2,8 UV-I 651 W/m 3,2 C 1,7 C 33,8 km/h (5 Bft) 100,00 %
02.04.2016 12:00 10,2 C 60 % 1019,4 hPa 0,0 l/m 24,3 km/h (4 Bft) O-NO 61 1 min 0,356 mm 2,8 UV-I 652 W/m 2,8 C 2,3 C 32,2 km/h (5 Bft) 100,00 %
02.04.2016 12:01 10,1 C 59 % 1019,4 hPa 0,0 l/m 20,4 km/h (4 Bft) O-NO 67 1 min 0,000 mm 2,9 UV-I 656 W/m 2,5 C 3,3 C 30,6 km/h (5 Bft) 100,00 %
02.04.2016 12:02 10,1 C 60 % 1019,4 hPa 0,0 l/m 17,6 km/h (3 Bft) O-NO 65 1 min 0,000 mm 2,9 UV-I 658 W/m 2,7 C 4,2 C 20,9 km/h (4 Bft) 100,00 %
02.04.2016 12:03 10,2 C 60 % 1019,4 hPa 0,0 l/m 22,7 km/h (4 Bft) NO 46 1 min 0,000 mm 2,9 UV-I 662 W/m 2,8 C 2,7 C 29,0 km/h (5 Bft) 100,00 %
02.04.2016 12:04 10,2 C 60 % 1019,3 hPa 0,0 l/m 18,8 km/h (3 Bft) O-NO 62 1 min 0,000 mm 2,9 UV-I 665 W/m 2,8 C 3,9 C 25,7 km/h (4 Bft) 100,00 %
02.04.2016 12:05 10,2 C 61 % 1019,4 hPa 0,0 l/m 21,4 km/h (4 Bft) O-NO 62 1 min 0,000 mm 2,9 UV-I 667 W/m 3,0 C 3,1 C 25,7 km/h (4 Bft) 100,00 %
02.04.2016 12:06 10,3 C 60 % 1019,4 hPa 0,0 l/m 20,4 km/h (4 Bft) N-NO 24 1 min 0,000 mm 2,9 UV-I 664 W/m 2,9 C 3,5 C 30,6 km/h (5 Bft) 100,00 %
02.04.2016 12:07 10,2 C 60 % 1019,3 hPa 0,0 l/m 16,5 km/h (3 Bft) NO 49 1 min 0,000 mm 2,9 UV-I 663 W/m 2,8 C 4,8 C 20,9 km/h (4 Bft) 100,00 %
02.04.2016 12:08 10,3 C 62 % 1019,4 hPa 0,0 l/m 17,2 km/h (3 Bft) NO 48 1 min 0,000 mm 2,9 UV-I 668 W/m 3,3 C 4,6 C 27,4 km/h (4 Bft) 100,00 %
02.04.2016 12:09 10,4 C 61 % 1019,3 hPa 0,0 l/m 20,0 km/h (4 Bft) O 93 1 min 0,000 mm 2,9 UV-I 670 W/m 3,2 C 3,8 C 29,0 km/h (5 Bft) 100,00 %
02.04.2016 12:10 10,4 C 61 % 1019,3 hPa 0,0 l/m 22,3 km/h (4 Bft) O-NO 71 1 min 0,000 mm 3,0 UV-I 671 W/m 3,2 C 3,1 C 29,0 km/h (5 Bft) 100,00 %
02.04.2016 12:11 10,5 C 60 % 1019,3 hPa 0,0 l/m 19,7 km/h (3 Bft) O 84 1 min 0,000 mm 3,0 UV-I 674 W/m 3,1 C 4,0 C 25,7 km/h (4 Bft) 95,83 %
02.04.2016 12:12 10,6 C 59 % 1019,3 hPa 0,0 l/m 22,5 km/h (4 Bft) O-NO 67 1 min 0,000 mm 3,0 UV-I 676 W/m 2,9 C 3,3 C 29,0 km/h (5 Bft) 100,00 %
02.04.2016 12:13 10,6 C 59 % 1019,3 hPa 0,0 l/m 19,7 km/h (3 Bft) O-NO 71 1 min 0,000 mm 3,0 UV-I 677 W/m 2,9 C 4,2 C 24,1 km/h (4 Bft) 100,00 %
02.04.2016 12:14 10,6 C 59 % 1019,3 hPa 0,0 l/m 26,6 km/h (4 Bft) O-NO 78 1 min 0,000 mm 3,0 UV-I 678 W/m 2,9 C 2,3 C 33,8 km/h (5 Bft) 100,00 %
02.04.2016 12:15 10,6 C 57 % 1019,2 hPa 0,0 l/m 26,9 km/h (4 Bft) O-NO 74 1 min 0,000 mm 3,0 UV-I 675 W/m 2,4 C 2,2 C 40,2 km/h (6 Bft) 100,00 %
02.04.2016 12:16 10,6 C 60 % 1019,2 hPa 0,0 l/m 21,7 km/h (4 Bft) O 92 1 min 0,000 mm 3,0 UV-I 675 W/m 3,2 C 3,5 C 27,4 km/h (4 Bft) 100,00 %
02.04.2016 12:17 10,6 C 61 % 1019,2 hPa 0,0 l/m 23,4 km/h (4 Bft) O-NO 58 1 min 0,000 mm 3,0 UV-I 675 W/m 3,4 C 3,1 C 27,4 km/h (4 Bft) 100,00 %
02.04.2016 12:18 10,7 C 60 % 1019,3 hPa 0,0 l/m 14,7 km/h (3 Bft) O 79 1 min 0,000 mm 3,0 UV-I 675 W/m 3,3 C 6,1 C 19,3 km/h (3 Bft) 95,65 %
02.04.2016 12:19 10,8 C 62 % 1019,2 hPa 0,0 l/m 18,4 km/h (3 Bft) O-NO 68 1 min 0,000 mm 3,0 UV-I 671 W/m 3,8 C 4,8 C 25,7 km/h (4 Bft) 100,00 %
02.04.2016 12:20 10,8 C 60 % 1019,2 hPa 0,0 l/m 25,4 km/h (4 Bft) O-NO 58 1 min 0,000 mm 3,0 UV-I 670 W/m 3,4 C 2,8 C 32,2 km/h (5 Bft) 100,00 %
02.04.2016 12:21 10,9 C 62 % 1019,1 hPa 0,0 l/m 23,4 km/h (4 Bft) O-NO 69 1 min 0,000 mm 3,0 UV-I 673 W/m 3,9 C 3,5 C 29,0 km/h (5 Bft) 96,30 %
02.04.2016 12:22 10,9 C 59 % 1019,2 hPa 0,0 l/m 18,7 km/h (3 Bft) NO 47 1 min 0,000 mm 3,0 UV-I 675 W/m 3,2 C 4,9 C 25,7 km/h (4 Bft) 93,33 %
02.04.2016 12:23 11,0 C 60 % 1019,1 hPa 0,0 l/m 18,7 km/h (3 Bft) O-NO 67 1 min 0,000 mm 3,0 UV-I 678 W/m 3,5 C 5,0 C 27,4 km/h (4 Bft) 95,65 %
02.04.2016 12:24 11,0 C 59 % 1019,2 hPa 0,0 l/m 21,3 km/h (4 Bft) O-NO 63 1 min 0,000 mm 3,0 UV-I 679 W/m 3,3 C 4,2 C 25,7 km/h (4 Bft) 95,83 %
02.04.2016 12:25 11,0 C 59 % 1019,2 hPa 0,0 l/m 22,3 km/h (4 Bft) O-NO 63 1 min 0,000 mm 3,0 UV-I 677 W/m 3,3 C 3,9 C 32,2 km/h (5 Bft) 95,65 %
02.04.2016 12:26 11,1 C 59 % 1019,2 hPa 0,0 l/m 23,7 km/h (4 Bft) NO 55 1 min 0,000 mm 3,0 UV-I 681 W/m 3,4 C 3,7 C 30,6 km/h (5 Bft) 95,83 %
02.04.2016 12:27 11,0 C 59 % 1019,2 hPa 0,0 l/m 21,8 km/h (4 Bft) O-NO 64 1 min 0,000 mm 3,1 UV-I 684 W/m 3,3 C 4,0 C 27,4 km/h (4 Bft) 95,65 %
02.04.2016 12:28 11,0 C 59 % 1019,2 hPa 0,0 l/m 18,7 km/h (3 Bft) NO 45 1 min 0,000 mm 3,1 UV-I 683 W/m 3,3 C 5,0 C 24,1 km/h (4 Bft) 100,00 %
02.04.2016 12:29 11,0 C 59 % 1019,2 hPa 0,0 l/m 22,3 km/h (4 Bft) O-NO 63 1 min 0,000 mm 3,0 UV-I 682 W/m 3,3 C 3,9 C 29,0 km/h (5 Bft) 95,65 %
02.04.2016 12:30 10,9 C 58 % 1019,2 hPa 0,0 l/m 20,5 km/h (4 Bft) O-NO 61 1 min 0,000 mm 3,0 UV-I 679 W/m 3,0 C 4,3 C 27,4 km/h (4 Bft) 100,00 %
02.04.2016 12:31 10,9 C 60 % 1019,2 hPa 0,0 l/m 18,2 km/h (3 Bft) O-NO 65 1 min 0,000 mm 3,0 UV-I 677 W/m 3,4 C 5,0 C 22,5 km/h (4 Bft) 91,30 %
02.04.2016 12:32 11,0 C 60 % 1019,2 hPa 0,0 l/m 15,0 km/h (3 Bft) NO 52 1 min 0,000 mm 3,0 UV-I 671 W/m 3,5 C 6,3 C 20,9 km/h (4 Bft) 95,83 %
02.04.2016 12:33 11,0 C 59 % 1019,2 hPa 0,0 l/m 17,9 km/h (3 Bft) O-NO 57 1 min 0,000 mm 3,0 UV-I 671 W/m 3,3 C 5,3 C 24,1 km/h (4 Bft) 100,00 %
02.04.2016 12:34 11,1 C 60 % 1019,2 hPa 0,0 l/m 20,4 km/h (4 Bft) NO 44 1 min 0,000 mm 3,0 UV-I 669 W/m 3,6 C 4,6 C 27,4 km/h (4 Bft) 95,83 %
02.04.2016 12:35 11,2 C 59 % 1019,2 hPa 0,0 l/m 26,8 km/h (4 Bft) NO 52 1 min 0,000 mm 3,0 UV-I 671 W/m 3,5 C 3,0 C 33,8 km/h (5 Bft) 100,00 %
02.04.2016 12:36 11,2 C 57 % 1019,2 hPa 0,0 l/m 26,2 km/h (4 Bft) O-NO 64 1 min 0,000 mm 3,0 UV-I 671 W/m 3,0 C 3,2 C 33,8 km/h (5 Bft) 95,83 %
02.04.2016 12:37 11,2 C 57 % 1019,2 hPa 0,0 l/m 26,4 km/h (4 Bft) O-NO 63 1 min 0,000 mm 3,1 UV-I 675 W/m 3,0 C 3,1 C 33,8 km/h (5 Bft) 100,00 %
02.04.2016 12:38 11,2 C 58 % 1019,1 hPa 0,0 l/m 23,4 km/h (4 Bft) O 96 1 min 0,000 mm 3,1 UV-I 675 W/m 3,2 C 3,9 C 29,0 km/h (5 Bft) 95,83 %
02.04.2016 12:39 11,1 C 58 % 1019,1 hPa 0,0 l/m 19,0 km/h (3 Bft) O-NO 71 1 min 0,000 mm 3,1 UV-I 680 W/m 3,2 C 5,0 C 24,1 km/h (4 Bft) 100,00 %
02.04.2016 12:40 11,2 C 60 % 1019,1 hPa 0,0 l/m 23,3 km/h (4 Bft) O-NO 69 1 min 0,000 mm 3,1 UV-I 680 W/m 3,7 C 3,9 C 30,6 km/h (5 Bft) 92,31 %
02.04.2016 12:41 11,2 C 59 % 1019,1 hPa 0,0 l/m 23,3 km/h (4 Bft) O-NO 71 1 min 0,000 mm 3,1 UV-I 680 W/m 3,5 C 3,9 C 29,0 km/h (5 Bft) 95,83 %
02.04.2016 12:42 11,3 C 59 % 1019,1 hPa 0,0 l/m 18,0 km/h (3 Bft) NO 41 1 min 0,000 mm 3,1 UV-I 678 W/m 3,6 C 5,6 C 24,1 km/h (4 Bft) 95,65 %
02.04.2016 12:43 11,3 C 60 % 1019,0 hPa 0,0 l/m 19,9 km/h (4 Bft) O-NO 69 1 min 0,000 mm 3,1 UV-I 668 W/m 3,8 C 5,0 C 25,7 km/h (4 Bft) 95,83 %
02.04.2016 12:44 11,4 C 61 % 1019,0 hPa 0,0 l/m 14,7 km/h (3 Bft) O-NO 69 1 min 0,000 mm 3,0 UV-I 661 W/m 4,2 C 6,9 C 25,7 km/h (4 Bft) 100,00 %
02.04.2016 12:45 11,6 C 60 % 1019,0 hPa 0,0 l/m 17,2 km/h (3 Bft) O 97 1 min 0,000 mm 3,1 UV-I 668 W/m 4,1 C 6,3 C 29,0 km/h (5 Bft) 95,83 %
02.04.2016 12:46 11,6 C 57 % 1019,0 hPa 0,0 l/m 22,3 km/h (4 Bft) O-NO 69 1 min 0,000 mm 3,1 UV-I 669 W/m 3,4 C 4,7 C 27,4 km/h (4 Bft) 100,00 %
02.04.2016 12:47 11,6 C 57 % 1019,0 hPa 0,0 l/m 20,9 km/h (4 Bft) O 100 1 min 0,000 mm 3,1 UV-I 683 W/m 3,4 C 5,1 C 29,0 km/h (5 Bft) 95,83 %
02.04.2016 12:48 11,5 C 58 % 1019,0 hPa 0,0 l/m 18,9 km/h (3 Bft) O-NO 67 1 min 0,000 mm 3,1 UV-I 680 W/m 3,5 C 5,6 C 24,1 km/h (4 Bft) 100,00 %
02.04.2016 12:49 11,4 C 57 % 1019,0 hPa 0,0 l/m 14,3 km/h (3 Bft) NO 49 1 min 0,000 mm 3,1 UV-I 682 W/m 3,2 C 7,1 C 19,3 km/h (3 Bft) 95,83 %
02.04.2016 12:50 11,5 C 59 % 1018,9 hPa 0,0 l/m 15,6 km/h (3 Bft) O-NO 63 1 min 0,000 mm 3,1 UV-I 685 W/m 3,8 C 6,7 C 29,0 km/h (5 Bft) 100,00 %
02.04.2016 12:51 11,5 C 58 % 1018,9 hPa 0,0 l/m 17,6 km/h (3 Bft) O-NO 59 1 min 0,000 mm 3,1 UV-I 686 W/m 3,5 C 6,0 C 25,7 km/h (4 Bft) 100,00 %
02.04.2016 12:52 11,6 C 59 % 1018,9 hPa 0,0 l/m 15,0 km/h (3 Bft) NO 43 1 min 0,000 mm 3,1 UV-I 686 W/m 3,9 C 7,1 C 20,9 km/h (4 Bft) 100,00 %
02.04.2016 12:53 11,7 C 59 % 1018,9 hPa 0,0 l/m 16,3 km/h (3 Bft) O-NO 65 1 min 0,000 mm 3,1 UV-I 688 W/m 4,0 C 6,7 C 24,1 km/h (4 Bft) 100,00 %
02.04.2016 12:54 11,7 C 58 % 1018,8 hPa 0,0 l/m 19,5 km/h (3 Bft) NO 55 1 min 0,000 mm 3,1 UV-I 691 W/m 3,7 C 5,6 C 22,5 km/h (4 Bft) 100,00 %
02.04.2016 12:55 11,7 C 58 % 1018,8 hPa 0,0 l/m 17,7 km/h (3 Bft) O 80 1 min 0,000 mm 3,1 UV-I 689 W/m 3,7 C 6,2 C 22,5 km/h (4 Bft) 100,00 %
02.04.2016 12:56 11,7 C 58 % 1018,8 hPa 0,0 l/m 24,2 km/h (4 Bft) O-NO 60 1 min 0,000 mm 3,1 UV-I 688 W/m 3,7 C 4,3 C 35,4 km/h (5 Bft) 95,65 %
02.04.2016 12:57 11,8 C 57 % 1018,8 hPa 0,0 l/m 24,1 km/h (4 Bft) NO 50 1 min 0,000 mm 3,1 UV-I 688 W/m 3,6 C 4,5 C 29,0 km/h (5 Bft) 96,30 %
02.04.2016 12:58 11,8 C 57 % 1018,8 hPa 0,0 l/m 26,7 km/h (4 Bft) O-NO 65 1 min 0,000 mm 3,1 UV-I 689 W/m 3,6 C 3,9 C 32,2 km/h (5 Bft) 100,00 %
02.04.2016 12:59 11,8 C 57 % 1018,8 hPa 0,0 l/m 25,2 km/h (4 Bft) O-NO 60 1 min 0,000 mm 3,1 UV-I 692 W/m 3,6 C 4,2 C 29,0 km/h (5 Bft) 100,00 %
02.04.2016 13:00 11,7 C 56 % 1018,8 hPa 0,0 l/m 22,3 km/h (4 Bft) O-NO 63 1 min 0,406 mm 3,1 UV-I 691 W/m 3,2 C 4,8 C 29,0 km/h (5 Bft) 100,00 %
02.04.2016 13:01 11,7 C 58 % 1018,8 hPa 0,0 l/m 20,4 km/h (4 Bft) NO 51 1 min 0,000 mm 3,1 UV-I 688 W/m 3,7 C 5,4 C 30,6 km/h (5 Bft) 95,65 %
02.04.2016 13:02 11,8 C 59 % 1018,8 hPa 0,0 l/m 20,5 km/h (4 Bft) NO 44 1 min 0,000 mm 3,1 UV-I 686 W/m 4,1 C 5,5 C 25,7 km/h (4 Bft) 100,00 %
02.04.2016 13:03 11,8 C 58 % 1018,8 hPa 0,0 l/m 24,6 km/h (4 Bft) O-NO 64 1 min 0,000 mm 3,1 UV-I 684 W/m 3,8 C 4,4 C 29,0 km/h (5 Bft) 95,65 %
02.04.2016 13:04 11,8 C 58 % 1018,8 hPa 0,0 l/m 22,4 km/h (4 Bft) NO 53 1 min 0,000 mm 3,1 UV-I 691 W/m 3,8 C 4,9 C 25,7 km/h (4 Bft) 100,00 %
02.04.2016 13:05 11,9 C 59 % 1018,9 hPa 0,0 l/m 19,8 km/h (3 Bft) O 81 1 min 0,000 mm 3,1 UV-I 693 W/m 4,1 C 5,8 C 27,4 km/h (4 Bft) 100,00 %
02.04.2016 13:06 11,9 C 58 % 1018,8 hPa 0,0 l/m 20,7 km/h (4 Bft) O-NO 69 1 min 0,000 mm 3,1 UV-I 694 W/m 3,9 C 5,5 C 24,1 km/h (4 Bft) 95,83 %
02.04.2016 13:07 11,9 C 56 % 1018,9 hPa 0,0 l/m 17,1 km/h (3 Bft) O-NO 67 1 min 0,000 mm 3,1 UV-I 693 W/m 3,4 C 6,7 C 24,1 km/h (4 Bft) 100,00 %
02.04.2016 13:08 11,9 C 59 % 1018,8 hPa 0,0 l/m 18,6 km/h (3 Bft) O-NO 57 1 min 0,000 mm 3,1 UV-I 693 W/m 4,1 C 6,2 C 29,0 km/h (5 Bft) 100,00 %
02.04.2016 13:09 11,9 C 60 % 1018,8 hPa 0,0 l/m 19,9 km/h (4 Bft) O-NO 67 1 min 0,000 mm 3,1 UV-I 695 W/m 4,4 C 5,8 C 27,4 km/h (4 Bft) 100,00 %
02.04.2016 13:10 12,0 C 58 % 1018,8 hPa 0,0 l/m 20,3 km/h (4 Bft) NO 51 1 min 0,000 mm 3,1 UV-I 697 W/m 4,0 C 5,8 C 27,4 km/h (4 Bft) 100,00 %
02.04.2016 13:11 12,1 C 58 % 1018,8 hPa 0,0 l/m 23,3 km/h (4 Bft) O-NO 66 1 min 0,000 mm 3,1 UV-I 698 W/m 4,1 C 5,1 C 30,6 km/h (5 Bft) 100,00 %
02.04.2016 13:12 12,1 C 57 % 1018,8 hPa 0,0 l/m 26,6 km/h (4 Bft) NO 55 1 min 0,000 mm 3,1 UV-I 698 W/m 3,8 C 4,3 C 33,8 km/h (5 Bft) 100,00 %
02.04.2016 13:13 12,1 C 56 % 1018,8 hPa 0,0 l/m 21,6 km/h (4 Bft) O-NO 64 1 min 0,000 mm 3,1 UV-I 698 W/m 3,6 C 5,5 C 27,4 km/h (4 Bft) 100,00 %
02.04.2016 13:14 12,1 C 57 % 1018,8 hPa 0,0 l/m 18,0 km/h (3 Bft) O-NO 66 1 min 0,000 mm 3,1 UV-I 697 W/m 3,8 C 6,6 C 27,4 km/h (4 Bft) 100,00 %
02.04.2016 13:15 12,0 C 56 % 1018,7 hPa 0,0 l/m 20,7 km/h (4 Bft) O-NO 72 1 min 0,000 mm 3,1 UV-I 696 W/m 3,5 C 5,7 C 25,7 km/h (4 Bft) 95,65 %
02.04.2016 13:16 12,1 C 58 % 1018,7 hPa 0,0 l/m 20,5 km/h (4 Bft) O-NO 75 1 min 0,000 mm 3,1 UV-I 696 W/m 4,1 C 5,9 C 27,4 km/h (4 Bft) 100,00 %
02.04.2016 13:17 12,1 C 59 % 1018,7 hPa 0,0 l/m 19,2 km/h (3 Bft) NO 53 1 min 0,000 mm 3,1 UV-I 694 W/m 4,3 C 6,2 C 27,4 km/h (4 Bft) 100,00 %
02.04.2016 13:18 12,2 C 58 % 1018,7 hPa 0,0 l/m 21,1 km/h (4 Bft) O-NO 62 1 min 0,000 mm 3,1 UV-I 691 W/m 4,2 C 5,8 C 25,7 km/h (4 Bft) 100,00 %
02.04.2016 13:19 12,3 C 59 % 1018,6 hPa 0,0 l/m 18,2 km/h (3 Bft) O-NO 69 1 min 0,000 mm 3,1 UV-I 693 W/m 4,5 C 6,8 C 22,5 km/h (4 Bft) 100,00 %
02.04.2016 13:20 12,3 C 58 % 1018,6 hPa 0,0 l/m 20,7 km/h (4 Bft) O-NO 67 1 min 0,000 mm 3,1 UV-I 694 W/m 4,3 C 6,1 C 29,0 km/h (5 Bft) 100,00 %
02.04.2016 13:21 12,3 C 57 % 1018,7 hPa 0,0 l/m 19,8 km/h (3 Bft) O-NO 71 1 min 0,000 mm 3,1 UV-I 694 W/m 4,0 C 6,3 C 29,0 km/h (5 Bft) 100,00 %
02.04.2016 13:22 12,3 C 59 % 1018,6 hPa 0,0 l/m 18,4 km/h (3 Bft) O-NO 63 1 min 0,000 mm 3,1 UV-I 694 W/m 4,5 C 6,7 C 25,7 km/h (4 Bft) 100,00 %
02.04.2016 13:23 12,3 C 58 % 1018,6 hPa 0,0 l/m 18,3 km/h (3 Bft) O-NO 69 1 min 0,000 mm 3,1 UV-I 696 W/m 4,3 C 6,8 C 27,4 km/h (4 Bft) 100,00 %
02.04.2016 13:24 12,4 C 57 % 1018,7 hPa 0,0 l/m 21,9 km/h (4 Bft) O-NO 75 1 min 0,000 mm 3,1 UV-I 698 W/m 4,1 C 5,9 C 27,4 km/h (4 Bft) 100,00 %
02.04.2016 13:25 12,4 C 58 % 1018,7 hPa 0,0 l/m 22,3 km/h (4 Bft) O-NO 67 1 min 0,000 mm 3,1 UV-I 695 W/m 4,4 C 5,8 C 25,7 km/h (4 Bft) 100,00 %
02.04.2016 13:26 12,4 C 57 % 1018,6 hPa 0,0 l/m 20,9 km/h (4 Bft) O-NO 71 1 min 0,000 mm 3,1 UV-I 693 W/m 4,1 C 6,1 C 27,4 km/h (4 Bft) 100,00 %
02.04.2016 13:27 12,4 C 57 % 1018,7 hPa 0,0 l/m 20,1 km/h (4 Bft) O-NO 57 1 min 0,000 mm 3,1 UV-I 693 W/m 4,1 C 6,4 C 22,5 km/h (4 Bft) 100,00 %
02.04.2016 13:28 12,3 C 58 % 1018,6 hPa 0,0 l/m 16,0 km/h (3 Bft) NO 54 1 min 0,000 mm 3,1 UV-I 694 W/m 4,3 C 7,6 C 22,5 km/h (4 Bft) 100,00 %
02.04.2016 13:29 12,4 C 60 % 1018,7 hPa 0,0 l/m 17,2 km/h (3 Bft) O 81 1 min 0,000 mm 3,0 UV-I 693 W/m 4,9 C 7,3 C 19,3 km/h (3 Bft) 100,00 %
02.04.2016 13:30 12,4 C 59 % 1018,7 hPa 0,0 l/m 14,8 km/h (3 Bft) NO 47 1 min 0,000 mm 3,1 UV-I 693 W/m 4,6 C 8,1 C 20,9 km/h (4 Bft) 95,65 %
02.04.2016 13:31 12,4 C 59 % 1018,6 hPa 0,0 l/m 20,6 km/h (4 Bft) NO 51 1 min 0,000 mm 3,0 UV-I 693 W/m 4,6 C 6,2 C 25,7 km/h (4 Bft) 96,30 %
02.04.2016 13:32 12,6 C 59 % 1018,6 hPa 0,0 l/m 23,1 km/h (4 Bft) O-NO 59 1 min 0,000 mm 3,0 UV-I 693 W/m 4,8 C 5,8 C 29,0 km/h (5 Bft) 100,00 %
02.04.2016 13:33 12,6 C 58 % 1018,6 hPa 0,0 l/m 20,3 km/h (4 Bft) O-NO 69 1 min 0,000 mm 3,0 UV-I 692 W/m 4,6 C 6,6 C 25,7 km/h (4 Bft) 100,00 %
02.04.2016 13:34 12,6 C 57 % 1018,5 hPa 0,0 l/m 18,6 km/h (3 Bft) O-NO 64 1 min 0,000 mm 3,0 UV-I 688 W/m 4,3 C 7,1 C 22,5 km/h (4 Bft) 100,00 %
02.04.2016 13:35 12,6 C 57 % 1018,6 hPa 0,0 l/m 19,4 km/h (3 Bft) NO 52 1 min 0,000 mm 3,0 UV-I 690 W/m 4,3 C 6,8 C 24,1 km/h (4 Bft) 95,83 %
02.04.2016 13:36 12,6 C 57 % 1018,5 hPa 0,0 l/m 19,2 km/h (3 Bft) O-NO 72 1 min 0,000 mm 3,0 UV-I 689 W/m 4,3 C 6,9 C 22,5 km/h (4 Bft) 100,00 %
02.04.2016 13:37 12,6 C 57 % 1018,5 hPa 0,0 l/m 20,0 km/h (4 Bft) NO 41 1 min 0,000 mm 3,0 UV-I 689 W/m 4,3 C 6,6 C 27,4 km/h (4 Bft) 100,00 %
02.04.2016 13:38 12,6 C 58 % 1018,5 hPa 0,0 l/m 18,7 km/h (3 Bft) O-NO 63 1 min 0,000 mm 3,0 UV-I 683 W/m 4,6 C 7,0 C 25,7 km/h (4 Bft) 100,00 %
02.04.2016 13:39 12,6 C 59 % 1018,5 hPa 0,0 l/m 20,2 km/h (4 Bft) O-NO 59 1 min 0,000 mm 3,0 UV-I 681 W/m 4,8 C 6,6 C 27,4 km/h (4 Bft) 100,00 %
02.04.2016 13:40 12,7 C 58 % 1018,5 hPa 0,0 l/m 18,1 km/h (3 Bft) O-NO 60 1 min 0,000 mm 3,0 UV-I 680 W/m 4,7 C 7,3 C 24,1 km/h (4 Bft) 100,00 %
02.04.2016 13:41 12,7 C 57 % 1018,6 hPa 0,0 l/m 20,8 km/h (4 Bft) N-NO 26 1 min 0,000 mm 3,0 UV-I 682 W/m 4,4 C 6,5 C 27,4 km/h (4 Bft) 100,00 %
02.04.2016 13:42 12,7 C 58 % 1018,6 hPa 0,0 l/m 17,7 km/h (3 Bft) O-NO 57 1 min 0,000 mm 3,0 UV-I 680 W/m 4,7 C 7,5 C 22,5 km/h (4 Bft) 100,00 %
02.04.2016 13:43 12,7 C 57 % 1018,6 hPa 0,0 l/m 17,6 km/h (3 Bft) O-NO 57 1 min 0,000 mm 3,0 UV-I 683 W/m 4,4 C 7,5 C 22,5 km/h (4 Bft) 100,00 %
02.04.2016 13:44 12,7 C 57 % 1018,6 hPa 0,0 l/m 19,4 km/h (3 Bft) NO 40 1 min 0,000 mm 3,0 UV-I 686 W/m 4,4 C 6,9 C 25,7 km/h (4 Bft) 100,00 %
02.04.2016 13:45 12,7 C 59 % 1018,5 hPa 0,0 l/m 16,4 km/h (3 Bft) O-NO 65 1 min 0,000 mm 3,0 UV-I 685 W/m 4,9 C 7,9 C 24,1 km/h (4 Bft) 100,00 %
02.04.2016 13:46 12,8 C 58 % 1018,6 hPa 0,0 l/m 20,3 km/h (4 Bft) NO 44 1 min 0,000 mm 2,9 UV-I 680 W/m 4,7 C 6,8 C 25,7 km/h (4 Bft) 100,00 %
02.04.2016 13:47 12,8 C 57 % 1018,5 hPa 0,0 l/m 19,6 km/h (3 Bft) O-NO 61 1 min 0,000 mm 2,9 UV-I 674 W/m 4,5 C 7,0 C 27,4 km/h (4 Bft) 100,00 %
02.04.2016 13:48 12,8 C 58 % 1018,5 hPa 0,0 l/m 22,9 km/h (4 Bft) O-NO 74 1 min 0,000 mm 2,9 UV-I 678 W/m 4,7 C 6,1 C 29,0 km/h (5 Bft) 100,00 %
02.04.2016 13:49 12,8 C 57 % 1018,6 hPa 0,0 l/m 19,3 km/h (3 Bft) O-NO 74 1 min 0,000 mm 2,9 UV-I 682 W/m 4,5 C 7,1 C 29,0 km/h (5 Bft) 96,55 %
02.04.2016 13:50 12,8 C 56 % 1018,5 hPa 0,0 l/m 20,4 km/h (4 Bft) NO 53 1 min 0,000 mm 2,9 UV-I 682 W/m 4,2 C 6,8 C 24,1 km/h (4 Bft) 100,00 %
02.04.2016 13:51 12,8 C 57 % 1018,5 hPa 0,0 l/m 17,1 km/h (3 Bft) NO 50 1 min 0,000 mm 2,9 UV-I 682 W/m 4,5 C 7,8 C 22,5 km/h (4 Bft) 100,00 %
02.04.2016 13:52 12,8 C 57 % 1018,5 hPa 0,0 l/m 16,8 km/h (3 Bft) O-NO 59 1 min 0,000 mm 2,9 UV-I 682 W/m 4,5 C 7,9 C 22,5 km/h (4 Bft) 100,00 %
02.04.2016 13:53 12,9 C 57 % 1018,4 hPa 0,0 l/m 14,8 km/h (3 Bft) NO 42 1 min 0,000 mm 2,9 UV-I 682 W/m 4,6 C 8,7 C 19,3 km/h (3 Bft) 100,00 %
02.04.2016 13:54 12,9 C 58 % 1018,4 hPa 0,0 l/m 14,1 km/h (3 Bft) NO 38 1 min 0,000 mm 2,9 UV-I 680 W/m 4,8 C 9,0 C 22,5 km/h (4 Bft) 100,00 %
02.04.2016 13:55 12,9 C 57 % 1018,4 hPa 0,0 l/m 17,0 km/h (3 Bft) NO 48 1 min 0,000 mm 2,9 UV-I 680 W/m 4,6 C 8,0 C 24,1 km/h (4 Bft) 100,00 %
02.04.2016 13:56 13,0 C 57 % 1018,4 hPa 0,0 l/m 21,6 km/h (4 Bft) NO 39 1 min 0,000 mm 2,9 UV-I 680 W/m 4,7 C 6,7 C 25,7 km/h (4 Bft) 100,00 %
02.04.2016 13:57 13,0 C 58 % 1018,4 hPa 0,0 l/m 17,3 km/h (3 Bft) NO 46 1 min 0,000 mm 2,9 UV-I 680 W/m 4,9 C 8,0 C 20,9 km/h (4 Bft) 100,00 %
02.04.2016 13:58 13,1 C 58 % 1018,4 hPa 0,0 l/m 15,7 km/h (3 Bft) O-NO 65 1 min 0,000 mm 2,9 UV-I 680 W/m 5,0 C 8,6 C 17,7 km/h (3 Bft) 100,00 %
02.04.2016 13:59 13,1 C 58 % 1018,3 hPa 0,0 l/m 12,2 km/h (2 Bft) NO 37 1 min 0,000 mm 2,9 UV-I 680 W/m 5,0 C 10,0 C 17,7 km/h (3 Bft) 100,00 %
02.04.2016 14:00 13,2 C 58 % 1018,3 hPa 0,0 l/m 14,6 km/h (3 Bft) NO 47 1 min 0,000 mm 2,9 UV-I 679 W/m 5,1 C 9,2 C 20,9 km/h (4 Bft) 100,00 %
02.04.2016 14:01 13,3 C 59 % 1018,3 hPa 0,0 l/m 18,1 km/h (3 Bft) O-NO 57 1 min 0,432 mm 2,9 UV-I 676 W/m 5,5 C 8,1 C 24,1 km/h (4 Bft) 95,83 %
02.04.2016 14:02 13,3 C 56 % 1018,3 hPa 0,0 l/m 18,0 km/h (3 Bft) NO 52 1 min 0,000 mm 2,9 UV-I 672 W/m 4,7 C 8,1 C 22,5 km/h (4 Bft) 95,65 %
02.04.2016 14:03 13,3 C 57 % 1018,3 hPa 0,0 l/m 17,4 km/h (3 Bft) NO 52 1 min 0,000 mm 2,8 UV-I 673 W/m 5,0 C 8,3 C 20,9 km/h (4 Bft) 95,83 %
02.04.2016 14:04 13,3 C 56 % 1018,3 hPa 0,0 l/m 16,0 km/h (3 Bft) NO 44 1 min 0,000 mm 2,8 UV-I 671 W/m 4,7 C 8,8 C 20,9 km/h (4 Bft) 95,65 %
02.04.2016 14:05 13,2 C 56 % 1018,2 hPa 0,0 l/m 14,9 km/h (3 Bft) N-NO 16 1 min 0,000 mm 2,8 UV-I 673 W/m 4,6 C 9,0 C 19,3 km/h (3 Bft) 100,00 %
02.04.2016 14:06 13,3 C 57 % 1018,2 hPa 0,0 l/m 18,5 km/h (3 Bft) O-NO 57 1 min 0,000 mm 2,8 UV-I 671 W/m 5,0 C 8,0 C 20,9 km/h (4 Bft) 95,65 %
02.04.2016 14:07 13,3 C 57 % 1018,2 hPa 0,0 l/m 20,0 km/h (4 Bft) NO 53 1 min 0,000 mm 2,8 UV-I 668 W/m 5,0 C 7,6 C 22,5 km/h (4 Bft) 96,30 %
02.04.2016 14:08 13,3 C 55 % 1018,2 hPa 0,0 l/m 19,6 km/h (3 Bft) NO 46 1 min 0,000 mm 2,8 UV-I 671 W/m 4,5 C 7,7 C 22,5 km/h (4 Bft) 100,00 %
02.04.2016 14:09 13,3 C 56 % 1018,2 hPa 0,0 l/m 18,2 km/h (3 Bft) O-NO 57 1 min 0,000 mm 2,8 UV-I 670 W/m 4,7 C 8,1 C 22,5 km/h (4 Bft) 95,83 %
02.04.2016 14:10 13,2 C 56 % 1018,1 hPa 0,0 l/m 16,4 km/h (3 Bft) NO 44 1 min 0,000 mm 2,8 UV-I 670 W/m 4,6 C 8,5 C 20,9 km/h (4 Bft) 100,00 %
02.04.2016 14:11 13,3 C 58 % 1018,1 hPa 0,0 l/m 19,3 km/h (3 Bft) NO 37 1 min 0,000 mm 2,8 UV-I 668 W/m 5,2 C 7,7 C 24,1 km/h (4 Bft) 95,83 %
02.04.2016 14:12 13,3 C 56 % 1018,1 hPa 0,0 l/m 14,4 km/h (3 Bft) O-NO 69 1 min 0,000 mm 2,8 UV-I 665 W/m 4,7 C 9,4 C 20,9 km/h (4 Bft) 100,00 %
02.04.2016 14:13 13,3 C 58 % 1018,1 hPa 0,0 l/m 17,4 km/h (3 Bft) O-NO 74 1 min 0,000 mm 2,8 UV-I 664 W/m 5,2 C 8,3 C 20,9 km/h (4 Bft) 95,83 %
02.04.2016 14:14 13,4 C 56 % 1018,0 hPa 0,0 l/m 19,0 km/h (3 Bft) O-NO 57 1 min 0,000 mm 2,8 UV-I 663 W/m 4,8 C 8,0 C 20,9 km/h (4 Bft) 100,00 %
02.04.2016 14:15 13,4 C 58 % 1018,1 hPa 0,0 l/m 15,2 km/h (3 Bft) N-NO 30 1 min 0,000 mm 2,7 UV-I 662 W/m 5,3 C 9,2 C 20,9 km/h (4 Bft) 97,14 %
02.04.2016 14:16 13,5 C 59 % 1018,0 hPa 0,0 l/m 15,5 km/h (3 Bft) NO 41 1 min 0,000 mm 2,7 UV-I 659 W/m 5,6 C 9,2 C 22,5 km/h (4 Bft) 100,00 %
02.04.2016 14:17 13,6 C 59 % 1018,0 hPa 0,0 l/m 14,5 km/h (3 Bft) NO 50 1 min 0,000 mm 2,7 UV-I 661 W/m 5,7 C 9,7 C 17,7 km/h (3 Bft) 96,15 %
02.04.2016 14:18 13,7 C 56 % 1018,1 hPa 0,0 l/m 17,0 km/h (3 Bft) N-NO 27 1 min 0,000 mm 2,7 UV-I 659 W/m 5,1 C 8,9 C 24,1 km/h (4 Bft) 95,83 %
02.04.2016 14:19 13,7 C 57 % 1018,0 hPa 0,0 l/m 18,3 km/h (3 Bft) NO 50 1 min 0,000 mm 2,7 UV-I 659 W/m 5,3 C 8,6 C 24,1 km/h (4 Bft) 100,00 %
02.04.2016 14:20 13,6 C 59 % 1018,0 hPa 0,0 l/m 16,6 km/h (3 Bft) NO 40 1 min 0,000 mm 2,7 UV-I 659 W/m 5,7 C 9,0 C 22,5 km/h (4 Bft) 95,83 %
02.04.2016 14:21 13,7 C 60 % 1018,0 hPa 0,0 l/m 14,1 km/h (3 Bft) NO 40 1 min 0,000 mm 2,7 UV-I 657 W/m 6,1 C 9,9 C 20,9 km/h (4 Bft) 100,00 %
02.04.2016 14:22 13,8 C 59 % 1018,0 hPa 0,0 l/m 15,6 km/h (3 Bft) O-NO 71 1 min 0,000 mm 2,7 UV-I 656 W/m 5,9 C 9,5 C 19,3 km/h (3 Bft) 91,67 %
02.04.2016 14:23 13,9 C 57 % 1018,0 hPa 0,0 l/m 17,4 km/h (3 Bft) O-NO 64 1 min 0,000 mm 2,7 UV-I 656 W/m 5,5 C 9,1 C 22,5 km/h (4 Bft) 95,65 %
02.04.2016 14:24 13,9 C 57 % 1018,0 hPa 0,0 l/m 18,0 km/h (3 Bft) O-NO 64 1 min 0,000 mm 2,7 UV-I 654 W/m 5,5 C 8,9 C 22,5 km/h (4 Bft) 95,83 %
02.04.2016 14:25 13,9 C 56 % 1018,0 hPa 0,0 l/m 15,2 km/h (3 Bft) O-NO 61 1 min 0,000 mm 2,7 UV-I 651 W/m 5,3 C 9,8 C 19,3 km/h (3 Bft) 95,65 %
02.04.2016 14:26 13,9 C 55 % 1018,0 hPa 0,0 l/m 20,2 km/h (4 Bft) NO 51 1 min 0,000 mm 2,6 UV-I 649 W/m 5,0 C 8,3 C 25,7 km/h (4 Bft) 100,00 %
02.04.2016 14:27 13,9 C 55 % 1018,0 hPa 0,0 l/m 18,0 km/h (3 Bft) O-NO 61 1 min 0,000 mm 2,6 UV-I 649 W/m 5,0 C 8,9 C 24,1 km/h (4 Bft) 91,30 %
02.04.2016 14:28 13,9 C 56 % 1018,0 hPa 0,0 l/m 19,9 km/h (4 Bft) O-NO 72 1 min 0,000 mm 2,6 UV-I 647 W/m 5,3 C 8,4 C 27,4 km/h (4 Bft) 100,00 %
02.04.2016 14:29 13,9 C 55 % 1017,9 hPa 0,0 l/m 14,1 km/h (3 Bft) O-NO 59 1 min 0,000 mm 2,6 UV-I 645 W/m 5,0 C 10,2 C 22,5 km/h (4 Bft) 100,00 %
02.04.2016 14:30 14,0 C 58 % 1017,9 hPa 0,0 l/m 9,6 km/h (2 Bft) N 9 1 min 0,000 mm 2,6 UV-I 643 W/m 5,9 C 12,2 C 14,5 km/h (3 Bft) 95,83 %
02.04.2016 14:31 14,1 C 57 % 1018,0 hPa 0,0 l/m 12,0 km/h (2 Bft) NO 35 1 min 0,000 mm 2,6 UV-I 642 W/m 5,7 C 11,2 C 17,7 km/h (3 Bft) 100,00 %
02.04.2016 14:32 14,2 C 56 % 1017,9 hPa 0,0 l/m 18,3 km/h (3 Bft) N-NO 26 1 min 0,000 mm 2,6 UV-I 642 W/m 5,6 C 9,2 C 25,7 km/h (4 Bft) 100,00 %
02.04.2016 14:33 14,2 C 55 % 1018,0 hPa 0,0 l/m 17,4 km/h (3 Bft) NO 54 1 min 0,000 mm 2,6 UV-I 640 W/m 5,3 C 9,4 C 20,9 km/h (4 Bft) 92,31 %
02.04.2016 14:34 14,2 C 55 % 1017,9 hPa 0,0 l/m 16,0 km/h (3 Bft) N 9 1 min 0,000 mm 2,5 UV-I 640 W/m 5,3 C 9,9 C 22,5 km/h (4 Bft) 100,00 %
02.04.2016 14:35 14,2 C 57 % 1017,9 hPa 0,0 l/m 19,1 km/h (3 Bft) O-NO 63 1 min 0,000 mm 2,5 UV-I 636 W/m 5,8 C 9,0 C 29,0 km/h (5 Bft) 93,33 %
02.04.2016 14:36 14,2 C 57 % 1018,0 hPa 0,0 l/m 19,3 km/h (3 Bft) NO 55 1 min 0,000 mm 2,5 UV-I 634 W/m 5,8 C 8,9 C 22,5 km/h (4 Bft) 95,65 %
02.04.2016 14:37 14,2 C 55 % 1018,0 hPa 0,0 l/m 15,1 km/h (3 Bft) NO 51 1 min 0,000 mm 2,5 UV-I 633 W/m 5,3 C 10,2 C 20,9 km/h (4 Bft) 95,83 %
02.04.2016 14:38 14,1 C 55 % 1018,0 hPa 0,0 l/m 10,1 km/h (2 Bft) NO 40 1 min 0,000 mm 2,5 UV-I 633 W/m 5,2 C 12,1 C 14,5 km/h (3 Bft) 95,65 %
02.04.2016 14:39 14,1 C 55 % 1017,9 hPa 0,0 l/m 16,7 km/h (3 Bft) O-NO 66 1 min 0,000 mm 2,5 UV-I 633 W/m 5,2 C 9,5 C 22,5 km/h (4 Bft) 100,00 %
02.04.2016 14:40 14,1 C 54 % 1017,9 hPa 0,0 l/m 19,2 km/h (3 Bft) O-NO 76 1 min 0,000 mm 2,5 UV-I 632 W/m 4,9 C 8,8 C 25,7 km/h (4 Bft) 96,15 %
02.04.2016 14:41 14,1 C 55 % 1017,8 hPa 0,0 l/m 18,7 km/h (3 Bft) NO 55 1 min 0,000 mm 2,5 UV-I 629 W/m 5,2 C 8,9 C 25,7 km/h (4 Bft) 95,83 %
02.04.2016 14:42 14,2 C 57 % 1017,8 hPa 0,0 l/m 14,6 km/h (3 Bft) N-NO 32 1 min 0,000 mm 2,5 UV-I 629 W/m 5,8 C 10,4 C 19,3 km/h (3 Bft) 95,65 %
02.04.2016 14:43 14,2 C 57 % 1017,8 hPa 0,0 l/m 16,7 km/h (3 Bft) NO 49 1 min 0,000 mm 2,4 UV-I 629 W/m 5,8 C 9,7 C 22,5 km/h (4 Bft) 100,00 %
02.04.2016 14:44 14,3 C 57 % 1017,8 hPa 0,0 l/m 19,0 km/h (3 Bft) NO 36 1 min 0,000 mm 2,4 UV-I 628 W/m 5,9 C 9,1 C 24,1 km/h (4 Bft) 100,00 %
02.04.2016 14:45 14,3 C 57 % 1017,8 hPa 0,0 l/m 18,2 km/h (3 Bft) N-NO 17 1 min 0,000 mm 2,4 UV-I 628 W/m 5,9 C 9,3 C 24,1 km/h (4 Bft) 100,00 %
02.04.2016 14:46 14,3 C 57 % 1017,8 hPa 0,0 l/m 18,1 km/h (3 Bft) O-NO 59 1 min 0,000 mm 2,4 UV-I 626 W/m 5,9 C 9,4 C 20,9 km/h (4 Bft) 95,65 %
02.04.2016 14:47 14,3 C 56 % 1017,8 hPa 0,0 l/m 17,0 km/h (3 Bft) O-NO 67 1 min 0,000 mm 2,4 UV-I 626 W/m 5,6 C 9,7 C 24,1 km/h (4 Bft) 100,00 %
02.04.2016 14:48 14,4 C 56 % 1017,8 hPa 0,0 l/m 17,4 km/h (3 Bft) NO 49 1 min 0,000 mm 2,4 UV-I 625 W/m 5,7 C 9,7 C 22,5 km/h (4 Bft) 100,00 %
02.04.2016 14:49 14,4 C 55 % 1017,8 hPa 0,0 l/m 18,5 km/h (3 Bft) N-NO 26 1 min 0,000 mm 2,4 UV-I 623 W/m 5,5 C 9,4 C 27,4 km/h (4 Bft) 100,00 %
02.04.2016 14:50 14,4 C 54 % 1017,8 hPa 0,0 l/m 17,5 km/h (3 Bft) O-NO 63 1 min 0,000 mm 2,4 UV-I 622 W/m 5,2 C 9,7 C 27,4 km/h (4 Bft) 91,30 %
02.04.2016 14:51 14,4 C 54 % 1017,8 hPa 0,0 l/m 19,3 km/h (3 Bft) NO 39 1 min 0,000 mm 2,4 UV-I 621 W/m 5,2 C 9,2 C 24,1 km/h (4 Bft) 100,00 %
02.04.2016 14:52 14,4 C 56 % 1017,8 hPa 0,0 l/m 12,9 km/h (3 Bft) O-NO 61 1 min 0,000 mm 2,3 UV-I 620 W/m 5,7 C 11,2 C 22,5 km/h (4 Bft) 95,65 %
02.04.2016 14:53 14,4 C 54 % 1017,8 hPa 0,0 l/m 15,4 km/h (3 Bft) N-NO 20 1 min 0,000 mm 2,3 UV-I 615 W/m 5,2 C 10,3 C 19,3 km/h (3 Bft) 100,00 %
02.04.2016 14:54 14,4 C 55 % 1017,8 hPa 0,0 l/m 12,7 km/h (3 Bft) O 86 1 min 0,000 mm 2,3 UV-I 615 W/m 5,5 C 11,3 C 17,7 km/h (3 Bft) 100,00 %
02.04.2016 14:55 14,4 C 57 % 1017,8 hPa 0,0 l/m 10,0 km/h (2 Bft) NO 55 1 min 0,000 mm 2,3 UV-I 613 W/m 6,0 C 12,5 C 17,7 km/h (3 Bft) 96,30 %
02.04.2016 14:56 14,6 C 59 % 1017,8 hPa 0,0 l/m 20,1 km/h (4 Bft) NO 34 1 min 0,000 mm 2,3 UV-I 610 W/m 6,7 C 9,2 C 24,1 km/h (4 Bft) 95,65 %
02.04.2016 14:57 14,6 C 56 % 1017,8 hPa 0,0 l/m 14,9 km/h (3 Bft) N-NO 28 1 min 0,000 mm 2,3 UV-I 608 W/m 5,9 C 10,7 C 19,3 km/h (3 Bft) 100,00 %
02.04.2016 14:58 14,5 C 54 % 1017,8 hPa 0,0 l/m 14,3 km/h (3 Bft) O-NO 67 1 min 0,000 mm 2,3 UV-I 609 W/m 5,3 C 10,8 C 22,5 km/h (4 Bft) 100,00 %
02.04.2016 14:59 14,5 C 54 % 1017,8 hPa 0,0 l/m 15,6 km/h (3 Bft) O-NO 74 1 min 0,000 mm 2,3 UV-I 606 W/m 5,3 C 10,4 C 20,9 km/h (4 Bft) 100,00 %
02.04.2016 15:00 14,5 C 54 % 1017,8 hPa 0,0 l/m 21,1 km/h (4 Bft) N-NO 30 1 min 0,407 mm 2,2 UV-I 606 W/m 5,3 C 8,8 C 29,0 km/h (5 Bft) 100,00 %
02.04.2016 15:01 14,6 C 56 % 1017,7 hPa 0,0 l/m 16,2 km/h (3 Bft) NO 49 1 min 0,000 mm 2,2 UV-I 605 W/m 5,9 C 10,3 C 24,1 km/h (4 Bft) 95,65 %
02.04.2016 15:02 14,6 C 54 % 1017,7 hPa 0,0 l/m 10,7 km/h (2 Bft) NO 40 1 min 0,000 mm 2,2 UV-I 603 W/m 5,4 C 12,4 C 16,1 km/h (3 Bft) 100,00 %
02.04.2016 15:03 14,6 C 54 % 1017,7 hPa 0,0 l/m 9,7 km/h (2 Bft) N-NO 32 1 min 0,000 mm 2,2 UV-I 603 W/m 5,4 C 12,8 C 16,1 km/h (3 Bft) 100,00 %
02.04.2016 15:04 14,6 C 56 % 1017,7 hPa 0,0 l/m 14,3 km/h (3 Bft) NO 39 1 min 0,000 mm 2,2 UV-I 599 W/m 5,9 C 10,9 C 19,3 km/h (3 Bft) 100,00 %
02.04.2016 15:05 14,7 C 56 % 1017,7 hPa 0,0 l/m 15,1 km/h (3 Bft) NO 53 1 min 0,000 mm 2,2 UV-I 598 W/m 6,0 C 10,8 C 24,1 km/h (4 Bft) 100,00 %
02.04.2016 15:06 14,8 C 58 % 1017,6 hPa 0,0 l/m 15,6 km/h (3 Bft) NO 49 1 min 0,000 mm 2,2 UV-I 597 W/m 6,6 C 10,8 C 24,1 km/h (4 Bft) 95,83 %
02.04.2016 15:07 14,9 C 57 % 1017,6 hPa 0,0 l/m 18,3 km/h (3 Bft) N-NO 32 1 min 0,000 mm 2,2 UV-I 595 W/m 6,5 C 10,1 C 22,5 km/h (4 Bft) 100,00 %
02.04.2016 15:08 14,9 C 54 % 1017,7 hPa 0,0 l/m 14,8 km/h (3 Bft) O-NO 59 1 min 0,000 mm 2,2 UV-I 592 W/m 5,7 C 11,1 C 20,9 km/h (4 Bft) 100,00 %
02.04.2016 15:09 14,9 C 53 % 1017,6 hPa 0,0 l/m 17,8 km/h (3 Bft) N-NO 26 1 min 0,000 mm 2,1 UV-I 591 W/m 5,4 C 10,2 C 22,5 km/h (4 Bft) 100,00 %
02.04.2016 15:10 14,9 C 56 % 1017,6 hPa 0,0 l/m 18,4 km/h (3 Bft) O-NO 63 1 min 0,000 mm 2,1 UV-I 590 W/m 6,2 C 10,0 C 20,9 km/h (4 Bft) 100,00 %
02.04.2016 15:11 14,9 C 53 % 1017,6 hPa 0,0 l/m 17,9 km/h (3 Bft) NO 34 1 min 0,000 mm 2,1 UV-I 588 W/m 5,4 C 10,2 C 22,5 km/h (4 Bft) 100,00 %
02.04.2016 15:12 14,9 C 56 % 1017,6 hPa 0,0 l/m 12,1 km/h (2 Bft) NO 47 1 min 0,000 mm 2,1 UV-I 586 W/m 6,2 C 12,1 C 16,1 km/h (3 Bft) 100,00 %
02.04.2016 15:13 14,9 C 53 % 1017,6 hPa 0,0 l/m 16,8 km/h (3 Bft) N-NO 22 1 min 0,000 mm 2,1 UV-I 584 W/m 5,4 C 10,5 C 22,5 km/h (4 Bft) 100,00 %
02.04.2016 15:14 14,9 C 53 % 1017,6 hPa 0,0 l/m 13,2 km/h (3 Bft) NO 39 1 min 0,000 mm 2,1 UV-I 579 W/m 5,4 C 11,7 C 17,7 km/h (3 Bft) 100,00 %
02.04.2016 15:15 14,9 C 56 % 1017,6 hPa 0,0 l/m 21,5 km/h (4 Bft) NO 43 1 min 0,000 mm 2,0 UV-I 570 W/m 6,2 C 9,2 C 25,7 km/h (4 Bft) 100,00 %
02.04.2016 15:16 14,9 C 55 % 1017,5 hPa 0,0 l/m 17,4 km/h (3 Bft) NO 47 1 min 0,000 mm 2,0 UV-I 560 W/m 5,9 C 10,3 C 24,1 km/h (4 Bft) 100,00 %
02.04.2016 15:17 14,8 C 56 % 1017,6 hPa 0,0 l/m 15,8 km/h (3 Bft) NO 51 1 min 0,000 mm 2,0 UV-I 559 W/m 6,1 C 10,7 C 22,5 km/h (4 Bft) 100,00 %
02.04.2016 15:18 14,8 C 54 % 1017,5 hPa 0,0 l/m 12,6 km/h (3 Bft) NO 46 1 min 0,000 mm 2,0 UV-I 555 W/m 5,6 C 11,8 C 19,3 km/h (3 Bft) 100,00 %
02.04.2016 15:19 14,8 C 55 % 1017,5 hPa 0,0 l/m 15,4 km/h (3 Bft) O-NO 60 1 min 0,000 mm 2,0 UV-I 563 W/m 5,8 C 10,8 C 22,5 km/h (4 Bft) 95,83 %
02.04.2016 15:20 14,9 C 54 % 1017,5 hPa 0,0 l/m 10,9 km/h (2 Bft) NO 36 1 min 0,000 mm 1,9 UV-I 549 W/m 5,7 C 12,6 C 16,1 km/h (3 Bft) 100,00 %
02.04.2016 15:21 14,9 C 56 % 1017,5 hPa 0,0 l/m 11,7 km/h (2 Bft) O-NO 64 1 min 0,000 mm 1,9 UV-I 559 W/m 6,2 C 12,3 C 19,3 km/h (3 Bft) 100,00 %
02.04.2016 15:22 14,9 C 55 % 1017,5 hPa 0,0 l/m 14,8 km/h (3 Bft) O-NO 61 1 min 0,000 mm 1,9 UV-I 552 W/m 5,9 C 11,1 C 20,9 km/h (4 Bft) 100,00 %
02.04.2016 15:23 14,9 C 53 % 1017,5 hPa 0,0 l/m 14,1 km/h (3 Bft) O 80 1 min 0,000 mm 1,9 UV-I 547 W/m 5,4 C 11,4 C 17,7 km/h (3 Bft) 100,00 %
02.04.2016 15:24 14,9 C 55 % 1017,5 hPa 0,0 l/m 12,4 km/h (3 Bft) NO 41 1 min 0,000 mm 1,9 UV-I 538 W/m 5,9 C 12,0 C 20,9 km/h (4 Bft) 100,00 %
02.04.2016 15:25 14,9 C 53 % 1017,4 hPa 0,0 l/m 15,6 km/h (3 Bft) O-NO 64 1 min 0,000 mm 1,9 UV-I 538 W/m 5,4 C 10,9 C 22,5 km/h (4 Bft) 100,00 %
02.04.2016 15:26 14,9 C 54 % 1017,4 hPa 0,0 l/m 11,5 km/h (2 Bft) NO 45 1 min 0,000 mm 1,8 UV-I 532 W/m 5,7 C 12,4 C 19,3 km/h (3 Bft) 100,00 %
02.04.2016 15:27 15,0 C 56 % 1017,3 hPa 0,0 l/m 17,1 km/h (3 Bft) O-NO 65 1 min 0,000 mm 1,8 UV-I 525 W/m 6,3 C 10,5 C 25,7 km/h (4 Bft) 100,00 %
02.04.2016 15:28 15,1 C 53 % 1017,3 hPa 0,0 l/m 19,8 km/h (3 Bft) O-NO 66 1 min 0,000 mm 1,8 UV-I 520 W/m 5,6 C 9,9 C 25,7 km/h (4 Bft) 100,00 %
02.04.2016 15:29 15,0 C 54 % 1017,3 hPa 0,0 l/m 14,1 km/h (3 Bft) O 82 1 min 0,000 mm 1,8 UV-I 522 W/m 5,8 C 11,5 C 17,7 km/h (3 Bft) 100,00 %
02.04.2016 15:30 14,9 C 54 % 1017,4 hPa 0,0 l/m 13,9 km/h (3 Bft) O-NO 64 1 min 0,000 mm 1,8 UV-I 521 W/m 5,7 C 11,4 C 17,7 km/h (3 Bft) 100,00 %
02.04.2016 15:31 14,9 C 54 % 1017,4 hPa 0,0 l/m 11,9 km/h (2 Bft) O-NO 59 1 min 0,000 mm 1,7 UV-I 515 W/m 5,7 C 12,2 C 17,7 km/h (3 Bft) 100,00 %
02.04.2016 15:32 14,9 C 56 % 1017,3 hPa 0,0 l/m 12,3 km/h (3 Bft) O-NO 76 1 min 0,000 mm 1,7 UV-I 507 W/m 6,2 C 12,0 C 17,7 km/h (3 Bft) 100,00 %
02.04.2016 15:33 15,0 C 54 % 1017,3 hPa 0,0 l/m 13,8 km/h (3 Bft) O-NO 69 1 min 0,000 mm 1,7 UV-I 496 W/m 5,8 C 11,6 C 16,1 km/h (3 Bft) 100,00 %
02.04.2016 15:34 15,1 C 54 % 1017,2 hPa 0,0 l/m 13,7 km/h (3 Bft) NO 53 1 min 0,000 mm 1,7 UV-I 488 W/m 5,9 C 11,8 C 20,9 km/h (4 Bft) 100,00 %
02.04.2016 15:35 15,0 C 53 % 1017,2 hPa 0,0 l/m 23,0 km/h (4 Bft) O-NO 65 1 min 0,000 mm 1,6 UV-I 459 W/m 5,5 C 9,0 C 30,6 km/h (5 Bft) 100,00 %
02.04.2016 15:36 14,9 C 53 % 1017,3 hPa 0,0 l/m 17,1 km/h (3 Bft) N-NO 31 1 min 0,000 mm 1,6 UV-I 447 W/m 5,4 C 10,4 C 22,5 km/h (4 Bft) 100,00 %
02.04.2016 15:37 14,9 C 53 % 1017,3 hPa 0,0 l/m 16,7 km/h (3 Bft) NO 49 1 min 0,000 mm 1,6 UV-I 448 W/m 5,4 C 10,5 C 22,5 km/h (4 Bft) 100,00 %
02.04.2016 15:38 14,8 C 53 % 1017,2 hPa 0,0 l/m 15,5 km/h (3 Bft) NO 38 1 min 0,000 mm 1,6 UV-I 458 W/m 5,3 C 10,8 C 24,1 km/h (4 Bft) 100,00 %
02.04.2016 15:39 14,8 C 56 % 1017,2 hPa 0,0 l/m 15,9 km/h (3 Bft) N-NO 32 1 min 0,000 mm 1,5 UV-I 439 W/m 6,1 C 10,7 C 24,1 km/h (4 Bft) 100,00 %
02.04.2016 15:40 14,8 C 55 % 1017,2 hPa 0,0 l/m 17,3 km/h (3 Bft) O-NO 57 1 min 0,000 mm 1,5 UV-I 417 W/m 5,8 C 10,2 C 22,5 km/h (4 Bft) 100,00 %
02.04.2016 15:41 14,8 C 53 % 1017,2 hPa 0,0 l/m 17,0 km/h (3 Bft) O-NO 65 1 min 0,000 mm 1,5 UV-I 434 W/m 5,3 C 10,3 C 22,5 km/h (4 Bft) 100,00 %
02.04.2016 15:42 14,8 C 53 % 1017,2 hPa 0,0 l/m 22,1 km/h (4 Bft) O-NO 65 1 min 0,000 mm 1,5 UV-I 452 W/m 5,3 C 9,0 C 29,0 km/h (5 Bft) 100,00 %
02.04.2016 15:43 14,8 C 52 % 1017,2 hPa 0,0 l/m 17,8 km/h (3 Bft) NO 46 1 min 0,000 mm 1,5 UV-I 462 W/m 5,0 C 10,1 C 25,7 km/h (4 Bft) 100,00 %
02.04.2016 15:44 14,8 C 54 % 1017,2 hPa 0,0 l/m 18,2 km/h (3 Bft) O-NO 74 1 min 0,000 mm 1,5 UV-I 467 W/m 5,6 C 10,0 C 22,5 km/h (4 Bft) 100,00 %
02.04.2016 15:45 14,8 C 53 % 1017,2 hPa 0,0 l/m 18,7 km/h (3 Bft) NO 55 1 min 0,000 mm 1,6 UV-I 484 W/m 5,3 C 9,8 C 24,1 km/h (4 Bft) 100,00 %
02.04.2016 15:46 14,8 C 54 % 1017,2 hPa 0,0 l/m 16,5 km/h (3 Bft) O 79 1 min 0,000 mm 1,6 UV-I 503 W/m 5,6 C 10,5 C 20,9 km/h (4 Bft) 95,83 %
02.04.2016 15:47 14,8 C 54 % 1017,1 hPa 0,0 l/m 12,0 km/h (2 Bft) NO 39 1 min 0,000 mm 1,6 UV-I 514 W/m 5,6 C 12,0 C 16,1 km/h (3 Bft) 100,00 %
02.04.2016 15:48 14,9 C 55 % 1017,2 hPa 0,0 l/m 20,3 km/h (4 Bft) NO 42 1 min 0,000 mm 1,6 UV-I 517 W/m 5,9 C 9,5 C 27,4 km/h (4 Bft) 95,83 %
02.04.2016 15:49 14,8 C 52 % 1017,1 hPa 0,0 l/m 21,4 km/h (4 Bft) O-NO 58 1 min 0,000 mm 1,6 UV-I 519 W/m 5,0 C 9,1 C 27,4 km/h (4 Bft) 96,15 %
02.04.2016 15:50 14,8 C 52 % 1017,1 hPa 0,0 l/m 17,5 km/h (3 Bft) NO 50 1 min 0,000 mm 1,6 UV-I 520 W/m 5,0 C 10,2 C 20,9 km/h (4 Bft) 95,83 %
02.04.2016 15:51 14,8 C 53 % 1017,1 hPa 0,0 l/m 19,8 km/h (3 Bft) NO 51 1 min 0,000 mm 1,6 UV-I 517 W/m 5,3 C 9,5 C 27,4 km/h (4 Bft) 95,65 %
02.04.2016 15:52 14,8 C 52 % 1017,1 hPa 0,0 l/m 17,4 km/h (3 Bft) NO 47 1 min 0,000 mm 1,6 UV-I 514 W/m 5,0 C 10,2 C 20,9 km/h (4 Bft) 100,00 %
02.04.2016 15:53 14,9 C 52 % 1017,1 hPa 0,0 l/m 21,1 km/h (4 Bft) O-NO 69 1 min 0,000 mm 1,5 UV-I 513 W/m 5,1 C 9,3 C 29,0 km/h (5 Bft) 91,67 %
02.04.2016 15:54 14,9 C 52 % 1017,1 hPa 0,0 l/m 27,8 km/h (4 Bft) O-NO 58 1 min 0,000 mm 1,5 UV-I 511 W/m 5,1 C 7,9 C 33,8 km/h (5 Bft) 100,00 %
02.04.2016 15:55 14,8 C 51 % 1017,1 hPa 0,0 l/m 25,1 km/h (4 Bft) O-NO 60 1 min 0,000 mm 1,5 UV-I 505 W/m 4,8 C 8,3 C 30,6 km/h (5 Bft) 95,83 %
02.04.2016 15:56 14,8 C 51 % 1017,1 hPa 0,0 l/m 24,7 km/h (4 Bft) NO 38 1 min 0,000 mm 1,5 UV-I 499 W/m 4,8 C 8,4 C 29,0 km/h (5 Bft) 96,15 %
02.04.2016 15:57 14,8 C 52 % 1017,1 hPa 0,0 l/m 22,1 km/h (4 Bft) O-NO 66 1 min 0,000 mm 1,5 UV-I 495 W/m 5,0 C 9,0 C 32,2 km/h (5 Bft) 91,67 %
02.04.2016 15:58 14,8 C 52 % 1017,0 hPa 0,0 l/m 25,3 km/h (4 Bft) O-NO 57 1 min 0,000 mm 1,5 UV-I 490 W/m 5,0 C 8,3 C 30,6 km/h (5 Bft) 100,00 %
02.04.2016 15:59 14,8 C 52 % 1017,0 hPa 0,0 l/m 22,5 km/h (4 Bft) NO 37 1 min 0,000 mm 1,5 UV-I 489 W/m 5,0 C 8,9 C 29,0 km/h (5 Bft) 95,83 %
02.04.2016 16:00 14,8 C 53 % 1016,9 hPa 0,0 l/m 21,3 km/h (4 Bft) O-NO 58 1 min 0,000 mm 1,4 UV-I 489 W/m 5,3 C 9,2 C 30,6 km/h (5 Bft) 95,65 %
02.04.2016 16:01 14,8 C 52 % 1016,9 hPa 0,0 l/m 23,5 km/h (4 Bft) O-NO 76 1 min 0,355 mm 1,4 UV-I 487 W/m 5,0 C 8,7 C 30,6 km/h (5 Bft) 100,00 %
02.04.2016 16:02 14,8 C 52 % 1016,9 hPa 0,0 l/m 24,0 km/h (4 Bft) NO 49 1 min 0,000 mm 1,4 UV-I 483 W/m 5,0 C 8,5 C 29,0 km/h (5 Bft) 95,65 %
02.04.2016 16:03 14,8 C 53 % 1016,9 hPa 0,0 l/m 19,6 km/h (3 Bft) NO 46 1 min 0,000 mm 1,4 UV-I 482 W/m 5,3 C 9,6 C 24,1 km/h (4 Bft) 95,83 %
02.04.2016 16:04 14,8 C 53 % 1016,9 hPa 0,0 l/m 23,7 km/h (4 Bft) O-NO 60 1 min 0,000 mm 1,4 UV-I 479 W/m 5,3 C 8,6 C 29,0 km/h (5 Bft) 95,65 %
02.04.2016 16:05 14,8 C 53 % 1016,9 hPa 0,0 l/m 22,9 km/h (4 Bft) O-NO 59 1 min 0,000 mm 1,4 UV-I 477 W/m 5,3 C 8,8 C 27,4 km/h (4 Bft) 100,00 %
02.04.2016 16:06 14,9 C 52 % 1016,8 hPa 0,0 l/m 24,6 km/h (4 Bft) NO 53 1 min 0,000 mm 1,3 UV-I 475 W/m 5,1 C 8,6 C 29,0 km/h (5 Bft) 95,65 %
02.04.2016 16:07 14,9 C 52 % 1016,8 hPa 0,0 l/m 22,3 km/h (4 Bft) O-NO 71 1 min 0,000 mm 1,3 UV-I 472 W/m 5,1 C 9,1 C 29,0 km/h (5 Bft) 100,00 %
02.04.2016 16:08 14,9 C 53 % 1016,8 hPa 0,0 l/m 13,8 km/h (3 Bft) NO 38 1 min 0,000 mm 1,3 UV-I 468 W/m 5,4 C 11,5 C 17,7 km/h (3 Bft) 95,65 %
02.04.2016 16:09 14,9 C 54 % 1016,8 hPa 0,0 l/m 18,4 km/h (3 Bft) O-NO 61 1 min 0,000 mm 1,3 UV-I 460 W/m 5,7 C 10,0 C 29,0 km/h (5 Bft) 91,67 %
02.04.2016 16:10 15,0 C 53 % 1016,9 hPa 0,0 l/m 21,6 km/h (4 Bft) O 95 1 min 0,000 mm 1,3 UV-I 433 W/m 5,5 C 9,4 C 27,4 km/h (4 Bft) 95,65 %
02.04.2016 16:11 14,9 C 52 % 1016,9 hPa 0,0 l/m 19,0 km/h (3 Bft) NO 47 1 min 0,000 mm 1,3 UV-I 423 W/m 5,1 C 9,9 C 24,1 km/h (4 Bft) 95,83 %
02.04.2016 16:12 14,9 C 52 % 1016,9 hPa 0,0 l/m 18,0 km/h (3 Bft) O 80 1 min 0,000 mm 1,2 UV-I 412 W/m 5,1 C 10,2 C 27,4 km/h (4 Bft) 96,15 %
02.04.2016 16:13 14,9 C 53 % 1016,9 hPa 0,0 l/m 16,2 km/h (3 Bft) N-NO 21 1 min 0,000 mm 1,2 UV-I 401 W/m 5,4 C 10,7 C 20,9 km/h (4 Bft) 95,83 %
02.04.2016 16:14 14,9 C 52 % 1016,8 hPa 0,0 l/m 15,7 km/h (3 Bft) NO 43 1 min 0,000 mm 1,2 UV-I 380 W/m 5,1 C 10,8 C 22,5 km/h (4 Bft) 100,00 %
02.04.2016 16:15 14,9 C 53 % 1016,8 hPa 0,0 l/m 21,1 km/h (4 Bft) O-NO 63 1 min 0,000 mm 1,1 UV-I 339 W/m 5,4 C 9,3 C 25,7 km/h (4 Bft) 95,83 %
02.04.2016 16:16 14,9 C 53 % 1016,8 hPa 0,0 l/m 23,2 km/h (4 Bft) O-NO 59 1 min 0,000 mm 1,1 UV-I 353 W/m 5,4 C 8,9 C 30,6 km/h (5 Bft) 100,00 %
02.04.2016 16:17 14,9 C 53 % 1016,8 hPa 0,0 l/m 16,8 km/h (3 Bft) NO 54 1 min 0,000 mm 1,1 UV-I 378 W/m 5,4 C 10,5 C 20,9 km/h (4 Bft) 100,00 %
02.04.2016 16:18 14,9 C 52 % 1016,8 hPa 0,0 l/m 24,7 km/h (4 Bft) NO 52 1 min 0,000 mm 1,1 UV-I 385 W/m 5,1 C 8,5 C 30,6 km/h (5 Bft) 100,00 %
02.04.2016 16:19 14,9 C 52 % 1016,8 hPa 0,0 l/m 18,4 km/h (3 Bft) O-NO 57 1 min 0,000 mm 1,1 UV-I 381 W/m 5,1 C 10,0 C 24,1 km/h (4 Bft) 100,00 %
02.04.2016 16:20 14,9 C 54 % 1016,8 hPa 0,0 l/m 15,3 km/h (3 Bft) NO 45 1 min 0,000 mm 1,1 UV-I 365 W/m 5,7 C 11,0 C 25,7 km/h (4 Bft) 100,00 %
02.04.2016 16:21 14,9 C 52 % 1016,8 hPa 0,0 l/m 19,2 km/h (3 Bft) O-NO 76 1 min 0,000 mm 1,0 UV-I 348 W/m 5,1 C 9,8 C 25,7 km/h (4 Bft) 95,83 %
02.04.2016 16:22 14,9 C 54 % 1016,8 hPa 0,0 l/m 18,7 km/h (3 Bft) NO 44 1 min 0,000 mm 1,0 UV-I 318 W/m 5,7 C 10,0 C 24,1 km/h (4 Bft) 100,00 %
02.04.2016 16:23 14,9 C 52 % 1016,8 hPa 0,0 l/m 24,3 km/h (4 Bft) O 90 1 min 0,000 mm 1,0 UV-I 293 W/m 5,1 C 8,6 C 32,2 km/h (5 Bft) 100,00 %
02.04.2016 16:24 14,9 C 52 % 1016,7 hPa 0,0 l/m 25,5 km/h (4 Bft) N-NO 33 1 min 0,000 mm 1,0 UV-I 309 W/m 5,1 C 8,4 C 30,6 km/h (5 Bft) 95,83 %
02.04.2016 16:25 14,9 C 52 % 1016,8 hPa 0,0 l/m 18,7 km/h (3 Bft) O-NO 72 1 min 0,000 mm 1,0 UV-I 365 W/m 5,1 C 10,0 C 25,7 km/h (4 Bft) 100,00 %
02.04.2016 16:26 14,9 C 53 % 1016,8 hPa 0,0 l/m 15,0 km/h (3 Bft) O-NO 71 1 min 0,000 mm 1,0 UV-I 374 W/m 5,4 C 11,1 C 24,1 km/h (4 Bft) 100,00 %
02.04.2016 16:27 14,9 C 52 % 1016,8 hPa 0,0 l/m 22,9 km/h (4 Bft) O 79 1 min 0,000 mm 1,0 UV-I 375 W/m 5,1 C 8,9 C 32,2 km/h (5 Bft) 91,30 %
02.04.2016 16:28 14,9 C 52 % 1016,8 hPa 0,0 l/m 23,5 km/h (4 Bft) O-NO 60 1 min 0,000 mm 1,0 UV-I 386 W/m 5,1 C 8,8 C 29,0 km/h (5 Bft) 100,00 %
02.04.2016 16:29 14,8 C 52 % 1016,8 hPa 0,0 l/m 20,4 km/h (4 Bft) SO 125 1 min 0,000 mm 1,0 UV-I 384 W/m 5,0 C 9,4 C 29,0 km/h (5 Bft) 100,00 %
02.04.2016 16:30 14,8 C 52 % 1016,8 hPa 0,0 l/m 21,0 km/h (4 Bft) O-NO 67 1 min 0,000 mm 1,0 UV-I 363 W/m 5,0 C 9,2 C 27,4 km/h (4 Bft) 100,00 %
02.04.2016 16:31 14,8 C 52 % 1016,8 hPa 0,0 l/m 19,1 km/h (3 Bft) O 87 1 min 0,000 mm 0,9 UV-I 327 W/m 5,0 C 9,7 C 20,9 km/h (4 Bft) 100,00 %
02.04.2016 16:32 14,8 C 53 % 1016,7 hPa 0,0 l/m 18,0 km/h (3 Bft) O-NO 72 1 min 0,000 mm 0,9 UV-I 301 W/m 5,3 C 10,0 C 25,7 km/h (4 Bft) 100,00 %
02.04.2016 16:33 14,8 C 53 % 1016,8 hPa 0,0 l/m 18,2 km/h (3 Bft) NO 40 1 min 0,000 mm 0,9 UV-I 300 W/m 5,3 C 10,0 C 24,1 km/h (4 Bft) 100,00 %
02.04.2016 16:34 14,8 C 53 % 1016,8 hPa 0,0 l/m 19,9 km/h (4 Bft) NO 50 1 min 0,000 mm 0,9 UV-I 290 W/m 5,3 C 9,5 C 24,1 km/h (4 Bft) 100,00 %
02.04.2016 16:35 14,8 C 54 % 1016,8 hPa 0,0 l/m 15,7 km/h (3 Bft) O-NO 77 1 min 0,000 mm 0,8 UV-I 294 W/m 5,6 C 10,7 C 22,5 km/h (4 Bft) 91,30 %
02.04.2016 16:36 14,8 C 54 % 1016,8 hPa 0,0 l/m 16,6 km/h (3 Bft) NO 45 1 min 0,000 mm 0,8 UV-I 290 W/m 5,6 C 10,4 C 25,7 km/h (4 Bft) 100,00 %
02.04.2016 16:37 14,8 C 53 % 1016,7 hPa 0,0 l/m 18,0 km/h (3 Bft) O-NO 63 1 min 0,000 mm 0,9 UV-I 319 W/m 5,3 C 10,0 C 24,1 km/h (4 Bft) 100,00 %
02.04.2016 16:38 14,8 C 54 % 1016,8 hPa 0,0 l/m 17,6 km/h (3 Bft) NO 44 1 min 0,000 mm 0,9 UV-I 344 W/m 5,6 C 10,1 C 24,1 km/h (4 Bft) 95,65 %
02.04.2016 16:39 14,8 C 53 % 1016,8 hPa 0,0 l/m 22,0 km/h (4 Bft) NO 48 1 min 0,000 mm 0,9 UV-I 341 W/m 5,3 C 9,0 C 30,6 km/h (5 Bft) 100,00 %
02.04.2016 16:40 14,8 C 53 % 1016,8 hPa 0,0 l/m 18,8 km/h (3 Bft) N-NO 31 1 min 0,000 mm 0,9 UV-I 332 W/m 5,3 C 9,8 C 24,1 km/h (4 Bft) 100,00 %
02.04.2016 16:41 14,9 C 52 % 1016,7 hPa 0,0 l/m 22,7 km/h (4 Bft) O-NO 65 1 min 0,000 mm 0,9 UV-I 346 W/m 5,1 C 9,0 C 32,2 km/h (5 Bft) 100,00 %
02.04.2016 16:42 14,9 C 52 % 1016,7 hPa 0,0 l/m 21,7 km/h (4 Bft) O-NO 58 1 min 0,000 mm 0,8 UV-I 331 W/m 5,1 C 9,2 C 27,4 km/h (4 Bft) 100,00 %
02.04.2016 16:43 14,9 C 53 % 1016,7 hPa 0,0 l/m 16,6 km/h (3 Bft) NO 49 1 min 0,000 mm 0,8 UV-I 317 W/m 5,4 C 10,6 C 25,7 km/h (4 Bft) 100,00 %
02.04.2016 16:44 14,9 C 53 % 1016,6 hPa 0,0 l/m 14,9 km/h (3 Bft) NO 53 1 min 0,000 mm 0,8 UV-I 325 W/m 5,4 C 11,1 C 20,9 km/h (4 Bft) 100,00 %
02.04.2016 16:45 14,9 C 53 % 1016,6 hPa 0,0 l/m 18,7 km/h (3 Bft) NO 53 1 min 0,000 mm 0,8 UV-I 340 W/m 5,4 C 10,0 C 27,4 km/h (4 Bft) 100,00 %
02.04.2016 16:46 14,9 C 53 % 1016,7 hPa 0,0 l/m 19,7 km/h (3 Bft) O 82 1 min 0,000 mm 0,8 UV-I 362 W/m 5,4 C 9,7 C 25,7 km/h (4 Bft) 100,00 %
02.04.2016 16:47 14,9 C 53 % 1016,8 hPa 0,0 l/m 21,1 km/h (4 Bft) NO 52 1 min 0,000 mm 0,8 UV-I 365 W/m 5,4 C 9,3 C 25,7 km/h (4 Bft) 95,83 %
02.04.2016 16:48 14,9 C 53 % 1016,7 hPa 0,0 l/m 18,6 km/h (3 Bft) O-NO 74 1 min 0,000 mm 0,8 UV-I 347 W/m 5,4 C 10,0 C 24,1 km/h (4 Bft) 100,00 %
02.04.2016 16:49 14,9 C 53 % 1016,7 hPa 0,0 l/m 15,1 km/h (3 Bft) O 93 1 min 0,000 mm 0,8 UV-I 303 W/m 5,4 C 11,0 C 20,9 km/h (4 Bft) 100,00 %
02.04.2016 16:50 14,9 C 53 % 1016,8 hPa 0,0 l/m 15,2 km/h (3 Bft) O 88 1 min 0,000 mm 0,7 UV-I 273 W/m 5,4 C 11,0 C 19,3 km/h (3 Bft) 100,00 %
02.04.2016 16:51 14,9 C 55 % 1016,6 hPa 0,0 l/m 16,4 km/h (3 Bft) N-NO 29 1 min 0,000 mm 0,7 UV-I 261 W/m 5,9 C 10,6 C 24,1 km/h (4 Bft) 95,83 %
02.04.2016 16:52 14,9 C 54 % 1016,7 hPa 0,0 l/m 17,7 km/h (3 Bft) O 80 0 min 0,000 mm 0,7 UV-I 237 W/m 5,7 C 10,2 C 24,1 km/h (4 Bft) 100,00 %
02.04.2016 16:53 14,9 C 53 % 1016,7 hPa 0,0 l/m 17,5 km/h (3 Bft) O 90 0 min 0,000 mm 0,6 UV-I 214 W/m 5,4 C 10,3 C 24,1 km/h (4 Bft) 100,00 %
02.04.2016 16:54 14,9 C 53 % 1016,7 hPa 0,0 l/m 16,6 km/h (3 Bft) NO 52 0 min 0,000 mm 0,6 UV-I 205 W/m 5,4 C 10,6 C 22,5 km/h (4 Bft) 100,00 %
02.04.2016 16:55 14,8 C 52 % 1016,7 hPa 0,0 l/m 19,2 km/h (3 Bft) O-NO 68 0 min 0,000 mm 0,6 UV-I 199 W/m 5,0 C 9,7 C 25,7 km/h (4 Bft) 100,00 %
02.04.2016 16:56 14,8 C 53 % 1016,6 hPa 0,0 l/m 19,2 km/h (3 Bft) NO 56 0 min 0,000 mm 0,6 UV-I 196 W/m 5,3 C 9,7 C 24,1 km/h (4 Bft) 100,00 %
02.04.2016 16:57 14,7 C 53 % 1016,6 hPa 0,0 l/m 17,5 km/h (3 Bft) NO 49 0 min 0,000 mm 0,6 UV-I 200 W/m 5,2 C 10,0 C 20,9 km/h (4 Bft) 95,83 %
02.04.2016 16:58 14,7 C 55 % 1016,6 hPa 0,0 l/m 18,3 km/h (3 Bft) O 82 0 min 0,000 mm 0,6 UV-I 201 W/m 5,8 C 9,8 C 24,1 km/h (4 Bft) 100,00 %
02.04.2016 16:59 14,7 C 54 % 1016,6 hPa 0,0 l/m 17,5 km/h (3 Bft) O-NO 67 0 min 0,000 mm 0,6 UV-I 191 W/m 5,5 C 10,0 C 20,9 km/h (4 Bft) 100,00 %
02.04.2016 17:00 14,7 C 55 % 1016,6 hPa 0,0 l/m 18,6 km/h (3 Bft) O-NO 64 0 min 0,000 mm 0,6 UV-I 186 W/m 5,8 C 9,7 C 27,4 km/h (4 Bft) 95,83 %
02.04.2016 17:01 14,6 C 54 % 1016,5 hPa 0,0 l/m 21,5 km/h (4 Bft) O-NO 65 0 min 0,280 mm 0,6 UV-I 187 W/m 5,4 C 8,9 C 29,0 km/h (5 Bft) 100,00 %
02.04.2016 17:02 14,6 C 55 % 1016,5 hPa 0,0 l/m 20,2 km/h (4 Bft) O-NO 71 0 min 0,000 mm 0,6 UV-I 196 W/m 5,7 C 9,2 C 25,7 km/h (4 Bft) 100,00 %
02.04.2016 17:03 14,6 C 55 % 1016,5 hPa 0,0 l/m 19,8 km/h (3 Bft) NO 50 0 min 0,000 mm 0,5 UV-I 199 W/m 5,7 C 9,3 C 24,1 km/h (4 Bft) 96,15 %
02.04.2016 17:04 14,6 C 54 % 1016,5 hPa 0,0 l/m 19,2 km/h (3 Bft) O-NO 78 0 min 0,000 mm 0,5 UV-I 205 W/m 5,4 C 9,4 C 29,0 km/h (5 Bft) 100,00 %
02.04.2016 17:05 14,6 C 53 % 1016,5 hPa 0,0 l/m 23,6 km/h (4 Bft) NO 53 0 min 0,000 mm 0,5 UV-I 209 W/m 5,1 C 8,4 C 30,6 km/h (5 Bft) 95,65 %
02.04.2016 17:06 14,6 C 54 % 1016,5 hPa 0,0 l/m 17,8 km/h (3 Bft) O 92 0 min 0,000 mm 0,5 UV-I 203 W/m 5,4 C 9,8 C 25,7 km/h (4 Bft) 100,00 %
02.04.2016 17:07 14,6 C 54 % 1016,5 hPa 0,0 l/m 16,9 km/h (3 Bft) NO 39 0 min 0,000 mm 0,5 UV-I 192 W/m 5,4 C 10,1 C 22,5 km/h (4 Bft) 100,00 %
02.04.2016 17:08 14,5 C 55 % 1016,5 hPa 0,0 l/m 17,4 km/h (3 Bft) NO 47 0 min 0,000 mm 0,5 UV-I 203 W/m 5,6 C 9,8 C 20,9 km/h (4 Bft) 100,00 %
02.04.2016 17:09 14,5 C 54 % 1016,5 hPa 0,0 l/m 16,9 km/h (3 Bft) O-NO 65 0 min 0,000 mm 0,5 UV-I 211 W/m 5,3 C 10,0 C 22,5 km/h (4 Bft) 100,00 %
02.04.2016 17:10 14,5 C 55 % 1016,4 hPa 0,0 l/m 16,6 km/h (3 Bft) NO 53 0 min 0,000 mm 0,5 UV-I 213 W/m 5,6 C 10,1 C 20,9 km/h (4 Bft) 100,00 %
02.04.2016 17:11 14,5 C 55 % 1016,4 hPa 0,0 l/m 15,9 km/h (3 Bft) O-NO 76 1 min 0,000 mm 0,5 UV-I 217 W/m 5,6 C 10,3 C 20,9 km/h (4 Bft) 100,00 %
02.04.2016 17:12 14,5 C 55 % 1016,4 hPa 0,0 l/m 18,1 km/h (3 Bft) O-NO 61 1 min 0,000 mm 0,5 UV-I 215 W/m 5,6 C 9,6 C 27,4 km/h (4 Bft) 100,00 %
02.04.2016 17:13 14,5 C 54 % 1016,4 hPa 0,0 l/m 19,2 km/h (3 Bft) O 84 1 min 0,000 mm 0,5 UV-I 220 W/m 5,3 C 9,3 C 27,4 km/h (4 Bft) 100,00 %
02.04.2016 17:14 14,5 C 55 % 1016,3 hPa 0,0 l/m 20,5 km/h (4 Bft) O-NO 61 1 min 0,000 mm 0,5 UV-I 218 W/m 5,6 C 9,0 C 25,7 km/h (4 Bft) 100,00 %
02.04.2016 17:15 14,5 C 55 % 1016,3 hPa 0,0 l/m 21,6 km/h (4 Bft) O-NO 64 1 min 0,000 mm 0,5 UV-I 216 W/m 5,6 C 8,7 C 25,7 km/h (4 Bft) 100,00 %
02.04.2016 17:16 14,5 C 54 % 1016,3 hPa 0,0 l/m 20,3 km/h (4 Bft) O-NO 76 1 min 0,000 mm 0,5 UV-I 210 W/m 5,3 C 9,0 C 25,7 km/h (4 Bft) 100,00 %
02.04.2016 17:17 14,5 C 55 % 1016,3 hPa 0,0 l/m 16,5 km/h (3 Bft) NO 51 1 min 0,000 mm 0,5 UV-I 219 W/m 5,6 C 10,1 C 20,9 km/h (4 Bft) 100,00 %
02.04.2016 17:18 14,5 C 54 % 1016,3 hPa 0,0 l/m 19,5 km/h (3 Bft) O-NO 71 1 min 0,000 mm 0,5 UV-I 225 W/m 5,3 C 9,2 C 24,1 km/h (4 Bft) 100,00 %
02.04.2016 17:19 14,6 C 54 % 1016,3 hPa 0,0 l/m 18,2 km/h (3 Bft) NO 45 1 min 0,000 mm 0,5 UV-I 235 W/m 5,4 C 9,7 C 22,5 km/h (4 Bft) 100,00 %
02.04.2016 17:20 14,6 C 54 % 1016,3 hPa 0,0 l/m 22,4 km/h (4 Bft) NO 36 1 min 0,000 mm 0,5 UV-I 245 W/m 5,4 C 8,6 C 25,7 km/h (4 Bft) 100,00 %
02.04.2016 17:21 14,6 C 54 % 1016,2 hPa 0,0 l/m 16,3 km/h (3 Bft) O-NO 76 1 min 0,000 mm 0,5 UV-I 252 W/m 5,4 C 10,3 C 24,1 km/h (4 Bft) 100,00 %
02.04.2016 17:22 14,6 C 55 % 1016,3 hPa 0,0 l/m 16,2 km/h (3 Bft) O-NO 62 1 min 0,000 mm 0,5 UV-I 260 W/m 5,7 C 10,3 C 24,1 km/h (4 Bft) 95,65 %
02.04.2016 17:23 14,6 C 55 % 1016,2 hPa 0,0 l/m 15,6 km/h (3 Bft) O-NO 57 1 min 0,000 mm 0,5 UV-I 266 W/m 5,7 C 10,5 C 20,9 km/h (4 Bft) 100,00 %
02.04.2016 17:24 14,6 C 55 % 1016,3 hPa 0,0 l/m 16,9 km/h (3 Bft) O-NO 78 1 min 0,000 mm 0,5 UV-I 277 W/m 5,7 C 10,1 C 20,9 km/h (4 Bft) 100,00 %
02.04.2016 17:25 14,6 C 54 % 1016,3 hPa 0,0 l/m 15,8 km/h (3 Bft) O-NO 58 1 min 0,000 mm 0,5 UV-I 286 W/m 5,4 C 10,4 C 20,9 km/h (4 Bft) 100,00 %
02.04.2016 17:26 14,7 C 54 % 1016,3 hPa 0,0 l/m 15,6 km/h (3 Bft) O-NO 63 1 min 0,000 mm 0,5 UV-I 294 W/m 5,5 C 10,6 C 17,7 km/h (3 Bft) 100,00 %
02.04.2016 17:27 14,7 C 56 % 1016,3 hPa 0,0 l/m 12,2 km/h (2 Bft) NO 35 1 min 0,000 mm 0,5 UV-I 295 W/m 6,0 C 11,8 C 17,7 km/h (3 Bft) 100,00 %
02.04.2016 17:28 14,7 C 55 % 1016,3 hPa 0,0 l/m 15,9 km/h (3 Bft) O-NO 64 1 min 0,000 mm 0,5 UV-I 290 W/m 5,8 C 10,5 C 24,1 km/h (4 Bft) 100,00 %
02.04.2016 17:29 14,8 C 54 % 1016,3 hPa 0,0 l/m 16,8 km/h (3 Bft) O 84 1 min 0,000 mm 0,5 UV-I 290 W/m 5,6 C 10,4 C 22,5 km/h (4 Bft) 100,00 %
02.04.2016 17:30 14,8 C 54 % 1016,3 hPa 0,0 l/m 17,1 km/h (3 Bft) O 101 1 min 0,000 mm 0,5 UV-I 289 W/m 5,6 C 10,3 C 25,7 km/h (4 Bft) 100,00 %
02.04.2016 17:31 14,8 C 54 % 1016,3 hPa 0,0 l/m 16,0 km/h (3 Bft) O-NO 77 1 min 0,000 mm 0,5 UV-I 284 W/m 5,6 C 10,6 C 20,9 km/h (4 Bft) 100,00 %
02.04.2016 17:32 14,8 C 55 % 1016,3 hPa 0,0 l/m 23,7 km/h (4 Bft) O-NO 67 1 min 0,000 mm 0,5 UV-I 281 W/m 5,8 C 8,6 C 27,4 km/h (4 Bft) 100,00 %
02.04.2016 17:33 14,8 C 53 % 1016,2 hPa 0,0 l/m 19,7 km/h (3 Bft) NO 51 1 min 0,000 mm 0,5 UV-I 278 W/m 5,3 C 9,6 C 24,1 km/h (4 Bft) 100,00 %
02.04.2016 17:34 14,8 C 53 % 1016,3 hPa 0,0 l/m 19,2 km/h (3 Bft) O-SO 103 1 min 0,000 mm 0,2 UV-I 274 W/m 5,3 C 9,7 C 24,1 km/h (4 Bft) 100,00 %
02.04.2016 17:35 14,8 C 54 % 1016,3 hPa 0,0 l/m 16,0 km/h (3 Bft) O-NO 66 1 min 0,000 mm 0,0 UV-I 266 W/m 5,6 C 10,6 C 20,9 km/h (4 Bft) 100,00 %
02.04.2016 17:36 14,8 C 54 % 1016,3 hPa 0,0 l/m 14,8 km/h (3 Bft) O-NO 65 1 min 0,000 mm 0,0 UV-I 259 W/m 5,6 C 11,0 C 17,7 km/h (3 Bft) 95,65 %
02.04.2016 17:37 14,8 C 54 % 1016,3 hPa 0,0 l/m 10,9 km/h (2 Bft) O-NO 70 1 min 0,000 mm 0,0 UV-I 249 W/m 5,6 C 12,5 C 16,1 km/h (3 Bft) 100,00 %
02.04.2016 17:38 14,8 C 54 % 1016,3 hPa 0,0 l/m 11,2 km/h (2 Bft) O-NO 62 1 min 0,000 mm 0,0 UV-I 232 W/m 5,6 C 12,4 C 19,3 km/h (3 Bft) 100,00 %
02.04.2016 17:39 14,8 C 54 % 1016,3 hPa 0,0 l/m 18,2 km/h (3 Bft) O-NO 70 1 min 0,000 mm 0,0 UV-I 220 W/m 5,6 C 10,0 C 25,7 km/h (4 Bft) 95,65 %
02.04.2016 17:40 14,8 C 55 % 1016,2 hPa 0,0 l/m 14,3 km/h (3 Bft) O 82 1 min 0,000 mm 0,0 UV-I 208 W/m 5,8 C 11,2 C 19,3 km/h (3 Bft) 100,00 %
02.04.2016 17:41 14,8 C 53 % 1016,3 hPa 0,0 l/m 20,2 km/h (4 Bft) O 80 1 min 0,000 mm 0,0 UV-I 205 W/m 5,3 C 9,4 C 27,4 km/h (4 Bft) 94,12 %
02.04.2016 17:42 14,8 C 54 % 1016,3 hPa 0,0 l/m 18,2 km/h (3 Bft) O-NO 71 1 min 0,000 mm 0,0 UV-I 216 W/m 5,6 C 10,0 C 27,4 km/h (4 Bft) 100,00 %
02.04.2016 17:43 14,8 C 53 % 1016,2 hPa 0,0 l/m 22,8 km/h (4 Bft) O 90 1 min 0,000 mm 0,0 UV-I 214 W/m 5,3 C 8,8 C 29,0 km/h (5 Bft) 95,65 %
02.04.2016 17:44 14,8 C 52 % 1016,2 hPa 0,0 l/m 19,2 km/h (3 Bft) O-NO 67 1 min 0,000 mm 0,0 UV-I 200 W/m 5,0 C 9,7 C 25,7 km/h (4 Bft) 96,30 %
02.04.2016 17:45 14,8 C 53 % 1016,2 hPa 0,0 l/m 19,5 km/h (3 Bft) O-NO 61 1 min 0,000 mm 0,0 UV-I 194 W/m 5,3 C 9,6 C 29,0 km/h (5 Bft) 100,00 %
02.04.2016 17:46 14,8 C 53 % 1016,2 hPa 0,0 l/m 18,6 km/h (3 Bft) NO 49 1 min 0,000 mm 0,0 UV-I 205 W/m 5,3 C 9,9 C 24,1 km/h (4 Bft) 92,59 %
02.04.2016 17:47 14,8 C 53 % 1016,2 hPa 0,0 l/m 15,4 km/h (3 Bft) O-NO 64 1 min 0,000 mm 0,0 UV-I 213 W/m 5,3 C 10,8 C 22,5 km/h (4 Bft) 95,65 %
02.04.2016 17:48 14,8 C 52 % 1016,2 hPa 0,0 l/m 22,9 km/h (4 Bft) O 87 1 min 0,000 mm 0,0 UV-I 218 W/m 5,0 C 8,8 C 33,8 km/h (5 Bft) 95,83 %
02.04.2016 17:49 14,8 C 52 % 1016,2 hPa 0,0 l/m 22,9 km/h (4 Bft) O-NO 71 1 min 0,000 mm 0,0 UV-I 216 W/m 5,0 C 8,8 C 27,4 km/h (4 Bft) 100,00 %
02.04.2016 17:50 14,8 C 52 % 1016,2 hPa 0,0 l/m 18,8 km/h (3 Bft) O 89 1 min 0,000 mm 0,0 UV-I 212 W/m 5,0 C 9,8 C 24,1 km/h (4 Bft) 95,83 %
02.04.2016 17:51 14,8 C 53 % 1016,2 hPa 0,0 l/m 15,7 km/h (3 Bft) NO 46 1 min 0,000 mm 0,0 UV-I 209 W/m 5,3 C 10,7 C 19,3 km/h (3 Bft) 100,00 %
02.04.2016 17:52 14,8 C 53 % 1016,2 hPa 0,0 l/m 16,1 km/h (3 Bft) NO 54 1 min 0,000 mm 0,0 UV-I 210 W/m 5,3 C 10,6 C 22,5 km/h (4 Bft) 96,15 %
02.04.2016 17:53 14,8 C 54 % 1016,2 hPa 0,0 l/m 16,8 km/h (3 Bft) O 88 1 min 0,000 mm 0,0 UV-I 209 W/m 5,6 C 10,4 C 20,9 km/h (4 Bft) 92,31 %
02.04.2016 17:54 14,8 C 53 % 1016,2 hPa 0,0 l/m 16,4 km/h (3 Bft) O-NO 76 1 min 0,000 mm 0,0 UV-I 204 W/m 5,3 C 10,5 C 24,1 km/h (4 Bft) 100,00 %
02.04.2016 17:55 14,8 C 54 % 1016,2 hPa 0,0 l/m 18,3 km/h (3 Bft) O-NO 65 1 min 0,000 mm 0,0 UV-I 204 W/m 5,6 C 9,9 C 24,1 km/h (4 Bft) 95,65 %
02.04.2016 17:56 14,8 C 53 % 1016,2 hPa 0,0 l/m 19,7 km/h (3 Bft) O-NO 69 1 min 0,000 mm 0,0 UV-I 200 W/m 5,3 C 9,6 C 24,1 km/h (4 Bft) 100,00 %
02.04.2016 17:57 14,8 C 52 % 1016,2 hPa 0,0 l/m 17,6 km/h (3 Bft) NO 43 1 min 0,000 mm 0,0 UV-I 198 W/m 5,0 C 10,1 C 22,5 km/h (4 Bft) 95,83 %
02.04.2016 17:58 14,8 C 53 % 1016,2 hPa 0,0 l/m 17,6 km/h (3 Bft) NO 46 1 min 0,000 mm 0,0 UV-I 196 W/m 5,3 C 10,1 C 25,7 km/h (4 Bft) 95,65 %
02.04.2016 17:59 14,8 C 52 % 1016,2 hPa 0,0 l/m 21,1 km/h (4 Bft) O-NO 73 1 min 0,000 mm 0,0 UV-I 195 W/m 5,0 C 9,2 C 25,7 km/h (4 Bft) 95,83 %
02.04.2016 18:00 14,8 C 52 % 1016,2 hPa 0,0 l/m 20,9 km/h (4 Bft) O-NO 66 1 min 0,000 mm 0,0 UV-I 193 W/m 5,0 C 9,3 C 27,4 km/h (4 Bft) 91,30 %
02.04.2016 18:01 14,8 C 52 % 1016,2 hPa 0,0 l/m 19,3 km/h (3 Bft) O-NO 65 1 min 0,228 mm 0,0 UV-I 190 W/m 5,0 C 9,7 C 27,4 km/h (4 Bft) 96,30 %
02.04.2016 18:02 14,8 C 54 % 1016,2 hPa 0,0 l/m 21,8 km/h (4 Bft) O-NO 68 1 min 0,000 mm 0,0 UV-I 184 W/m 5,6 C 9,0 C 32,2 km/h (5 Bft) 90,91 %
02.04.2016 18:03 14,8 C 52 % 1016,1 hPa 0,0 l/m 22,7 km/h (4 Bft) O-NO 72 1 min 0,000 mm 0,0 UV-I 181 W/m 5,0 C 8,8 C 27,4 km/h (4 Bft) 96,30 %
02.04.2016 18:04 14,8 C 53 % 1016,2 hPa 0,0 l/m 18,4 km/h (3 Bft) O-NO 61 1 min 0,000 mm 0,0 UV-I 179 W/m 5,3 C 9,9 C 25,7 km/h (4 Bft) 95,65 %
02.04.2016 18:05 14,7 C 53 % 1016,2 hPa 0,0 l/m 17,4 km/h (3 Bft) NO 54 1 min 0,000 mm 0,0 UV-I 176 W/m 5,2 C 10,1 C 22,5 km/h (4 Bft) 100,00 %
02.04.2016 18:06 14,7 C 53 % 1016,1 hPa 0,0 l/m 20,0 km/h (4 Bft) O-NO 76 1 min 0,000 mm 0,0 UV-I 175 W/m 5,2 C 9,4 C 25,7 km/h (4 Bft) 95,65 %
02.04.2016 18:07 14,7 C 52 % 1016,1 hPa 0,0 l/m 18,2 km/h (3 Bft) O-NO 67 1 min 0,000 mm 0,0 UV-I 172 W/m 5,0 C 9,8 C 20,9 km/h (4 Bft) 100,00 %
02.04.2016 18:08 14,7 C 52 % 1016,2 hPa 0,0 l/m 21,9 km/h (4 Bft) O-NO 59 1 min 0,000 mm 0,0 UV-I 170 W/m 5,0 C 8,9 C 29,0 km/h (5 Bft) 95,65 %
02.04.2016 18:09 14,7 C 53 % 1016,1 hPa 0,0 l/m 18,7 km/h (3 Bft) O-NO 72 1 min 0,000 mm 0,0 UV-I 166 W/m 5,2 C 9,7 C 25,7 km/h (4 Bft) 100,00 %
02.04.2016 18:10 14,7 C 53 % 1016,1 hPa 0,0 l/m 19,8 km/h (3 Bft) NO 54 1 min 0,000 mm 0,0 UV-I 165 W/m 5,2 C 9,4 C 22,5 km/h (4 Bft) 96,15 %
02.04.2016 18:11 14,7 C 52 % 1016,1 hPa 0,0 l/m 22,7 km/h (4 Bft) O 79 1 min 0,000 mm 0,0 UV-I 161 W/m 5,0 C 8,7 C 30,6 km/h (5 Bft) 95,83 %
02.04.2016 18:12 14,7 C 52 % 1016,1 hPa 0,0 l/m 20,2 km/h (4 Bft) O 89 1 min 0,000 mm 0,0 UV-I 157 W/m 5,0 C 9,3 C 27,4 km/h (4 Bft) 100,00 %
02.04.2016 18:13 14,7 C 52 % 1016,1 hPa 0,0 l/m 19,3 km/h (3 Bft) O-NO 62 1 min 0,000 mm 0,0 UV-I 154 W/m 5,0 C 9,5 C 22,5 km/h (4 Bft) 100,00 %
02.04.2016 18:14 14,7 C 53 % 1016,1 hPa 0,0 l/m 15,2 km/h (3 Bft) O-NO 78 1 min 0,000 mm 0,0 UV-I 152 W/m 5,2 C 10,8 C 22,5 km/h (4 Bft) 100,00 %
02.04.2016 18:15 14,7 C 53 % 1016,1 hPa 0,0 l/m 13,6 km/h (3 Bft) O 97 1 min 0,000 mm 0,0 UV-I 149 W/m 5,2 C 11,3 C 17,7 km/h (3 Bft) 95,65 %
02.04.2016 18:16 14,6 C 54 % 1016,1 hPa 0,0 l/m 13,9 km/h (3 Bft) O-NO 76 1 min 0,000 mm 0,0 UV-I 143 W/m 5,4 C 11,1 C 17,7 km/h (3 Bft) 100,00 %
02.04.2016 18:17 14,6 C 52 % 1016,1 hPa 0,0 l/m 15,2 km/h (3 Bft) O-NO 76 1 min 0,000 mm 0,0 UV-I 134 W/m 4,9 C 10,6 C 20,9 km/h (4 Bft) 100,00 %
02.04.2016 18:18 14,6 C 53 % 1016,1 hPa 0,0 l/m 18,5 km/h (3 Bft) NO 38 1 min 0,000 mm 0,0 UV-I 130 W/m 5,1 C 9,6 C 24,1 km/h (4 Bft) 100,00 %
02.04.2016 18:19 14,6 C 52 % 1016,1 hPa 0,0 l/m 23,2 km/h (4 Bft) O-NO 59 1 min 0,000 mm 0,0 UV-I 124 W/m 4,9 C 8,5 C 33,8 km/h (5 Bft) 100,00 %
02.04.2016 18:20 14,6 C 52 % 1016,1 hPa 0,0 l/m 18,5 km/h (3 Bft) NO 42 1 min 0,000 mm 0,0 UV-I 119 W/m 4,9 C 9,6 C 24,1 km/h (4 Bft) 95,83 %
02.04.2016 18:21 14,6 C 53 % 1016,2 hPa 0,0 l/m 15,4 km/h (3 Bft) O-NO 63 1 min 0,000 mm 0,0 UV-I 114 W/m 5,1 C 10,6 C 24,1 km/h (4 Bft) 100,00 %
02.04.2016 18:22 14,5 C 53 % 1016,1 hPa 0,0 l/m 18,9 km/h (3 Bft) O-NO 74 0 min 0,000 mm 0,0 UV-I 107 W/m 5,0 C 9,4 C 22,5 km/h (4 Bft) 100,00 %
02.04.2016 18:23 14,6 C 53 % 1016,1 hPa 0,0 l/m 20,2 km/h (4 Bft) O-NO 57 0 min 0,000 mm 0,0 UV-I 103 W/m 5,1 C 9,2 C 29,0 km/h (5 Bft) 100,00 %
02.04.2016 18:24 14,5 C 51 % 1016,1 hPa 0,0 l/m 22,1 km/h (4 Bft) O 90 0 min 0,000 mm 0,0 UV-I 97 W/m 4,5 C 8,6 C 27,4 km/h (4 Bft) 95,83 %
02.04.2016 18:25 14,5 C 52 % 1016,1 hPa 0,0 l/m 17,4 km/h (3 Bft) NO 40 0 min 0,000 mm 0,0 UV-I 93 W/m 4,8 C 9,8 C 22,5 km/h (4 Bft) 100,00 %
02.04.2016 18:26 14,5 C 52 % 1016,1 hPa 0,0 l/m 15,8 km/h (3 Bft) O-NO 59 0 min 0,000 mm 0,0 UV-I 90 W/m 4,8 C 10,3 C 19,3 km/h (3 Bft) 100,00 %
02.04.2016 18:27 14,4 C 54 % 1016,1 hPa 0,0 l/m 11,7 km/h (2 Bft) NO 36 0 min 0,000 mm 0,0 UV-I 88 W/m 5,2 C 11,7 C 17,7 km/h (3 Bft) 95,65 %
02.04.2016 18:28 14,4 C 53 % 1016,1 hPa 0,0 l/m 16,9 km/h (3 Bft) O-NO 64 0 min 0,000 mm 0,0 UV-I 84 W/m 4,9 C 9,9 C 20,9 km/h (4 Bft) 100,00 %
02.04.2016 18:29 14,4 C 53 % 1016,1 hPa 0,0 l/m 17,7 km/h (3 Bft) NO 36 0 min 0,000 mm 0,0 UV-I 81 W/m 4,9 C 9,6 C 29,0 km/h (5 Bft) 100,00 %
02.04.2016 18:30 14,4 C 52 % 1016,0 hPa 0,0 l/m 22,4 km/h (4 Bft) O-NO 58 0 min 0,000 mm 0,0 UV-I 78 W/m 4,7 C 8,4 C 25,7 km/h (4 Bft) 100,00 %
02.04.2016 18:31 14,4 C 52 % 1016,0 hPa 0,0 l/m 17,3 km/h (3 Bft) O-NO 73 0 min 0,000 mm 0,0 UV-I 75 W/m 4,7 C 9,7 C 24,1 km/h (4 Bft) 98,57 %
02.04.2016 18:32 14,4 C 53 % 1016,0 hPa 0,0 l/m 17,2 km/h (3 Bft) NO 53 0 min 0,000 mm 0,0 UV-I 72 W/m 4,9 C 9,8 C 24,1 km/h (4 Bft) 100,00 %
02.04.2016 18:33 14,3 C 53 % 1016,1 hPa 0,0 l/m 21,5 km/h (4 Bft) O-NO 57 0 min 0,000 mm 0,0 UV-I 68 W/m 4,9 C 8,5 C 27,4 km/h (4 Bft) 100,00 %
02.04.2016 18:34 14,3 C 53 % 1016,1 hPa 0,0 l/m 19,2 km/h (3 Bft) NO 55 0 min 0,000 mm 0,0 UV-I 65 W/m 4,9 C 9,1 C 25,7 km/h (4 Bft) 100,00 %
02.04.2016 18:35 14,3 C 53 % 1016,1 hPa 0,0 l/m 18,9 km/h (3 Bft) NO 56 0 min 0,000 mm 0,0 UV-I 63 W/m 4,9 C 9,1 C 24,1 km/h (4 Bft) 100,00 %
02.04.2016 18:36 14,2 C 53 % 1016,0 hPa 0,0 l/m 19,1 km/h (3 Bft) O-NO 73 0 min 0,000 mm 0,0 UV-I 61 W/m 4,8 C 9,0 C 25,7 km/h (4 Bft) 100,00 %
02.04.2016 18:37 14,2 C 53 % 1016,0 hPa 0,0 l/m 16,1 km/h (3 Bft) NO 54 0 min 0,000 mm 0,0 UV-I 59 W/m 4,8 C 9,9 C 19,3 km/h (3 Bft) 100,00 %
02.04.2016 18:38 14,2 C 53 % 1016,1 hPa 0,0 l/m 16,7 km/h (3 Bft) O 87 0 min 0,000 mm 0,0 UV-I 57 W/m 4,8 C 9,7 C 20,9 km/h (4 Bft) 100,00 %
02.04.2016 18:39 14,2 C 53 % 1016,0 hPa 0,0 l/m 17,1 km/h (3 Bft) NO 45 0 min 0,000 mm 0,0 UV-I 54 W/m 4,8 C 9,5 C 20,9 km/h (4 Bft) 96,30 %
02.04.2016 18:40 14,1 C 54 % 1016,0 hPa 0,0 l/m 19,8 km/h (3 Bft) O-NO 71 0 min 0,000 mm 0,0 UV-I 53 W/m 4,9 C 8,6 C 27,4 km/h (4 Bft) 95,65 %
02.04.2016 18:41 14,1 C 52 % 1016,0 hPa 0,0 l/m 22,7 km/h (4 Bft) O-NO 66 0 min 0,000 mm 0,0 UV-I 53 W/m 4,4 C 7,9 C 29,0 km/h (5 Bft) 100,00 %
02.04.2016 18:42 14,1 C 53 % 1016,0 hPa 0,0 l/m 17,8 km/h (3 Bft) NO 46 0 min 0,000 mm 0,0 UV-I 50 W/m 4,7 C 9,2 C 20,9 km/h (4 Bft) 100,00 %
02.04.2016 18:43 14,1 C 53 % 1016,0 hPa 0,0 l/m 20,0 km/h (4 Bft) O-NO 76 0 min 0,000 mm 0,0 UV-I 48 W/m 4,7 C 8,6 C 27,4 km/h (4 Bft) 100,00 %
02.04.2016 18:44 14,1 C 53 % 1016,0 hPa 0,0 l/m 18,3 km/h (3 Bft) O-NO 57 0 min 0,000 mm 0,0 UV-I 47 W/m 4,7 C 9,1 C 20,9 km/h (4 Bft) 100,00 %
02.04.2016 18:45 14,1 C 54 % 1016,0 hPa 0,0 l/m 21,7 km/h (4 Bft) O-NO 57 0 min 0,000 mm 0,0 UV-I 46 W/m 4,9 C 8,1 C 27,4 km/h (4 Bft) 100,00 %
02.04.2016 18:46 14,0 C 54 % 1016,0 hPa 0,0 l/m 17,8 km/h (3 Bft) O-NO 67 0 min 0,000 mm 0,0 UV-I 44 W/m 4,8 C 9,1 C 24,1 km/h (4 Bft) 100,00 %
02.04.2016 18:47 14,0 C 54 % 1016,0 hPa 0,0 l/m 20,7 km/h (4 Bft) NO 38 0 min 0,000 mm 0,0 UV-I 42 W/m 4,8 C 8,3 C 24,1 km/h (4 Bft) 100,00 %
02.04.2016 18:48 13,9 C 53 % 1015,9 hPa 0,0 l/m 20,7 km/h (4 Bft) O-NO 67 0 min 0,000 mm 0,0 UV-I 41 W/m 4,5 C 8,1 C 27,4 km/h (4 Bft) 98,59 %
02.04.2016 18:49 13,9 C 54 % 1016,0 hPa 0,0 l/m 17,4 km/h (3 Bft) NO 51 0 min 0,000 mm 0,0 UV-I 40 W/m 4,7 C 9,1 C 20,9 km/h (4 Bft) 97,37 %
02.04.2016 18:50 13,9 C 54 % 1016,0 hPa 0,0 l/m 18,4 km/h (3 Bft) O-NO 71 0 min 0,000 mm 0,0 UV-I 39 W/m 4,7 C 8,8 C 27,4 km/h (4 Bft) 100,00 %
02.04.2016 18:51 13,9 C 54 % 1016,0 hPa 0,0 l/m 18,1 km/h (3 Bft) NO 44 0 min 0,000 mm 0,0 UV-I 37 W/m 4,7 C 8,9 C 24,1 km/h (4 Bft) 100,00 %
02.04.2016 18:52 13,9 C 54 % 1016,0 hPa 0,0 l/m 16,6 km/h (3 Bft) O-NO 59 0 min 0,000 mm 0,0 UV-I 37 W/m 4,7 C 9,3 C 22,5 km/h (4 Bft) 100,00 %
02.04.2016 18:53 13,8 C 55 % 1016,1 hPa 0,0 l/m 19,2 km/h (3 Bft) O-NO 64 0 min 0,000 mm 0,0 UV-I 35 W/m 4,9 C 8,4 C 27,4 km/h (4 Bft) 100,00 %
02.04.2016 18:54 13,8 C 53 % 1016,1 hPa 0,0 l/m 16,8 km/h (3 Bft) NO 40 0 min 0,000 mm 0,0 UV-I 35 W/m 4,4 C 9,1 C 22,5 km/h (4 Bft) 100,00 %
02.04.2016 18:55 13,8 C 55 % 1016,1 hPa 0,0 l/m 15,6 km/h (3 Bft) NO 43 0 min 0,000 mm 0,0 UV-I 34 W/m 4,9 C 9,5 C 20,9 km/h (4 Bft) 95,65 %
02.04.2016 18:56 13,8 C 55 % 1016,0 hPa 0,0 l/m 17,6 km/h (3 Bft) O 84 0 min 0,000 mm 0,0 UV-I 33 W/m 4,9 C 8,9 C 22,5 km/h (4 Bft) 100,00 %
02.04.2016 18:57 13,8 C 54 % 1016,1 hPa 0,0 l/m 21,2 km/h (4 Bft) O-NO 57 0 min 0,000 mm 0,0 UV-I 32 W/m 4,7 C 7,9 C 25,7 km/h (4 Bft) 100,00 %
02.04.2016 18:58 13,7 C 54 % 1016,0 hPa 0,0 l/m 19,5 km/h (3 Bft) O-NO 58 0 min 0,000 mm 0,0 UV-I 32 W/m 4,6 C 8,2 C 24,1 km/h (4 Bft) 100,00 %
02.04.2016 18:59 13,7 C 54 % 1016,1 hPa 0,0 l/m 14,2 km/h (3 Bft) O-NO 67 0 min 0,000 mm 0,0 UV-I 30 W/m 4,6 C 9,9 C 17,7 km/h (3 Bft) 100,00 %
02.04.2016 19:00 13,7 C 55 % 1016,1 hPa 0,0 l/m 12,8 km/h (3 Bft) O-NO 57 0 min 0,000 mm 0,0 UV-I 30 W/m 4,8 C 10,4 C 16,1 km/h (3 Bft) 100,00 %
02.04.2016 19:01 13,7 C 55 % 1016,1 hPa 0,0 l/m 16,3 km/h (3 Bft) O-NO 69 0 min 0,153 mm 0,0 UV-I 29 W/m 4,8 C 9,2 C 20,9 km/h (4 Bft) 100,00 %
02.04.2016 19:02 13,7 C 55 % 1016,1 hPa 0,0 l/m 16,7 km/h (3 Bft) O-NO 63 0 min 0,000 mm 0,0 UV-I 28 W/m 4,8 C 9,0 C 20,9 km/h (4 Bft) 100,00 %
02.04.2016 19:03 13,6 C 56 % 1016,1 hPa 0,0 l/m 16,6 km/h (3 Bft) O 80 0 min 0,000 mm 0,0 UV-I 26 W/m 5,0 C 9,0 C 22,5 km/h (4 Bft) 100,00 %
02.04.2016 19:04 13,6 C 56 % 1016,1 hPa 0,0 l/m 15,7 km/h (3 Bft) O-NO 57 0 min 0,000 mm 0,0 UV-I 26 W/m 5,0 C 9,3 C 19,3 km/h (3 Bft) 100,00 %
02.04.2016 19:05 13,6 C 56 % 1016,1 hPa 0,0 l/m 13,5 km/h (3 Bft) NO 40 0 min 0,000 mm 0,0 UV-I 25 W/m 5,0 C 10,1 C 19,3 km/h (3 Bft) 100,00 %
02.04.2016 19:06 13,5 C 56 % 1016,1 hPa 0,0 l/m 19,9 km/h (4 Bft) O-NO 59 0 min 0,000 mm 0,0 UV-I 24 W/m 4,9 C 7,8 C 24,1 km/h (4 Bft) 100,00 %
02.04.2016 19:07 13,5 C 55 % 1016,1 hPa 0,0 l/m 17,7 km/h (3 Bft) NO 53 0 min 0,000 mm 0,0 UV-I 23 W/m 4,6 C 8,5 C 25,7 km/h (4 Bft) 100,00 %
02.04.2016 19:08 13,5 C 55 % 1016,1 hPa 0,0 l/m 20,7 km/h (4 Bft) NO 40 0 min 0,000 mm 0,0 UV-I 22 W/m 4,6 C 7,6 C 25,7 km/h (4 Bft) 100,00 %
02.04.2016 19:09 13,4 C 55 % 1016,1 hPa 0,0 l/m 20,5 km/h (4 Bft) NO 54 0 min 0,000 mm 0,0 UV-I 19 W/m 4,5 C 7,5 C 25,7 km/h (4 Bft) 100,00 %
02.04.2016 19:10 13,4 C 56 % 1016,1 hPa 0,0 l/m 17,7 km/h (3 Bft) O 84 0 min 0,000 mm 0,0 UV-I 19 W/m 4,8 C 8,4 C 24,1 km/h (4 Bft) 100,00 %
02.04.2016 19:11 13,4 C 56 % 1016,1 hPa 0,0 l/m 15,1 km/h (3 Bft) NO 38 0 min 0,000 mm 0,0 UV-I 18 W/m 4,8 C 9,2 C 19,3 km/h (3 Bft) 100,00 %
02.04.2016 19:12 13,4 C 56 % 1016,2 hPa 0,0 l/m 11,4 km/h (2 Bft) O-NO 71 0 min 0,000 mm 0,0 UV-I 17 W/m 4,8 C 10,7 C 16,1 km/h (3 Bft) 100,00 %
02.04.2016 19:13 13,4 C 56 % 1016,2 hPa 0,0 l/m 15,0 km/h (3 Bft) O-NO 67 0 min 0,000 mm 0,0 UV-I 16 W/m 4,8 C 9,3 C 17,7 km/h (3 Bft) 100,00 %
02.04.2016 19:14 13,3 C 56 % 1016,2 hPa 0,0 l/m 14,6 km/h (3 Bft) O-NO 71 0 min 0,000 mm 0,0 UV-I 14 W/m 4,7 C 9,3 C 20,9 km/h (4 Bft) 100,00 %
02.04.2016 19:15 13,3 C 56 % 1016,2 hPa 0,0 l/m 20,5 km/h (4 Bft) NO 55 0 min 0,000 mm 0,0 UV-I 14 W/m 4,7 C 7,4 C 27,4 km/h (4 Bft) 100,00 %
02.04.2016 19:16 13,3 C 56 % 1016,2 hPa 0,0 l/m 19,0 km/h (3 Bft) O-NO 63 0 min 0,000 mm 0,0 UV-I 12 W/m 4,7 C 7,8 C 24,1 km/h (4 Bft) 95,65 %
02.04.2016 19:17 13,3 C 56 % 1016,1 hPa 0,0 l/m 20,3 km/h (4 Bft) O-NO 57 0 min 0,000 mm 0,0 UV-I 12 W/m 4,7 C 7,5 C 27,4 km/h (4 Bft) 100,00 %
02.04.2016 19:18 13,3 C 56 % 1016,1 hPa 0,0 l/m 18,5 km/h (3 Bft) O 80 0 min 0,000 mm 0,0 UV-I 12 W/m 4,7 C 8,0 C 24,1 km/h (4 Bft) 95,65 %
02.04.2016 19:19 13,3 C 56 % 1016,1 hPa 0,0 l/m 16,6 km/h (3 Bft) O-NO 65 0 min 0,000 mm 0,0 UV-I 11 W/m 4,7 C 8,6 C 22,5 km/h (4 Bft) 100,00 %
02.04.2016 19:20 13,3 C 57 % 1016,1 hPa 0,0 l/m 17,1 km/h (3 Bft) O 83 0 min 0,000 mm 0,0 UV-I 11 W/m 5,0 C 8,4 C 20,9 km/h (4 Bft) 100,00 %
02.04.2016 19:21 13,3 C 56 % 1016,1 hPa 0,0 l/m 16,6 km/h (3 Bft) O-NO 58 0 min 0,000 mm 0,0 UV-I 9 W/m 4,7 C 8,6 C 19,3 km/h (3 Bft) 100,00 %
02.04.2016 19:22 13,2 C 56 % 1016,1 hPa 0,0 l/m 18,3 km/h (3 Bft) NO 44 0 min 0,000 mm 0,0 UV-I 9 W/m 4,6 C 7,9 C 22,5 km/h (4 Bft) 100,00 %
02.04.2016 19:23 13,2 C 56 % 1016,1 hPa 0,0 l/m 19,8 km/h (3 Bft) O-NO 58 0 min 0,000 mm 0,0 UV-I 8 W/m 4,6 C 7,5 C 24,1 km/h (4 Bft) 100,00 %
02.04.2016 19:24 13,2 C 56 % 1016,1 hPa 0,0 l/m 15,3 km/h (3 Bft) O-NO 62 0 min 0,000 mm 0,0 UV-I 7 W/m 4,6 C 8,9 C 17,7 km/h (3 Bft) 100,00 %
02.04.2016 19:25 13,2 C 57 % 1016,1 hPa 0,0 l/m 14,5 km/h (3 Bft) O-NO 76 0 min 0,000 mm 0,0 UV-I 7 W/m 4,9 C 9,2 C 19,3 km/h (3 Bft) 95,83 %
02.04.2016 19:26 13,2 C 57 % 1016,1 hPa 0,0 l/m 11,9 km/h (2 Bft) O-NO 65 0 min 0,000 mm 0,0 UV-I 7 W/m 4,9 C 10,2 C 16,1 km/h (3 Bft) 100,00 %
02.04.2016 19:27 13,1 C 57 % 1016,1 hPa 0,0 l/m 11,9 km/h (2 Bft) O-NO 58 0 min 0,000 mm 0,0 UV-I 5 W/m 4,8 C 10,1 C 17,7 km/h (3 Bft) 100,00 %
02.04.2016 19:28 13,1 C 58 % 1016,1 hPa 0,0 l/m 15,7 km/h (3 Bft) NO 51 0 min 0,000 mm 0,0 UV-I 5 W/m 5,0 C 8,6 C 22,5 km/h (4 Bft) 95,65 %
02.04.2016 19:29 13,1 C 57 % 1016,0 hPa 0,0 l/m 17,1 km/h (3 Bft) NO 52 0 min 0,000 mm 0,0 UV-I 5 W/m 4,8 C 8,2 C 22,5 km/h (4 Bft) 96,30 %
02.04.2016 19:30 13,0 C 57 % 1016,1 hPa 0,0 l/m 19,8 km/h (3 Bft) NO 49 0 min 0,000 mm 0,0 UV-I 5 W/m 4,7 C 7,2 C 25,7 km/h (4 Bft) 100,00 %
02.04.2016 19:31 13,0 C 57 % 1016,0 hPa 0,0 l/m 18,1 km/h (3 Bft) NO 53 0 min 0,000 mm 0,0 UV-I 2 W/m 4,7 C 7,7 C 22,5 km/h (4 Bft) 100,00 %
02.04.2016 19:32 13,0 C 57 % 1016,1 hPa 0,0 l/m 16,2 km/h (3 Bft) NO 48 0 min 0,000 mm 0,0 UV-I 0 W/m 4,7 C 8,3 C 22,5 km/h (4 Bft) 100,00 %
02.04.2016 19:33 12,9 C 58 % 1016,1 hPa 0,0 l/m 13,8 km/h (3 Bft) NO 42 0 min 0,000 mm 0,0 UV-I 0 W/m 4,8 C 9,1 C 17,7 km/h (3 Bft) 100,00 %
02.04.2016 19:34 12,9 C 58 % 1016,2 hPa 0,0 l/m 13,5 km/h (3 Bft) O-NO 72 0 min 0,000 mm 0,0 UV-I 0 W/m 4,8 C 9,2 C 17,7 km/h (3 Bft) 100,00 %
02.04.2016 19:35 12,9 C 58 % 1016,2 hPa 0,0 l/m 15,8 km/h (3 Bft) O-NO 59 0 min 0,000 mm 0,0 UV-I 0 W/m 4,8 C 8,4 C 22,5 km/h (4 Bft) 100,00 %
02.04.2016 19:36 12,9 C 58 % 1016,2 hPa 0,0 l/m 16,4 km/h (3 Bft) NO 56 0 min 0,000 mm 0,0 UV-I 0 W/m 4,8 C 8,2 C 19,3 km/h (3 Bft) 100,00 %
02.04.2016 19:37 12,8 C 58 % 1016,2 hPa 0,0 l/m 14,3 km/h (3 Bft) NO 55 0 min 0,000 mm 0,0 UV-I 0 W/m 4,7 C 8,8 C 19,3 km/h (3 Bft) 100,00 %
02.04.2016 19:38 12,8 C 58 % 1016,2 hPa 0,0 l/m 17,8 km/h (3 Bft) O-NO 58 0 min 0,000 mm 0,0 UV-I 0 W/m 4,7 C 7,6 C 22,5 km/h (4 Bft) 95,83 %
02.04.2016 19:39 12,8 C 58 % 1016,3 hPa 0,0 l/m 21,4 km/h (4 Bft) O-NO 58 0 min 0,000 mm 0,0 UV-I 0 W/m 4,7 C 6,5 C 25,7 km/h (4 Bft) 91,30 %
02.04.2016 19:40 12,8 C 58 % 1016,2 hPa 0,0 l/m 17,6 km/h (3 Bft) O-NO 59 0 min 0,000 mm 0,0 UV-I 0 W/m 4,7 C 7,6 C 22,5 km/h (4 Bft) 100,00 %
02.04.2016 19:41 12,8 C 58 % 1016,2 hPa 0,0 l/m 15,1 km/h (3 Bft) O-NO 71 0 min 0,000 mm 0,0 UV-I 0 W/m 4,7 C 8,5 C 22,5 km/h (4 Bft) 95,65 %
02.04.2016 19:42 12,8 C 58 % 1016,2 hPa 0,0 l/m 14,8 km/h (3 Bft) O 80 0 min 0,000 mm 0,0 UV-I 0 W/m 4,7 C 8,6 C 20,9 km/h (4 Bft) 100,00 %
02.04.2016 19:43 12,8 C 58 % 1016,3 hPa 0,0 l/m 16,9 km/h (3 Bft) NO 45 0 min 0,000 mm 0,0 UV-I 0 W/m 4,7 C 7,9 C 22,5 km/h (4 Bft) 95,65 %
02.04.2016 19:44 12,8 C 58 % 1016,2 hPa 0,0 l/m 17,6 km/h (3 Bft) O-NO 58 0 min 0,000 mm 0,0 UV-I 0 W/m 4,7 C 7,6 C 22,5 km/h (4 Bft) 96,30 %
02.04.2016 19:45 12,8 C 58 % 1016,2 hPa 0,0 l/m 16,6 km/h (3 Bft) NO 38 0 min 0,000 mm 0,0 UV-I 0 W/m 4,7 C 8,0 C 22,5 km/h (4 Bft) 100,00 %
02.04.2016 19:46 12,8 C 58 % 1016,2 hPa 0,0 l/m 15,6 km/h (3 Bft) NO 52 0 min 0,000 mm 0,0 UV-I 0 W/m 4,7 C 8,3 C 20,9 km/h (4 Bft) 95,83 %
02.04.2016 19:47 12,7 C 59 % 1016,2 hPa 0,0 l/m 19,2 km/h (3 Bft) NO 44 0 min 0,000 mm 0,0 UV-I 0 W/m 4,9 C 7,0 C 22,5 km/h (4 Bft) 100,00 %
02.04.2016 19:48 12,7 C 59 % 1016,2 hPa 0,0 l/m 14,7 km/h (3 Bft) O 80 0 min 0,000 mm 0,0 UV-I 0 W/m 4,9 C 8,5 C 20,9 km/h (4 Bft) 95,83 %
02.04.2016 19:49 12,7 C 59 % 1016,1 hPa 0,0 l/m 19,3 km/h (3 Bft) NO 49 0 min 0,000 mm 0,0 UV-I 0 W/m 4,9 C 7,0 C 22,5 km/h (4 Bft) 100,00 %
02.04.2016 19:50 12,7 C 59 % 1016,1 hPa 0,0 l/m 15,8 km/h (3 Bft) O-NO 65 0 min 0,000 mm 0,0 UV-I 0 W/m 4,9 C 8,1 C 20,9 km/h (4 Bft) 96,15 %
02.04.2016 19:51 12,7 C 59 % 1016,2 hPa 0,0 l/m 17,5 km/h (3 Bft) NO 42 0 min 0,000 mm 0,0 UV-I 0 W/m 4,9 C 7,5 C 20,9 km/h (4 Bft) 100,00 %
02.04.2016 19:52 12,7 C 59 % 1016,2 hPa 0,0 l/m 18,6 km/h (3 Bft) O-NO 61 0 min 0,000 mm 0,0 UV-I 0 W/m 4,9 C 7,2 C 22,5 km/h (4 Bft) 96,55 %
02.04.2016 19:53 12,7 C 59 % 1016,3 hPa 0,0 l/m 16,1 km/h (3 Bft) O-NO 69 0 min 0,000 mm 0,0 UV-I 0 W/m 4,9 C 8,0 C 22,5 km/h (4 Bft) 95,65 %
02.04.2016 19:54 12,6 C 59 % 1016,3 hPa 0,0 l/m 18,0 km/h (3 Bft) O-NO 74 0 min 0,000 mm 0,0 UV-I 0 W/m 4,8 C 7,3 C 20,9 km/h (4 Bft) 100,00 %
02.04.2016 19:55 12,6 C 59 % 1016,2 hPa 0,0 l/m 18,8 km/h (3 Bft) O-NO 58 0 min 0,000 mm 0,0 UV-I 0 W/m 4,8 C 7,0 C 22,5 km/h (4 Bft) 91,67 %
02.04.2016 19:56 12,6 C 59 % 1016,2 hPa 0,0 l/m 16,0 km/h (3 Bft) NO 52 0 min 0,000 mm 0,0 UV-I 0 W/m 4,8 C 7,9 C 22,5 km/h (4 Bft) 100,00 %
02.04.2016 19:57 12,6 C 59 % 1016,3 hPa 0,0 l/m 15,9 km/h (3 Bft) NO 39 0 min 0,000 mm 0,0 UV-I 0 W/m 4,8 C 8,0 C 25,7 km/h (4 Bft) 91,67 %
02.04.2016 19:58 12,6 C 59 % 1016,3 hPa 0,0 l/m 16,4 km/h (3 Bft) NO 52 0 min 0,000 mm 0,0 UV-I 0 W/m 4,8 C 7,8 C 22,5 km/h (4 Bft) 100,00 %
02.04.2016 19:59 12,6 C 60 % 1016,3 hPa 0,0 l/m 16,7 km/h (3 Bft) NO 36 0 min 0,000 mm 0,0 UV-I 0 W/m 5,0 C 7,7 C 24,1 km/h (4 Bft) 95,83 %
02.04.2016 20:00 12,6 C 60 % 1016,3 hPa 0,0 l/m 15,7 km/h (3 Bft) NO 44 0 min 0,000 mm 0,0 UV-I 0 W/m 5,0 C 8,0 C 20,9 km/h (4 Bft) 100,00 %
02.04.2016 20:01 12,5 C 60 % 1016,3 hPa 0,0 l/m 19,7 km/h (3 Bft) NO 36 0 min 0,101 mm 0,0 UV-I 0 W/m 5,0 C 6,6 C 25,7 km/h (4 Bft) 95,83 %
02.04.2016 20:02 12,5 C 60 % 1016,3 hPa 0,0 l/m 15,9 km/h (3 Bft) O-NO 57 0 min 0,000 mm 0,0 UV-I 0 W/m 5,0 C 7,8 C 22,5 km/h (4 Bft) 100,00 %
02.04.2016 20:03 12,4 C 60 % 1016,3 hPa 0,0 l/m 20,5 km/h (4 Bft) NO 56 0 min 0,000 mm 0,0 UV-I 0 W/m 4,9 C 6,2 C 24,1 km/h (4 Bft) 95,83 %
02.04.2016 20:04 12,4 C 60 % 1016,3 hPa 0,0 l/m 17,4 km/h (3 Bft) N-NO 33 0 min 0,000 mm 0,0 UV-I 0 W/m 4,9 C 7,2 C 22,5 km/h (4 Bft) 91,30 %
02.04.2016 20:05 12,4 C 60 % 1016,4 hPa 0,0 l/m 19,7 km/h (3 Bft) NO 46 0 min 0,000 mm 0,0 UV-I 0 W/m 4,9 C 6,5 C 24,1 km/h (4 Bft) 95,83 %
02.04.2016 20:06 12,4 C 60 % 1016,4 hPa 0,0 l/m 18,3 km/h (3 Bft) O-NO 76 0 min 0,000 mm 0,0 UV-I 0 W/m 4,9 C 6,9 C 22,5 km/h (4 Bft) 95,65 %
02.04.2016 20:07 12,4 C 60 % 1016,4 hPa 0,0 l/m 16,1 km/h (3 Bft) O-NO 67 0 min 0,000 mm 0,0 UV-I 0 W/m 4,9 C 7,6 C 22,5 km/h (4 Bft) 95,83 %
02.04.2016 20:08 12,4 C 60 % 1016,4 hPa 0,0 l/m 17,3 km/h (3 Bft) O-NO 75 0 min 0,000 mm 0,0 UV-I 0 W/m 4,9 C 7,2 C 24,1 km/h (4 Bft) 96,55 %
02.04.2016 20:09 12,3 C 61 % 1016,4 hPa 0,0 l/m 15,3 km/h (3 Bft) O-NO 59 0 min 0,000 mm 0,0 UV-I 0 W/m 5,0 C 7,8 C 19,3 km/h (3 Bft) 100,00 %
02.04.2016 20:10 12,3 C 61 % 1016,4 hPa 0,0 l/m 15,6 km/h (3 Bft) O-NO 64 0 min 0,000 mm 0,0 UV-I 0 W/m 5,0 C 7,7 C 22,5 km/h (4 Bft) 95,65 %
02.04.2016 20:11 12,3 C 60 % 1016,4 hPa 0,0 l/m 17,6 km/h (3 Bft) O-NO 59 0 min 0,000 mm 0,0 UV-I 0 W/m 4,8 C 7,0 C 22,5 km/h (4 Bft) 100,00 %
02.04.2016 20:12 12,3 C 61 % 1016,4 hPa 0,0 l/m 16,2 km/h (3 Bft) O-NO 72 0 min 0,000 mm 0,0 UV-I 0 W/m 5,0 C 7,5 C 20,9 km/h (4 Bft) 100,00 %
02.04.2016 20:13 12,3 C 60 % 1016,5 hPa 0,0 l/m 18,8 km/h (3 Bft) NO 53 0 min 0,000 mm 0,0 UV-I 0 W/m 4,8 C 6,6 C 22,5 km/h (4 Bft) 100,00 %
02.04.2016 20:14 12,3 C 60 % 1016,4 hPa 0,0 l/m 15,8 km/h (3 Bft) O-NO 69 0 min 0,000 mm 0,0 UV-I 0 W/m 4,8 C 7,6 C 22,5 km/h (4 Bft) 100,00 %
02.04.2016 20:15 12,3 C 61 % 1016,5 hPa 0,0 l/m 18,5 km/h (3 Bft) O 83 0 min 0,000 mm 0,0 UV-I 0 W/m 5,0 C 6,7 C 27,4 km/h (4 Bft) 100,00 %
02.04.2016 20:16 12,3 C 60 % 1016,4 hPa 0,0 l/m 18,5 km/h (3 Bft) O-NO 63 0 min 0,000 mm 0,0 UV-I 0 W/m 4,8 C 6,7 C 22,5 km/h (4 Bft) 100,00 %
02.04.2016 20:17 12,3 C 60 % 1016,5 hPa 0,0 l/m 17,5 km/h (3 Bft) O-NO 57 0 min 0,000 mm 0,0 UV-I 0 W/m 4,8 C 7,0 C 22,5 km/h (4 Bft) 95,65 %
02.04.2016 20:18 12,3 C 60 % 1016,4 hPa 0,0 l/m 21,8 km/h (4 Bft) O-NO 67 0 min 0,000 mm 0,0 UV-I 0 W/m 4,8 C 5,8 C 27,4 km/h (4 Bft) 100,00 %
02.04.2016 20:19 12,3 C 60 % 1016,4 hPa 0,0 l/m 20,3 km/h (4 Bft) NO 42 0 min 0,000 mm 0,0 UV-I 0 W/m 4,8 C 6,2 C 27,4 km/h (4 Bft) 95,65 %
02.04.2016 20:20 12,3 C 60 % 1016,5 hPa 0,0 l/m 28,0 km/h (4 Bft) O-NO 71 0 min 0,000 mm 0,0 UV-I 0 W/m 4,8 C 4,3 C 32,2 km/h (5 Bft) 100,00 %
02.04.2016 20:21 12,3 C 59 % 1016,4 hPa 0,0 l/m 21,8 km/h (4 Bft) O-NO 66 0 min 0,000 mm 0,0 UV-I 0 W/m 4,5 C 5,8 C 29,0 km/h (5 Bft) 100,00 %
02.04.2016 20:22 12,3 C 60 % 1016,4 hPa 0,0 l/m 19,8 km/h (3 Bft) O-NO 59 0 min 0,000 mm 0,0 UV-I 0 W/m 4,8 C 6,3 C 30,6 km/h (5 Bft) 100,00 %
02.04.2016 20:23 12,3 C 59 % 1016,4 hPa 0,0 l/m 22,3 km/h (4 Bft) O 83 0 min 0,000 mm 0,0 UV-I 0 W/m 4,5 C 5,6 C 33,8 km/h (5 Bft) 100,00 %
02.04.2016 20:24 12,3 C 60 % 1016,5 hPa 0,0 l/m 20,7 km/h (4 Bft) O 79 0 min 0,000 mm 0,0 UV-I 0 W/m 4,8 C 6,1 C 27,4 km/h (4 Bft) 100,00 %
02.04.2016 20:25 12,3 C 59 % 1016,5 hPa 0,0 l/m 23,5 km/h (4 Bft) O 84 0 min 0,000 mm 0,0 UV-I 0 W/m 4,5 C 5,3 C 32,2 km/h (5 Bft) 95,65 %
02.04.2016 20:26 12,3 C 59 % 1016,4 hPa 0,0 l/m 22,9 km/h (4 Bft) O-NO 78 0 min 0,000 mm 0,0 UV-I 0 W/m 4,5 C 5,5 C 30,6 km/h (5 Bft) 100,00 %
02.04.2016 20:27 12,3 C 59 % 1016,4 hPa 0,0 l/m 21,6 km/h (4 Bft) O 95 0 min 0,000 mm 0,0 UV-I 0 W/m 4,5 C 5,8 C 32,2 km/h (5 Bft) 100,00 %
02.04.2016 20:28 12,3 C 59 % 1016,6 hPa 0,0 l/m 17,5 km/h (3 Bft) O-NO 72 0 min 0,000 mm 0,0 UV-I 0 W/m 4,5 C 7,0 C 24,1 km/h (4 Bft) 100,00 %
02.04.2016 20:29 12,3 C 59 % 1016,5 hPa 0,0 l/m 21,7 km/h (4 Bft) O-NO 69 0 min 0,000 mm 0,0 UV-I 0 W/m 4,5 C 5,8 C 27,4 km/h (4 Bft) 100,00 %
02.04.2016 20:30 12,3 C 59 % 1016,4 hPa 0,0 l/m 17,9 km/h (3 Bft) NO 53 0 min 0,000 mm 0,0 UV-I 0 W/m 4,5 C 6,9 C 25,7 km/h (4 Bft) 100,00 %
02.04.2016 20:31 12,3 C 59 % 1016,5 hPa 0,0 l/m 22,1 km/h (4 Bft) O-NO 77 0 min 0,000 mm 0,0 UV-I 0 W/m 4,5 C 5,7 C 30,6 km/h (5 Bft) 100,00 %
02.04.2016 20:32 12,3 C 59 % 1016,4 hPa 0,0 l/m 28,4 km/h (4 Bft) O-NO 73 0 min 0,000 mm 0,0 UV-I 0 W/m 4,5 C 4,2 C 37,0 km/h (5 Bft) 100,00 %
02.04.2016 20:33 12,3 C 59 % 1016,5 hPa 0,0 l/m 19,5 km/h (3 Bft) O-NO 78 0 min 0,000 mm 0,0 UV-I 0 W/m 4,5 C 6,4 C 27,4 km/h (4 Bft) 100,00 %
02.04.2016 20:34 12,3 C 59 % 1016,5 hPa 0,0 l/m 17,3 km/h (3 Bft) O-NO 60 0 min 0,000 mm 0,0 UV-I 0 W/m 4,5 C 7,1 C 22,5 km/h (4 Bft) 100,00 %
02.04.2016 20:35 12,3 C 60 % 1016,5 hPa 0,0 l/m 15,6 km/h (3 Bft) NO 36 0 min 0,000 mm 0,0 UV-I 0 W/m 4,8 C 7,7 C 20,9 km/h (4 Bft) 100,00 %
02.04.2016 20:36 12,3 C 60 % 1016,5 hPa 0,0 l/m 19,2 km/h (3 Bft) NO 56 0 min 0,000 mm 0,0 UV-I 0 W/m 4,8 C 6,5 C 24,1 km/h (4 Bft) 100,00 %
02.04.2016 20:37 12,2 C 59 % 1016,5 hPa 0,0 l/m 20,0 km/h (4 Bft) O-NO 62 0 min 0,000 mm 0,0 UV-I 0 W/m 4,4 C 6,1 C 25,7 km/h (4 Bft) 100,00 %
02.04.2016 20:38 12,2 C 59 % 1016,5 hPa 0,0 l/m 23,3 km/h (4 Bft) NO 40 0 min 0,000 mm 0,0 UV-I 0 W/m 4,4 C 5,2 C 32,2 km/h (5 Bft) 100,00 %
02.04.2016 20:39 12,2 C 59 % 1016,5 hPa 0,0 l/m 21,3 km/h (4 Bft) O 88 0 min 0,000 mm 0,0 UV-I 0 W/m 4,4 C 5,8 C 27,4 km/h (4 Bft) 100,00 %
02.04.2016 20:40 12,2 C 59 % 1016,5 hPa 0,0 l/m 18,8 km/h (3 Bft) O-NO 57 0 min 0,000 mm 0,0 UV-I 0 W/m 4,4 C 6,5 C 27,4 km/h (4 Bft) 95,65 %
02.04.2016 20:41 12,2 C 59 % 1016,5 hPa 0,0 l/m 23,0 km/h (4 Bft) NO 53 0 min 0,000 mm 0,0 UV-I 0 W/m 4,4 C 5,3 C 27,4 km/h (4 Bft) 100,00 %
02.04.2016 20:42 12,2 C 59 % 1016,5 hPa 0,0 l/m 21,4 km/h (4 Bft) O-NO 66 0 min 0,000 mm 0,0 UV-I 0 W/m 4,4 C 5,7 C 27,4 km/h (4 Bft) 100,00 %
02.04.2016 20:43 12,2 C 59 % 1016,5 hPa 0,0 l/m 22,3 km/h (4 Bft) O-NO 63 0 min 0,000 mm 0,0 UV-I 0 W/m 4,4 C 5,5 C 29,0 km/h (5 Bft) 95,83 %
02.04.2016 20:44 12,2 C 59 % 1016,5 hPa 0,0 l/m 18,6 km/h (3 Bft) O-NO 71 0 min 0,000 mm 0,0 UV-I 0 W/m 4,4 C 6,6 C 25,7 km/h (4 Bft) 95,65 %
02.04.2016 20:45 12,2 C 59 % 1016,5 hPa 0,0 l/m 19,2 km/h (3 Bft) O-NO 69 0 min 0,000 mm 0,0 UV-I 0 W/m 4,4 C 6,4 C 27,4 km/h (4 Bft) 100,00 %
02.04.2016 20:46 12,2 C 59 % 1016,5 hPa 0,0 l/m 18,2 km/h (3 Bft) O 80 0 min 0,000 mm 0,0 UV-I 0 W/m 4,4 C 6,7 C 24,1 km/h (4 Bft) 96,15 %
02.04.2016 20:47 12,2 C 59 % 1016,5 hPa 0,0 l/m 18,9 km/h (3 Bft) O-NO 69 0 min 0,000 mm 0,0 UV-I 0 W/m 4,4 C 6,5 C 27,4 km/h (4 Bft) 100,00 %
02.04.2016 20:48 12,2 C 59 % 1016,4 hPa 0,0 l/m 24,2 km/h (4 Bft) O-NO 58 0 min 0,000 mm 0,0 UV-I 0 W/m 4,4 C 5,0 C 32,2 km/h (5 Bft) 100,00 %
02.04.2016 20:49 12,2 C 59 % 1016,5 hPa 0,0 l/m 17,4 km/h (3 Bft) O-NO 66 0 min 0,000 mm 0,0 UV-I 0 W/m 4,4 C 6,9 C 24,1 km/h (4 Bft) 100,00 %
02.04.2016 20:50 12,1 C 60 % 1016,5 hPa 0,0 l/m 19,1 km/h (3 Bft) O-NO 65 0 min 0,000 mm 0,0 UV-I 0 W/m 4,6 C 6,3 C 27,4 km/h (4 Bft) 100,00 %
02.04.2016 20:51 12,1 C 59 % 1016,4 hPa 0,0 l/m 20,0 km/h (4 Bft) O-NO 71 0 min 0,000 mm 0,0 UV-I 0 W/m 4,3 C 6,0 C 25,7 km/h (4 Bft) 100,00 %
02.04.2016 20:52 12,1 C 59 % 1016,4 hPa 0,0 l/m 22,9 km/h (4 Bft) NO 46 0 min 0,000 mm 0,0 UV-I 0 W/m 4,3 C 5,2 C 29,0 km/h (5 Bft) 100,00 %
02.04.2016 20:53 12,1 C 59 % 1016,4 hPa 0,0 l/m 24,8 km/h (4 Bft) O-NO 69 0 min 0,000 mm 0,0 UV-I 0 W/m 4,3 C 4,7 C 32,2 km/h (5 Bft) 100,00 %
02.04.2016 20:54 12,1 C 59 % 1016,4 hPa 0,0 l/m 23,7 km/h (4 Bft) O-NO 66 0 min 0,000 mm 0,0 UV-I 0 W/m 4,3 C 5,0 C 29,0 km/h (5 Bft) 100,00 %
02.04.2016 20:55 12,1 C 60 % 1016,4 hPa 0,0 l/m 20,4 km/h (4 Bft) O-NO 75 0 min 0,000 mm 0,0 UV-I 0 W/m 4,6 C 5,9 C 25,7 km/h (4 Bft) 96,15 %
02.04.2016 20:56 12,1 C 59 % 1016,4 hPa 0,0 l/m 22,7 km/h (4 Bft) NO 56 0 min 0,000 mm 0,0 UV-I 0 W/m 4,3 C 5,2 C 30,6 km/h (5 Bft) 100,00 %
02.04.2016 20:57 12,1 C 59 % 1016,4 hPa 0,0 l/m 20,0 km/h (4 Bft) O-NO 60 0 min 0,000 mm 0,0 UV-I 0 W/m 4,3 C 6,0 C 30,6 km/h (5 Bft) 100,00 %
02.04.2016 20:58 12,0 C 59 % 1016,4 hPa 0,0 l/m 20,8 km/h (4 Bft) O-NO 78 0 min 0,000 mm 0,0 UV-I 0 W/m 4,2 C 5,6 C 29,0 km/h (5 Bft) 100,00 %
02.04.2016 20:59 12,1 C 59 % 1016,4 hPa 0,0 l/m 20,8 km/h (4 Bft) NO 37 0 min 0,000 mm 0,0 UV-I 0 W/m 4,3 C 5,8 C 25,7 km/h (4 Bft) 95,65 %
02.04.2016 21:00 12,0 C 59 % 1016,4 hPa 0,0 l/m 23,7 km/h (4 Bft) O-NO 65 0 min 0,000 mm 0,0 UV-I 0 W/m 4,2 C 4,9 C 35,4 km/h (5 Bft) 100,00 %
02.04.2016 21:01 12,0 C 59 % 1016,3 hPa 0,0 l/m 20,1 km/h (4 Bft) O-NO 57 0 min 0,102 mm 0,0 UV-I 0 W/m 4,2 C 5,8 C 25,7 km/h (4 Bft) 100,00 %
02.04.2016 21:02 12,0 C 60 % 1016,3 hPa 0,0 l/m 20,9 km/h (4 Bft) O-NO 63 0 min 0,000 mm 0,0 UV-I 0 W/m 4,5 C 5,6 C 29,0 km/h (5 Bft) 100,00 %
02.04.2016 21:03 12,0 C 59 % 1016,4 hPa 0,0 l/m 17,3 km/h (3 Bft) NO 46 0 min 0,000 mm 0,0 UV-I 0 W/m 4,2 C 6,7 C 24,1 km/h (4 Bft) 100,00 %
02.04.2016 21:04 12,0 C 60 % 1016,3 hPa 0,0 l/m 22,1 km/h (4 Bft) NO 47 0 min 0,000 mm 0,0 UV-I 0 W/m 4,5 C 5,3 C 33,8 km/h (5 Bft) 100,00 %
02.04.2016 21:05 11,9 C 59 % 1016,3 hPa 0,0 l/m 24,9 km/h (4 Bft) O-NO 60 0 min 0,000 mm 0,0 UV-I 0 W/m 4,1 C 4,4 C 35,4 km/h (5 Bft) 100,00 %
02.04.2016 21:06 11,9 C 60 % 1016,3 hPa 0,0 l/m 19,3 km/h (3 Bft) NO 54 0 min 0,000 mm 0,0 UV-I 0 W/m 4,4 C 6,0 C 30,6 km/h (5 Bft) 100,00 %
02.04.2016 21:07 11,9 C 60 % 1016,3 hPa 0,0 l/m 23,5 km/h (4 Bft) O 81 0 min 0,000 mm 0,0 UV-I 0 W/m 4,4 C 4,8 C 32,2 km/h (5 Bft) 100,00 %
02.04.2016 21:08 11,9 C 59 % 1016,3 hPa 0,0 l/m 20,5 km/h (4 Bft) O-NO 61 0 min 0,000 mm 0,0 UV-I 0 W/m 4,1 C 5,6 C 29,0 km/h (5 Bft) 95,83 %
02.04.2016 21:09 11,9 C 60 % 1016,3 hPa 0,0 l/m 17,1 km/h (3 Bft) O-NO 58 0 min 0,000 mm 0,0 UV-I 0 W/m 4,4 C 6,7 C 25,7 km/h (4 Bft) 100,00 %
02.04.2016 21:10 11,9 C 60 % 1016,3 hPa 0,0 l/m 19,6 km/h (3 Bft) O-NO 74 0 min 0,000 mm 0,0 UV-I 0 W/m 4,4 C 5,9 C 27,4 km/h (4 Bft) 95,65 %
02.04.2016 21:11 11,9 C 60 % 1016,4 hPa 0,0 l/m 21,0 km/h (4 Bft) N-NO 32 0 min 0,000 mm 0,0 UV-I 0 W/m 4,4 C 5,5 C 25,7 km/h (4 Bft) 100,00 %
02.04.2016 21:12 11,9 C 59 % 1016,4 hPa 0,0 l/m 21,1 km/h (4 Bft) O-NO 63 0 min 0,000 mm 0,0 UV-I 0 W/m 4,1 C 5,4 C 25,7 km/h (4 Bft) 100,00 %
02.04.2016 21:13 11,8 C 60 % 1016,4 hPa 0,0 l/m 20,9 km/h (4 Bft) O-NO 61 0 min 0,000 mm 0,0 UV-I 0 W/m 4,3 C 5,3 C 27,4 km/h (4 Bft) 100,00 %
02.04.2016 21:14 11,8 C 60 % 1016,4 hPa 0,0 l/m 21,2 km/h (4 Bft) NO 49 0 min 0,000 mm 0,0 UV-I 0 W/m 4,3 C 5,3 C 29,0 km/h (5 Bft) 96,15 %
02.04.2016 21:15 11,8 C 59 % 1016,4 hPa 0,0 l/m 24,3 km/h (4 Bft) O-NO 73 0 min 0,000 mm 0,0 UV-I 0 W/m 4,1 C 4,4 C 32,2 km/h (5 Bft) 100,00 %
02.04.2016 21:16 11,8 C 60 % 1016,4 hPa 0,0 l/m 18,6 km/h (3 Bft) O-NO 70 0 min 0,000 mm 0,0 UV-I 0 W/m 4,3 C 6,0 C 25,7 km/h (4 Bft) 91,30 %
02.04.2016 21:17 11,8 C 60 % 1016,4 hPa 0,0 l/m 19,8 km/h (3 Bft) NO 55 0 min 0,000 mm 0,0 UV-I 0 W/m 4,3 C 5,7 C 25,7 km/h (4 Bft) 100,00 %
02.04.2016 21:18 11,8 C 60 % 1016,4 hPa 0,0 l/m 17,9 km/h (3 Bft) O-NO 68 0 min 0,000 mm 0,0 UV-I 0 W/m 4,3 C 6,3 C 22,5 km/h (4 Bft) 90,91 %
02.04.2016 21:19 11,8 C 60 % 1016,4 hPa 0,0 l/m 19,2 km/h (3 Bft) O-NO 69 0 min 0,000 mm 0,0 UV-I 0 W/m 4,3 C 5,9 C 25,7 km/h (4 Bft) 100,00 %
02.04.2016 21:20 11,8 C 60 % 1016,4 hPa 0,0 l/m 15,7 km/h (3 Bft) O-NO 65 0 min 0,000 mm 0,0 UV-I 0 W/m 4,3 C 7,0 C 22,5 km/h (4 Bft) 95,65 %
02.04.2016 21:21 11,7 C 60 % 1016,4 hPa 0,0 l/m 15,8 km/h (3 Bft) O 86 0 min 0,000 mm 0,0 UV-I 0 W/m 4,2 C 6,9 C 19,3 km/h (3 Bft) 100,00 %
02.04.2016 21:22 11,7 C 60 % 1016,4 hPa 0,0 l/m 21,7 km/h (4 Bft) NO 52 0 min 0,000 mm 0,0 UV-I 0 W/m 4,2 C 5,0 C 30,6 km/h (5 Bft) 100,00 %
02.04.2016 21:23 11,7 C 60 % 1016,4 hPa 0,0 l/m 19,2 km/h (3 Bft) O-NO 78 0 min 0,000 mm 0,0 UV-I 0 W/m 4,2 C 5,7 C 25,7 km/h (4 Bft) 100,00 %
02.04.2016 21:24 11,7 C 60 % 1016,4 hPa 0,0 l/m 21,2 km/h (4 Bft) O-NO 59 0 min 0,000 mm 0,0 UV-I 0 W/m 4,2 C 5,1 C 27,4 km/h (4 Bft) 100,00 %
02.04.2016 21:25 11,7 C 60 % 1016,4 hPa 0,0 l/m 18,4 km/h (3 Bft) O-NO 73 0 min 0,000 mm 0,0 UV-I 0 W/m 4,2 C 6,0 C 22,5 km/h (4 Bft) 100,00 %
02.04.2016 21:26 11,7 C 61 % 1016,4 hPa 0,0 l/m 19,4 km/h (3 Bft) O-NO 70 0 min 0,000 mm 0,0 UV-I 0 W/m 4,4 C 5,7 C 27,4 km/h (4 Bft) 95,65 %
02.04.2016 21:27 11,6 C 61 % 1016,4 hPa 0,0 l/m 16,3 km/h (3 Bft) O-NO 63 0 min 0,000 mm 0,0 UV-I 0 W/m 4,3 C 6,6 C 22,5 km/h (4 Bft) 100,00 %
02.04.2016 21:28 11,6 C 61 % 1016,4 hPa 0,0 l/m 19,0 km/h (3 Bft) O-NO 70 0 min 0,000 mm 0,0 UV-I 0 W/m 4,3 C 5,7 C 25,7 km/h (4 Bft) 100,00 %
02.04.2016 21:29 11,6 C 61 % 1016,4 hPa 0,0 l/m 19,1 km/h (3 Bft) O-NO 68 0 min 0,000 mm 0,0 UV-I 0 W/m 4,3 C 5,6 C 25,7 km/h (4 Bft) 100,00 %
02.04.2016 21:30 11,6 C 61 % 1016,4 hPa 0,0 l/m 21,3 km/h (4 Bft) O-NO 66 0 min 0,000 mm 0,0 UV-I 0 W/m 4,3 C 5,0 C 27,4 km/h (4 Bft) 100,00 %
02.04.2016 21:31 11,6 C 61 % 1016,4 hPa 0,0 l/m 16,2 km/h (3 Bft) O-NO 78 0 min 0,000 mm 0,0 UV-I 0 W/m 4,3 C 6,6 C 22,5 km/h (4 Bft) 95,83 %
02.04.2016 21:32 11,6 C 61 % 1016,4 hPa 0,0 l/m 19,4 km/h (3 Bft) O 90 0 min 0,000 mm 0,0 UV-I 0 W/m 4,3 C 5,5 C 30,6 km/h (5 Bft) 91,30 %
02.04.2016 21:33 11,6 C 60 % 1016,4 hPa 0,0 l/m 20,9 km/h (4 Bft) O 84 0 min 0,000 mm 0,0 UV-I 0 W/m 4,1 C 5,1 C 25,7 km/h (4 Bft) 95,83 %
02.04.2016 21:34 11,6 C 61 % 1016,4 hPa 0,0 l/m 16,7 km/h (3 Bft) O-NO 61 0 min 0,000 mm 0,0 UV-I 0 W/m 4,3 C 6,4 C 24,1 km/h (4 Bft) 100,00 %
02.04.2016 21:35 11,6 C 61 % 1016,4 hPa 0,0 l/m 18,5 km/h (3 Bft) O-NO 63 0 min 0,000 mm 0,0 UV-I 0 W/m 4,3 C 5,8 C 25,7 km/h (4 Bft) 100,00 %
02.04.2016 21:36 11,5 C 61 % 1016,3 hPa 0,0 l/m 17,7 km/h (3 Bft) O-NO 61 0 min 0,000 mm 0,0 UV-I 0 W/m 4,2 C 6,0 C 24,1 km/h (4 Bft) 100,00 %
02.04.2016 21:37 11,5 C 61 % 1016,4 hPa 0,0 l/m 18,5 km/h (3 Bft) O-NO 62 0 min 0,000 mm 0,0 UV-I 0 W/m 4,2 C 5,7 C 22,5 km/h (4 Bft) 91,30 %
02.04.2016 21:38 11,4 C 61 % 1016,4 hPa 0,0 l/m 20,2 km/h (4 Bft) O 87 0 min 0,000 mm 0,0 UV-I 0 W/m 4,2 C 5,0 C 30,6 km/h (5 Bft) 95,83 %
02.04.2016 21:39 11,4 C 61 % 1016,3 hPa 0,0 l/m 17,9 km/h (3 Bft) O-NO 74 0 min 0,000 mm 0,0 UV-I 0 W/m 4,2 C 5,8 C 24,1 km/h (4 Bft) 91,30 %
02.04.2016 21:40 11,4 C 62 % 1016,3 hPa 0,0 l/m 18,2 km/h (3 Bft) NO 50 0 min 0,000 mm 0,0 UV-I 0 W/m 4,4 C 5,7 C 22,5 km/h (4 Bft) 100,00 %
02.04.2016 21:41 11,4 C 62 % 1016,3 hPa 0,0 l/m 19,0 km/h (3 Bft) O-NO 67 0 min 0,000 mm 0,0 UV-I 0 W/m 4,4 C 5,4 C 22,5 km/h (4 Bft) 95,65 %
02.04.2016 21:42 11,4 C 62 % 1016,3 hPa 0,0 l/m 22,8 km/h (4 Bft) O-NO 69 0 min 0,000 mm 0,0 UV-I 0 W/m 4,4 C 4,3 C 30,6 km/h (5 Bft) 100,00 %
02.04.2016 21:43 11,4 C 62 % 1016,3 hPa 0,0 l/m 19,4 km/h (3 Bft) NO 51 0 min 0,000 mm 0,0 UV-I 0 W/m 4,4 C 5,3 C 33,8 km/h (5 Bft) 91,30 %
02.04.2016 21:44 11,3 C 62 % 1016,2 hPa 0,0 l/m 21,7 km/h (4 Bft) O-NO 63 0 min 0,000 mm 0,0 UV-I 0 W/m 4,3 C 4,5 C 29,0 km/h (5 Bft) 100,00 %
02.04.2016 21:45 11,3 C 62 % 1016,3 hPa 0,0 l/m 24,6 km/h (4 Bft) O-NO 74 0 min 0,000 mm 0,0 UV-I 0 W/m 4,3 C 3,7 C 32,2 km/h (5 Bft) 95,65 %
02.04.2016 21:46 11,3 C 61 % 1016,3 hPa 0,0 l/m 23,1 km/h (4 Bft) O-NO 67 0 min 0,000 mm 0,0 UV-I 0 W/m 4,1 C 4,1 C 30,6 km/h (5 Bft) 91,67 %
02.04.2016 21:47 11,3 C 61 % 1016,2 hPa 0,0 l/m 21,3 km/h (4 Bft) NO 55 0 min 0,000 mm 0,0 UV-I 0 W/m 4,1 C 4,6 C 27,4 km/h (4 Bft) 100,00 %
02.04.2016 21:48 11,3 C 62 % 1016,2 hPa 0,0 l/m 18,9 km/h (3 Bft) O-NO 70 0 min 0,000 mm 0,0 UV-I 0 W/m 4,3 C 5,3 C 24,1 km/h (4 Bft) 95,83 %
02.04.2016 21:49 11,4 C 61 % 1016,2 hPa 0,0 l/m 21,7 km/h (4 Bft) O 84 0 min 0,000 mm 0,0 UV-I 0 W/m 4,2 C 4,6 C 30,6 km/h (5 Bft) 95,65 %
02.04.2016 21:50 11,4 C 61 % 1016,3 hPa 0,0 l/m 19,8 km/h (3 Bft) O-NO 59 0 min 0,000 mm 0,0 UV-I 0 W/m 4,2 C 5,2 C 25,7 km/h (4 Bft) 95,83 %
02.04.2016 21:51 11,4 C 61 % 1016,3 hPa 0,0 l/m 18,1 km/h (3 Bft) O 79 0 min 0,000 mm 0,0 UV-I 0 W/m 4,2 C 5,7 C 25,7 km/h (4 Bft) 100,00 %
02.04.2016 21:52 11,4 C 62 % 1016,3 hPa 0,0 l/m 20,1 km/h (4 Bft) NO 40 0 min 0,000 mm 0,0 UV-I 0 W/m 4,4 C 5,1 C 27,4 km/h (4 Bft) 96,30 %
02.04.2016 21:53 11,3 C 62 % 1016,2 hPa 0,0 l/m 18,9 km/h (3 Bft) O-NO 62 0 min 0,000 mm 0,0 UV-I 0 W/m 4,3 C 5,3 C 25,7 km/h (4 Bft) 95,65 %
02.04.2016 21:54 11,4 C 62 % 1016,3 hPa 0,0 l/m 16,4 km/h (3 Bft) NO 53 0 min 0,000 mm 0,0 UV-I 0 W/m 4,4 C 6,3 C 20,9 km/h (4 Bft) 100,00 %
02.04.2016 21:55 11,3 C 62 % 1016,3 hPa 0,0 l/m 25,3 km/h (4 Bft) O 95 0 min 0,000 mm 0,0 UV-I 0 W/m 4,3 C 3,5 C 30,6 km/h (5 Bft) 95,83 %
02.04.2016 21:56 11,3 C 61 % 1016,3 hPa 0,0 l/m 19,9 km/h (4 Bft) NO 53 0 min 0,000 mm 0,0 UV-I 0 W/m 4,1 C 5,0 C 22,5 km/h (4 Bft) 100,00 %
02.04.2016 21:57 11,3 C 62 % 1016,3 hPa 0,0 l/m 18,4 km/h (3 Bft) O-NO 71 0 min 0,000 mm 0,0 UV-I 0 W/m 4,3 C 5,5 C 22,5 km/h (4 Bft) 95,83 %
02.04.2016 21:58 11,3 C 62 % 1016,3 hPa 0,0 l/m 15,7 km/h (3 Bft) O-NO 67 0 min 0,000 mm 0,0 UV-I 0 W/m 4,3 C 6,4 C 20,9 km/h (4 Bft) 100,00 %
02.04.2016 21:59 11,3 C 62 % 1016,3 hPa 0,0 l/m 23,3 km/h (4 Bft) O-NO 68 0 min 0,000 mm 0,0 UV-I 0 W/m 4,3 C 4,0 C 32,2 km/h (5 Bft) 91,67 %
02.04.2016 22:00 11,3 C 62 % 1016,3 hPa 0,0 l/m 23,9 km/h (4 Bft) O 90 0 min 0,000 mm 0,0 UV-I 0 W/m 4,3 C 3,9 C 30,6 km/h (5 Bft) 100,00 %
02.04.2016 22:01 11,3 C 62 % 1016,3 hPa 0,0 l/m 23,2 km/h (4 Bft) O-NO 76 0 min 0,101 mm 0,0 UV-I 0 W/m 4,3 C 4,1 C 30,6 km/h (5 Bft) 95,83 %
02.04.2016 22:02 11,3 C 62 % 1016,3 hPa 0,0 l/m 18,8 km/h (3 Bft) O-NO 70 0 min 0,000 mm 0,0 UV-I 0 W/m 4,3 C 5,3 C 22,5 km/h (4 Bft) 100,00 %
02.04.2016 22:03 11,2 C 62 % 1016,3 hPa 0,0 l/m 19,0 km/h (3 Bft) O-NO 68 0 min 0,000 mm 0,0 UV-I 0 W/m 4,2 C 5,2 C 32,2 km/h (5 Bft) 95,83 %
02.04.2016 22:04 11,2 C 62 % 1016,3 hPa 0,0 l/m 26,2 km/h (4 Bft) O-NO 75 0 min 0,000 mm 0,0 UV-I 0 W/m 4,2 C 3,2 C 35,4 km/h (5 Bft) 100,00 %
02.04.2016 22:05 11,2 C 62 % 1016,3 hPa 0,0 l/m 23,1 km/h (4 Bft) O-NO 75 0 min 0,000 mm 0,0 UV-I 0 W/m 4,2 C 3,9 C 30,6 km/h (5 Bft) 94,74 %
02.04.2016 22:06 11,2 C 62 % 1016,3 hPa 0,0 l/m 19,9 km/h (4 Bft) O 96 0 min 0,000 mm 0,0 UV-I 0 W/m 4,2 C 4,9 C 24,1 km/h (4 Bft) 91,30 %
02.04.2016 22:07 11,2 C 62 % 1016,3 hPa 0,0 l/m 24,4 km/h (4 Bft) O-NO 59 0 min 0,000 mm 0,0 UV-I 0 W/m 4,2 C 3,6 C 32,2 km/h (5 Bft) 100,00 %
02.04.2016 22:08 11,2 C 62 % 1016,3 hPa 0,0 l/m 22,1 km/h (4 Bft) O-NO 61 0 min 0,000 mm 0,0 UV-I 0 W/m 4,2 C 4,2 C 27,4 km/h (4 Bft) 95,83 %
02.04.2016 22:09 11,2 C 62 % 1016,4 hPa 0,0 l/m 22,4 km/h (4 Bft) O-NO 72 0 min 0,000 mm 0,0 UV-I 0 W/m 4,2 C 4,1 C 27,4 km/h (4 Bft) 100,00 %
02.04.2016 22:10 11,2 C 62 % 1016,3 hPa 0,0 l/m 19,7 km/h (3 Bft) O-NO 67 0 min 0,000 mm 0,0 UV-I 0 W/m 4,2 C 4,9 C 24,1 km/h (4 Bft) 96,30 %
02.04.2016 22:11 11,2 C 62 % 1016,3 hPa 0,0 l/m 18,8 km/h (3 Bft) NO 39 0 min 0,000 mm 0,0 UV-I 0 W/m 4,2 C 5,2 C 22,5 km/h (4 Bft) 96,15 %
02.04.2016 22:12 11,2 C 62 % 1016,4 hPa 0,0 l/m 18,6 km/h (3 Bft) O-NO 69 0 min 0,000 mm 0,0 UV-I 0 W/m 4,2 C 5,3 C 24,1 km/h (4 Bft) 100,00 %
02.04.2016 22:13 11,2 C 63 % 1016,4 hPa 0,0 l/m 21,9 km/h (4 Bft) O 87 0 min 0,000 mm 0,0 UV-I 0 W/m 4,4 C 4,3 C 27,4 km/h (4 Bft) 95,83 %
02.04.2016 22:14 11,1 C 62 % 1016,4 hPa 0,0 l/m 17,5 km/h (3 Bft) NO 52 0 min 0,000 mm 0,0 UV-I 0 W/m 4,1 C 5,5 C 24,1 km/h (4 Bft) 100,00 %
02.04.2016 22:15 11,1 C 63 % 1016,4 hPa 0,0 l/m 15,6 km/h (3 Bft) O-NO 72 0 min 0,000 mm 0,0 UV-I 0 W/m 4,3 C 6,2 C 22,5 km/h (4 Bft) 100,00 %
02.04.2016 22:16 11,1 C 63 % 1016,4 hPa 0,0 l/m 18,5 km/h (3 Bft) NO 47 0 min 0,000 mm 0,0 UV-I 0 W/m 4,3 C 5,2 C 25,7 km/h (4 Bft) 100,00 %
02.04.2016 22:17 11,1 C 63 % 1016,4 hPa 0,0 l/m 19,3 km/h (3 Bft) NO 49 0 min 0,000 mm 0,0 UV-I 0 W/m 4,3 C 4,9 C 25,7 km/h (4 Bft) 100,00 %
02.04.2016 22:18 11,1 C 63 % 1016,4 hPa 0,0 l/m 18,9 km/h (3 Bft) O-NO 69 0 min 0,000 mm 0,0 UV-I 0 W/m 4,3 C 5,1 C 24,1 km/h (4 Bft) 96,30 %
02.04.2016 22:19 11,1 C 63 % 1016,4 hPa 0,0 l/m 17,6 km/h (3 Bft) O-NO 60 0 min 0,000 mm 0,0 UV-I 0 W/m 4,3 C 5,5 C 22,5 km/h (4 Bft) 100,00 %
02.04.2016 22:20 11,0 C 64 % 1016,3 hPa 0,0 l/m 16,1 km/h (3 Bft) O 82 0 min 0,000 mm 0,0 UV-I 0 W/m 4,5 C 5,9 C 24,1 km/h (4 Bft) 100,00 %
02.04.2016 22:21 11,0 C 63 % 1016,3 hPa 0,0 l/m 17,4 km/h (3 Bft) O-NO 65 0 min 0,000 mm 0,0 UV-I 0 W/m 4,2 C 5,4 C 25,7 km/h (4 Bft) 100,00 %
02.04.2016 22:22 10,9 C 63 % 1016,3 hPa 0,0 l/m 19,2 km/h (3 Bft) O-NO 61 0 min 0,000 mm 0,0 UV-I 0 W/m 4,1 C 4,7 C 24,1 km/h (4 Bft) 95,83 %
02.04.2016 22:23 10,9 C 63 % 1016,3 hPa 0,0 l/m 20,7 km/h (4 Bft) NO 53 0 min 0,000 mm 0,0 UV-I 0 W/m 4,1 C 4,2 C 25,7 km/h (4 Bft) 100,00 %
02.04.2016 22:24 10,9 C 63 % 1016,3 hPa 0,0 l/m 20,7 km/h (4 Bft) O-NO 66 0 min 0,000 mm 0,0 UV-I 0 W/m 4,1 C 4,2 C 29,0 km/h (5 Bft) 100,00 %
02.04.2016 22:25 10,9 C 63 % 1016,3 hPa 0,0 l/m 23,8 km/h (4 Bft) O-NO 67 0 min 0,000 mm 0,0 UV-I 0 W/m 4,1 C 3,4 C 30,6 km/h (5 Bft) 100,00 %
02.04.2016 22:26 10,9 C 63 % 1016,3 hPa 0,0 l/m 18,4 km/h (3 Bft) NO 46 0 min 0,000 mm 0,0 UV-I 0 W/m 4,1 C 5,0 C 22,5 km/h (4 Bft) 100,00 %
02.04.2016 22:27 10,9 C 63 % 1016,3 hPa 0,0 l/m 19,7 km/h (3 Bft) O-NO 74 0 min 0,000 mm 0,0 UV-I 0 W/m 4,1 C 4,5 C 25,7 km/h (4 Bft) 100,00 %
02.04.2016 22:28 10,9 C 63 % 1016,3 hPa 0,0 l/m 16,6 km/h (3 Bft) O-NO 78 0 min 0,000 mm 0,0 UV-I 0 W/m 4,1 C 5,6 C 29,0 km/h (5 Bft) 100,00 %
02.04.2016 22:29 10,9 C 63 % 1016,3 hPa 0,0 l/m 23,3 km/h (4 Bft) O 88 0 min 0,000 mm 0,0 UV-I 0 W/m 4,1 C 3,5 C 30,6 km/h (5 Bft) 100,00 %
02.04.2016 22:30 10,9 C 63 % 1016,3 hPa 0,0 l/m 18,4 km/h (3 Bft) O 98 0 min 0,000 mm 0,0 UV-I 0 W/m 4,1 C 5,0 C 25,7 km/h (4 Bft) 100,00 %
02.04.2016 22:31 10,9 C 64 % 1016,3 hPa 0,0 l/m 16,9 km/h (3 Bft) O-NO 71 0 min 0,000 mm 0,0 UV-I 0 W/m 4,4 C 5,5 C 20,9 km/h (4 Bft) 95,65 %
02.04.2016 22:32 10,9 C 64 % 1016,3 hPa 0,0 l/m 16,7 km/h (3 Bft) O 80 0 min 0,000 mm 0,0 UV-I 0 W/m 4,4 C 5,6 C 20,9 km/h (4 Bft) 100,00 %
02.04.2016 22:33 10,8 C 64 % 1016,3 hPa 0,0 l/m 17,0 km/h (3 Bft) O 88 0 min 0,000 mm 0,0 UV-I 0 W/m 4,3 C 5,3 C 22,5 km/h (4 Bft) 100,00 %
02.04.2016 22:34 10,8 C 64 % 1016,3 hPa 0,0 l/m 16,7 km/h (3 Bft) O-NO 59 0 min 0,000 mm 0,0 UV-I 0 W/m 4,3 C 5,4 C 24,1 km/h (4 Bft) 95,65 %
02.04.2016 22:35 10,8 C 64 % 1016,3 hPa 0,0 l/m 15,9 km/h (3 Bft) O 88 0 min 0,000 mm 0,0 UV-I 0 W/m 4,3 C 5,7 C 19,3 km/h (3 Bft) 100,00 %
02.04.2016 22:36 10,8 C 64 % 1016,3 hPa 0,0 l/m 19,6 km/h (3 Bft) O-NO 64 0 min 0,000 mm 0,0 UV-I 0 W/m 4,3 C 4,4 C 24,1 km/h (4 Bft) 100,00 %
02.04.2016 22:37 10,8 C 64 % 1016,2 hPa 0,0 l/m 19,9 km/h (4 Bft) O-NO 65 0 min 0,000 mm 0,0 UV-I 0 W/m 4,3 C 4,4 C 24,1 km/h (4 Bft) 100,00 %
02.04.2016 22:38 10,7 C 64 % 1016,2 hPa 0,0 l/m 18,0 km/h (3 Bft) O-NO 67 0 min 0,000 mm 0,0 UV-I 0 W/m 4,2 C 4,9 C 25,7 km/h (4 Bft) 96,15 %
02.04.2016 22:39 10,7 C 64 % 1016,2 hPa 0,0 l/m 17,5 km/h (3 Bft) O-NO 64 0 min 0,000 mm 0,0 UV-I 0 W/m 4,2 C 5,0 C 24,1 km/h (4 Bft) 100,00 %
02.04.2016 22:40 10,7 C 64 % 1016,1 hPa 0,0 l/m 18,3 km/h (3 Bft) O-NO 71 0 min 0,000 mm 0,0 UV-I 0 W/m 4,2 C 4,7 C 25,7 km/h (4 Bft) 95,65 %
02.04.2016 22:41 10,7 C 64 % 1016,2 hPa 0,0 l/m 17,9 km/h (3 Bft) NO 41 0 min 0,000 mm 0,0 UV-I 0 W/m 4,2 C 4,9 C 22,5 km/h (4 Bft) 100,00 %
02.04.2016 22:42 10,7 C 64 % 1016,2 hPa 0,0 l/m 19,6 km/h (3 Bft) O-NO 67 0 min 0,000 mm 0,0 UV-I 0 W/m 4,2 C 4,3 C 29,0 km/h (5 Bft) 95,65 %
02.04.2016 22:43 10,7 C 64 % 1016,1 hPa 0,0 l/m 17,3 km/h (3 Bft) O-NO 76 0 min 0,000 mm 0,0 UV-I 0 W/m 4,2 C 5,1 C 20,9 km/h (4 Bft) 100,00 %
02.04.2016 22:44 10,7 C 65 % 1016,1 hPa 0,0 l/m 18,2 km/h (3 Bft) O-NO 57 0 min 0,000 mm 0,0 UV-I 0 W/m 4,4 C 4,8 C 24,1 km/h (4 Bft) 100,00 %
02.04.2016 22:45 10,6 C 65 % 1016,1 hPa 0,0 l/m 22,3 km/h (4 Bft) O-NO 63 0 min 0,000 mm 0,0 UV-I 0 W/m 4,3 C 3,4 C 30,6 km/h (5 Bft) 100,00 %
02.04.2016 22:46 10,6 C 65 % 1016,1 hPa 0,0 l/m 16,4 km/h (3 Bft) O-NO 70 0 min 0,000 mm 0,0 UV-I 0 W/m 4,3 C 5,3 C 20,9 km/h (4 Bft) 91,30 %
02.04.2016 22:47 10,6 C 65 % 1016,1 hPa 0,0 l/m 12,3 km/h (3 Bft) O-NO 57 0 min 0,000 mm 0,0 UV-I 0 W/m 4,3 C 7,1 C 17,7 km/h (3 Bft) 95,83 %
02.04.2016 22:48 10,6 C 65 % 1016,1 hPa 0,0 l/m 10,8 km/h (2 Bft) O-NO 65 0 min 0,000 mm 0,0 UV-I 0 W/m 4,3 C 7,8 C 16,1 km/h (3 Bft) 100,00 %
02.04.2016 22:49 10,6 C 65 % 1016,1 hPa 0,0 l/m 15,4 km/h (3 Bft) O-NO 67 0 min 0,000 mm 0,0 UV-I 0 W/m 4,3 C 5,7 C 20,9 km/h (4 Bft) 100,00 %
02.04.2016 22:50 10,6 C 65 % 1016,1 hPa 0,0 l/m 14,8 km/h (3 Bft) O 80 0 min 0,000 mm 0,0 UV-I 0 W/m 4,3 C 5,9 C 19,3 km/h (3 Bft) 100,00 %
02.04.2016 22:51 10,5 C 65 % 1016,1 hPa 0,0 l/m 10,8 km/h (2 Bft) O-NO 67 0 min 0,000 mm 0,0 UV-I 0 W/m 4,2 C 7,7 C 16,1 km/h (3 Bft) 91,67 %
02.04.2016 22:52 10,5 C 65 % 1016,1 hPa 0,0 l/m 13,9 km/h (3 Bft) NO 37 0 min 0,000 mm 0,0 UV-I 0 W/m 4,2 C 6,2 C 20,9 km/h (4 Bft) 95,83 %
02.04.2016 22:53 10,4 C 65 % 1016,1 hPa 0,0 l/m 17,4 km/h (3 Bft) O-NO 73 0 min 0,000 mm 0,0 UV-I 0 W/m 4,1 C 4,7 C 20,9 km/h (4 Bft) 95,65 %
02.04.2016 22:54 10,4 C 65 % 1016,1 hPa 0,0 l/m 18,4 km/h (3 Bft) NO 44 0 min 0,000 mm 0,0 UV-I 0 W/m 4,1 C 4,3 C 22,5 km/h (4 Bft) 100,00 %
02.04.2016 22:55 10,4 C 65 % 1016,1 hPa 0,0 l/m 18,7 km/h (3 Bft) NO 50 0 min 0,000 mm 0,0 UV-I 0 W/m 4,1 C 4,2 C 24,1 km/h (4 Bft) 96,55 %
02.04.2016 22:56 10,4 C 66 % 1016,2 hPa 0,0 l/m 14,9 km/h (3 Bft) O-NO 67 0 min 0,000 mm 0,0 UV-I 0 W/m 4,3 C 5,7 C 20,9 km/h (4 Bft) 100,00 %
02.04.2016 22:57 10,4 C 65 % 1016,1 hPa 0,0 l/m 14,8 km/h (3 Bft) O-NO 58 0 min 0,000 mm 0,0 UV-I 0 W/m 4,1 C 5,7 C 19,3 km/h (3 Bft) 100,00 %
02.04.2016 22:58 10,4 C 66 % 1016,1 hPa 0,0 l/m 13,8 km/h (3 Bft) O-NO 63 0 min 0,000 mm 0,0 UV-I 0 W/m 4,3 C 6,1 C 17,7 km/h (3 Bft) 100,00 %
02.04.2016 22:59 10,3 C 66 % 1016,2 hPa 0,0 l/m 15,8 km/h (3 Bft) O-NO 57 0 min 0,000 mm 0,0 UV-I 0 W/m 4,2 C 5,2 C 19,3 km/h (3 Bft) 100,00 %
02.04.2016 23:00 10,3 C 66 % 1016,2 hPa 0,0 l/m 14,6 km/h (3 Bft) NO 49 0 min 0,000 mm 0,0 UV-I 0 W/m 4,2 C 5,7 C 17,7 km/h (3 Bft) 100,00 %
02.04.2016 23:01 10,3 C 66 % 1016,2 hPa 0,0 l/m 17,5 km/h (3 Bft) O-NO 60 0 min 0,077 mm 0,0 UV-I 0 W/m 4,2 C 4,5 C 25,7 km/h (4 Bft) 100,00 %
02.04.2016 23:02 10,3 C 66 % 1016,1 hPa 0,0 l/m 18,2 km/h (3 Bft) NO 51 0 min 0,000 mm 0,0 UV-I 0 W/m 4,2 C 4,3 C 22,5 km/h (4 Bft) 100,00 %
02.04.2016 23:03 10,3 C 66 % 1016,1 hPa 0,0 l/m 15,0 km/h (3 Bft) O-NO 62 0 min 0,000 mm 0,0 UV-I 0 W/m 4,2 C 5,5 C 17,7 km/h (3 Bft) 96,15 %
02.04.2016 23:04 10,3 C 66 % 1016,1 hPa 0,0 l/m 16,9 km/h (3 Bft) O-NO 69 0 min 0,000 mm 0,0 UV-I 0 W/m 4,2 C 4,7 C 20,9 km/h (4 Bft) 100,00 %
02.04.2016 23:05 10,2 C 66 % 1016,2 hPa 0,0 l/m 13,7 km/h (3 Bft) O-NO 67 0 min 0,000 mm 0,0 UV-I 0 W/m 4,1 C 5,9 C 19,3 km/h (3 Bft) 100,00 %
02.04.2016 23:06 10,2 C 66 % 1016,1 hPa 0,0 l/m 15,6 km/h (3 Bft) O-NO 66 0 min 0,000 mm 0,0 UV-I 0 W/m 4,1 C 5,1 C 19,3 km/h (3 Bft) 100,00 %
02.04.2016 23:07 10,2 C 67 % 1016,0 hPa 0,0 l/m 12,3 km/h (3 Bft) O-NO 59 0 min 0,000 mm 0,0 UV-I 0 W/m 4,4 C 6,6 C 17,7 km/h (3 Bft) 100,00 %
02.04.2016 23:08 10,2 C 67 % 1016,1 hPa 0,0 l/m 12,2 km/h (2 Bft) O-NO 59 0 min 0,000 mm 0,0 UV-I 0 W/m 4,4 C 6,6 C 16,1 km/h (3 Bft) 100,00 %
02.04.2016 23:09 10,2 C 67 % 1016,1 hPa 0,0 l/m 13,7 km/h (3 Bft) O-NO 63 0 min 0,000 mm 0,0 UV-I 0 W/m 4,4 C 5,9 C 17,7 km/h (3 Bft) 100,00 %
02.04.2016 23:10 10,1 C 67 % 1016,1 hPa 0,0 l/m 11,8 km/h (2 Bft) O-NO 59 0 min 0,000 mm 0,0 UV-I 0 W/m 4,3 C 6,7 C 16,1 km/h (3 Bft) 100,00 %
02.04.2016 23:11 10,1 C 67 % 1016,1 hPa 0,0 l/m 13,9 km/h (3 Bft) O-NO 66 0 min 0,000 mm 0,0 UV-I 0 W/m 4,3 C 5,7 C 17,7 km/h (3 Bft) 100,00 %
02.04.2016 23:12 10,1 C 67 % 1016,1 hPa 0,0 l/m 17,1 km/h (3 Bft) O 84 0 min 0,000 mm 0,0 UV-I 0 W/m 4,3 C 4,4 C 20,9 km/h (4 Bft) 100,00 %
02.04.2016 23:13 10,0 C 67 % 1016,1 hPa 0,0 l/m 14,3 km/h (3 Bft) O-NO 63 0 min 0,000 mm 0,0 UV-I 0 W/m 4,2 C 5,4 C 20,9 km/h (4 Bft) 100,00 %
02.04.2016 23:14 10,0 C 67 % 1016,1 hPa 0,0 l/m 12,5 km/h (3 Bft) O-NO 67 0 min 0,000 mm 0,0 UV-I 0 W/m 4,2 C 6,3 C 17,7 km/h (3 Bft) 100,00 %
02.04.2016 23:15 9,9 C 67 % 1016,1 hPa 0,0 l/m 16,6 km/h (3 Bft) O-NO 59 0 min 0,000 mm 0,0 UV-I 0 W/m 4,1 C 4,4 C 25,7 km/h (4 Bft) 100,00 %
02.04.2016 23:16 9,9 C 67 % 1016,1 hPa 0,0 l/m 19,0 km/h (3 Bft) O-NO 57 0 min 0,000 mm 0,0 UV-I 0 W/m 4,1 C 3,5 C 27,4 km/h (4 Bft) 100,00 %
02.04.2016 23:17 9,9 C 67 % 1016,1 hPa 0,0 l/m 16,4 km/h (3 Bft) NO 45 0 min 0,000 mm 0,0 UV-I 0 W/m 4,1 C 4,4 C 24,1 km/h (4 Bft) 100,00 %
02.04.2016 23:18 9,9 C 67 % 1016,1 hPa 0,0 l/m 15,8 km/h (3 Bft) N-NO 33 0 min 0,000 mm 0,0 UV-I 0 W/m 4,1 C 4,7 C 19,3 km/h (3 Bft) 100,00 %
02.04.2016 23:19 9,9 C 68 % 1016,1 hPa 0,0 l/m 14,3 km/h (3 Bft) O-NO 74 0 min 0,000 mm 0,0 UV-I 0 W/m 4,3 C 5,3 C 19,3 km/h (3 Bft) 100,00 %
02.04.2016 23:20 9,9 C 68 % 1016,1 hPa 0,0 l/m 18,6 km/h (3 Bft) O 83 0 min 0,000 mm 0,0 UV-I 0 W/m 4,3 C 3,6 C 24,1 km/h (4 Bft) 100,00 %
02.04.2016 23:21 9,9 C 67 % 1016,0 hPa 0,0 l/m 14,5 km/h (3 Bft) O-NO 59 0 min 0,000 mm 0,0 UV-I 0 W/m 4,1 C 5,2 C 22,5 km/h (4 Bft) 100,00 %
02.04.2016 23:22 9,9 C 68 % 1016,1 hPa 0,0 l/m 13,7 km/h (3 Bft) O-NO 68 0 min 0,000 mm 0,0 UV-I 0 W/m 4,3 C 5,6 C 16,1 km/h (3 Bft) 100,00 %
02.04.2016 23:23 9,9 C 68 % 1016,0 hPa 0,0 l/m 16,5 km/h (3 Bft) O-NO 63 0 min 0,000 mm 0,0 UV-I 0 W/m 4,3 C 4,4 C 20,9 km/h (4 Bft) 100,00 %
02.04.2016 23:24 9,9 C 68 % 1016,0 hPa 0,0 l/m 16,2 km/h (3 Bft) O 82 0 min 0,000 mm 0,0 UV-I 0 W/m 4,3 C 4,5 C 19,3 km/h (3 Bft) 95,65 %
02.04.2016 23:25 9,8 C 68 % 1016,0 hPa 0,0 l/m 14,8 km/h (3 Bft) O-NO 67 0 min 0,000 mm 0,0 UV-I 0 W/m 4,2 C 5,0 C 20,9 km/h (4 Bft) 100,00 %
02.04.2016 23:26 9,8 C 68 % 1015,9 hPa 0,0 l/m 14,1 km/h (3 Bft) O 86 0 min 0,000 mm 0,0 UV-I 0 W/m 4,2 C 5,3 C 19,3 km/h (3 Bft) 100,00 %
02.04.2016 23:27 9,8 C 68 % 1015,9 hPa 0,0 l/m 15,5 km/h (3 Bft) O-NO 70 0 min 0,000 mm 0,0 UV-I 0 W/m 4,2 C 4,7 C 24,1 km/h (4 Bft) 100,00 %
02.04.2016 23:28 9,8 C 68 % 1015,9 hPa 0,0 l/m 19,1 km/h (3 Bft) O 82 0 min 0,000 mm 0,0 UV-I 0 W/m 4,2 C 3,3 C 24,1 km/h (4 Bft) 100,00 %
02.04.2016 23:29 9,8 C 68 % 1015,9 hPa 0,0 l/m 18,8 km/h (3 Bft) NO 51 0 min 0,000 mm 0,0 UV-I 0 W/m 4,2 C 3,4 C 24,1 km/h (4 Bft) 100,00 %
02.04.2016 23:30 9,8 C 68 % 1015,9 hPa 0,0 l/m 13,8 km/h (3 Bft) O-NO 65 0 min 0,000 mm 0,0 UV-I 0 W/m 4,2 C 5,4 C 19,3 km/h (3 Bft) 100,00 %
02.04.2016 23:31 9,8 C 68 % 1015,9 hPa 0,0 l/m 17,9 km/h (3 Bft) O-NO 59 0 min 0,000 mm 0,0 UV-I 0 W/m 4,2 C 3,8 C 20,9 km/h (4 Bft) 100,00 %
02.04.2016 23:32 9,8 C 68 % 1015,9 hPa 0,0 l/m 17,4 km/h (3 Bft) NO 55 0 min 0,000 mm 0,0 UV-I 0 W/m 4,2 C 3,9 C 25,7 km/h (4 Bft) 95,83 %
02.04.2016 23:33 9,8 C 68 % 1015,9 hPa 0,0 l/m 16,7 km/h (3 Bft) O-NO 67 0 min 0,000 mm 0,0 UV-I 0 W/m 4,2 C 4,2 C 25,7 km/h (4 Bft) 100,00 %
02.04.2016 23:34 9,7 C 69 % 1015,9 hPa 0,0 l/m 16,6 km/h (3 Bft) O-NO 58 0 min 0,000 mm 0,0 UV-I 0 W/m 4,3 C 4,1 C 22,5 km/h (4 Bft) 100,00 %
02.04.2016 23:35 9,7 C 68 % 1015,9 hPa 0,0 l/m 13,1 km/h (3 Bft) NO 53 0 min 0,000 mm 0,0 UV-I 0 W/m 4,1 C 5,6 C 17,7 km/h (3 Bft) 100,00 %
02.04.2016 23:36 9,7 C 69 % 1015,9 hPa 0,0 l/m 12,0 km/h (2 Bft) O-NO 69 0 min 0,000 mm 0,0 UV-I 0 W/m 4,3 C 6,2 C 16,1 km/h (3 Bft) 100,00 %
02.04.2016 23:37 9,7 C 69 % 1015,9 hPa 0,0 l/m 12,5 km/h (3 Bft) O-NO 67 0 min 0,000 mm 0,0 UV-I 0 W/m 4,3 C 5,9 C 17,7 km/h (3 Bft) 100,00 %
02.04.2016 23:38 9,7 C 69 % 1015,8 hPa 0,0 l/m 14,6 km/h (3 Bft) NO 53 0 min 0,000 mm 0,0 UV-I 0 W/m 4,3 C 4,9 C 19,3 km/h (3 Bft) 95,83 %
02.04.2016 23:39 9,7 C 69 % 1015,8 hPa 0,0 l/m 12,7 km/h (3 Bft) O-NO 66 0 min 0,000 mm 0,0 UV-I 0 W/m 4,3 C 5,8 C 17,7 km/h (3 Bft) 100,00 %
02.04.2016 23:40 9,6 C 69 % 1015,9 hPa 0,0 l/m 11,6 km/h (2 Bft) O-NO 67 0 min 0,000 mm 0,0 UV-I 0 W/m 4,2 C 6,3 C 17,7 km/h (3 Bft) 100,00 %
02.04.2016 23:41 9,6 C 69 % 1015,8 hPa 0,0 l/m 14,3 km/h (3 Bft) O-NO 61 0 min 0,000 mm 0,0 UV-I 0 W/m 4,2 C 5,0 C 20,9 km/h (4 Bft) 95,65 %
02.04.2016 23:42 9,6 C 69 % 1015,8 hPa 0,0 l/m 14,8 km/h (3 Bft) O-NO 60 0 min 0,000 mm 0,0 UV-I 0 W/m 4,2 C 4,7 C 19,3 km/h (3 Bft) 100,00 %
02.04.2016 23:43 9,6 C 69 % 1015,8 hPa 0,0 l/m 17,4 km/h (3 Bft) O-NO 64 0 min 0,000 mm 0,0 UV-I 0 W/m 4,2 C 3,7 C 24,1 km/h (4 Bft) 95,65 %
02.04.2016 23:44 9,5 C 69 % 1015,8 hPa 0,0 l/m 14,4 km/h (3 Bft) NO 55 0 min 0,000 mm 0,0 UV-I 0 W/m 4,1 C 4,8 C 17,7 km/h (3 Bft) 100,00 %
02.04.2016 23:45 9,6 C 69 % 1015,8 hPa 0,0 l/m 14,9 km/h (3 Bft) O 96 0 min 0,000 mm 0,0 UV-I 0 W/m 4,2 C 4,7 C 19,3 km/h (3 Bft) 95,65 %
02.04.2016 23:46 9,5 C 70 % 1015,8 hPa 0,0 l/m 15,6 km/h (3 Bft) O-NO 67 0 min 0,000 mm 0,0 UV-I 0 W/m 4,3 C 4,3 C 19,3 km/h (3 Bft) 100,00 %
02.04.2016 23:47 9,5 C 69 % 1015,8 hPa 0,0 l/m 15,7 km/h (3 Bft) NO 52 0 min 0,000 mm 0,0 UV-I 0 W/m 4,1 C 4,2 C 19,3 km/h (3 Bft) 95,65 %
02.04.2016 23:48 9,4 C 69 % 1015,8 hPa 0,0 l/m 16,1 km/h (3 Bft) O-NO 78 0 min 0,000 mm 0,0 UV-I 0 W/m 4,0 C 3,9 C 20,9 km/h (4 Bft) 91,67 %
02.04.2016 23:49 9,4 C 69 % 1015,8 hPa 0,0 l/m 14,6 km/h (3 Bft) O-NO 57 0 min 0,000 mm 0,0 UV-I 0 W/m 4,0 C 4,6 C 19,3 km/h (3 Bft) 100,00 %
02.04.2016 23:50 9,4 C 70 % 1015,8 hPa 0,0 l/m 14,6 km/h (3 Bft) O-NO 57 0 min 0,000 mm 0,0 UV-I 0 W/m 4,2 C 4,6 C 17,7 km/h (3 Bft) 91,30 %
02.04.2016 23:51 9,4 C 70 % 1015,8 hPa 0,0 l/m 14,1 km/h (3 Bft) NO 56 0 min 0,000 mm 0,0 UV-I 0 W/m 4,2 C 4,8 C 20,9 km/h (4 Bft) 100,00 %
02.04.2016 23:52 9,4 C 70 % 1015,8 hPa 0,0 l/m 13,1 km/h (3 Bft) O-NO 60 0 min 0,000 mm 0,0 UV-I 0 W/m 4,2 C 5,3 C 16,1 km/h (3 Bft) 91,30 %
02.04.2016 23:53 9,4 C 70 % 1015,8 hPa 0,0 l/m 13,1 km/h (3 Bft) O-NO 60 0 min 0,000 mm 0,0 UV-I 0 W/m 4,2 C 5,3 C 20,9 km/h (4 Bft) 100,00 %
02.04.2016 23:54 9,4 C 70 % 1015,8 hPa 0,0 l/m 11,9 km/h (2 Bft) NO 51 0 min 0,000 mm 0,0 UV-I 0 W/m 4,2 C 5,9 C 16,1 km/h (3 Bft) 91,30 %
02.04.2016 23:55 9,4 C 70 % 1015,8 hPa 0,0 l/m 15,0 km/h (3 Bft) NO 56 0 min 0,000 mm 0,0 UV-I 0 W/m 4,2 C 4,4 C 19,3 km/h (3 Bft) 95,83 %
02.04.2016 23:56 9,4 C 70 % 1015,8 hPa 0,0 l/m 13,5 km/h (3 Bft) NO 56 0 min 0,000 mm 0,0 UV-I 0 W/m 4,2 C 5,1 C 16,1 km/h (3 Bft) 100,00 %
02.04.2016 23:57 9,3 C 70 % 1015,8 hPa 0,0 l/m 13,8 km/h (3 Bft) O-NO 62 0 min 0,000 mm 0,0 UV-I 0 W/m 4,1 C 4,8 C 19,3 km/h (3 Bft) 91,67 %
02.04.2016 23:58 9,3 C 70 % 1015,8 hPa 0,0 l/m 17,0 km/h (3 Bft) O-NO 69 0 min 0,000 mm 0,0 UV-I 0 W/m 4,1 C 3,5 C 22,5 km/h (4 Bft) 100,00 %
02.04.2016 23:59 9,3 C 70 % 1015,8 hPa 0,0 l/m 15,8 km/h (3 Bft) O-NO 78 0 min 0,000 mm 0,0 UV-I 0 W/m 4,1 C 3,9 C 22,5 km/h (4 Bft) 95,83 %
_ Min-Zeit 07:09 15:55 23:38 - 14:30 - - - - - - 07:51 06:27 14:30 05:31
Minimum _ 4,4 C 51 % 1015,8 hPa - 9,6 km/h (2 Bft) - - - - - - -0,0 C -7,4 C 14,5 km/h (3 Bft) 83,33 %
_ Max-Zeit 15:28 00:25 01:29 00:00 06:27 - - 09:02 14:01 12:27 13:11 14:56 15:03 06:26 00:00
Maximum _ 15,1 C 79 % 1021,2 hPa 0,0 l/m 32,3 km/h
O-NO (5 Bft)
- - 2 min 0,432 mm 3,1 UV-I 698 W/m 6,7 C 12,8 C 43,5 km/h
O-NO (6 Bft)
100,00 %
Durchschnitt _ 9,4 C 66 % 1018,6 hPa #0,0 l/m 20,1 km/h (4 Bft) O-NO - #9:35 h #4,039 mm 1,9 UV-I 381 W/m 3,2 C 2,6 C 26,5 km/h (4 Bft) 98,54 %